<?xml version="1.0" encoding="UTF-8" standalone="no" ?>
<gpx xmlns="http://www.topografix.com/GPX/1/1" xmlns:xsi="http://www.w3.org/2001/XMLSchema-instance" xsi:schemaLocation="http://www.topografix.com/GPX/1/1 http://www.topografix.com/GPX/1/1/gpx.xsd" version="1.1" creator="VisuGPX - https://www.visugpx.com">
  <metadata>
    <name>Repérage chemins pour VTT Meix</name>
  </metadata>
  <trk>
    <name><![CDATA[33- VTT à l'impro]]></name>
    <trkseg>
      <trkpt lat="49.67058" lon="5.49345">
        <ele>371</ele>
        <time>2025-05-27T11:04:58.000Z</time>
      </trkpt>
      <trkpt lat="49.6706" lon="5.49349">
        <ele>371</ele>
        <time>2025-05-27T11:05:06.000Z</time>
      </trkpt>
      <trkpt lat="49.67063" lon="5.49355">
        <ele>371</ele>
        <time>2025-05-27T11:05:09.000Z</time>
      </trkpt>
      <trkpt lat="49.67071" lon="5.49352">
        <ele>371.39999389648</ele>
        <time>2025-05-27T11:05:13.000Z</time>
      </trkpt>
      <trkpt lat="49.67075" lon="5.49345">
        <ele>371.60000610352</ele>
        <time>2025-05-27T11:05:16.000Z</time>
      </trkpt>
      <trkpt lat="49.67079" lon="5.49341">
        <ele>371.60000610352</ele>
        <time>2025-05-27T11:05:18.000Z</time>
      </trkpt>
      <trkpt lat="49.67092" lon="5.49324">
        <ele>372</ele>
        <time>2025-05-27T11:05:25.000Z</time>
      </trkpt>
      <trkpt lat="49.67114" lon="5.49296">
        <ele>372.20001220703</ele>
        <time>2025-05-27T11:05:33.000Z</time>
      </trkpt>
      <trkpt lat="49.67125" lon="5.49282">
        <ele>373.39999389648</ele>
        <time>2025-05-27T11:05:37.000Z</time>
      </trkpt>
      <trkpt lat="49.67138" lon="5.49265">
        <ele>373.79998779297</ele>
        <time>2025-05-27T11:05:42.000Z</time>
      </trkpt>
      <trkpt lat="49.67139" lon="5.49259">
        <ele>373.79998779297</ele>
        <time>2025-05-27T11:05:43.000Z</time>
      </trkpt>
      <trkpt lat="49.67135" lon="5.49248">
        <ele>373.79998779297</ele>
        <time>2025-05-27T11:05:45.000Z</time>
      </trkpt>
      <trkpt lat="49.67129" lon="5.49237">
        <ele>374</ele>
        <time>2025-05-27T11:05:47.000Z</time>
      </trkpt>
      <trkpt lat="49.67119" lon="5.49219">
        <ele>374.20001220703</ele>
        <time>2025-05-27T11:05:50.000Z</time>
      </trkpt>
      <trkpt lat="49.67113" lon="5.49207">
        <ele>373.79998779297</ele>
        <time>2025-05-27T11:05:52.000Z</time>
      </trkpt>
      <trkpt lat="49.67092" lon="5.49172">
        <ele>373.20001220703</ele>
        <time>2025-05-27T11:05:58.000Z</time>
      </trkpt>
      <trkpt lat="49.67089" lon="5.49166">
        <ele>373</ele>
        <time>2025-05-27T11:05:59.000Z</time>
      </trkpt>
      <trkpt lat="49.67077" lon="5.4914">
        <ele>371.79998779297</ele>
        <time>2025-05-27T11:06:03.000Z</time>
      </trkpt>
      <trkpt lat="49.67068" lon="5.4912">
        <ele>370.79998779297</ele>
        <time>2025-05-27T11:06:06.000Z</time>
      </trkpt>
      <trkpt lat="49.67051" lon="5.49063">
        <ele>369.60000610352</ele>
        <time>2025-05-27T11:06:14.000Z</time>
      </trkpt>
      <trkpt lat="49.67034" lon="5.48981">
        <ele>370</ele>
        <time>2025-05-27T11:06:25.000Z</time>
      </trkpt>
      <trkpt lat="49.67025" lon="5.48935">
        <ele>369</ele>
        <time>2025-05-27T11:06:31.000Z</time>
      </trkpt>
      <trkpt lat="49.67016" lon="5.48896">
        <ele>370</ele>
        <time>2025-05-27T11:06:36.000Z</time>
      </trkpt>
      <trkpt lat="49.67013" lon="5.4888">
        <ele>370</ele>
        <time>2025-05-27T11:06:38.000Z</time>
      </trkpt>
      <trkpt lat="49.67005" lon="5.48823">
        <ele>369</ele>
        <time>2025-05-27T11:06:45.000Z</time>
      </trkpt>
      <trkpt lat="49.67003" lon="5.4879">
        <ele>369.39999389648</ele>
        <time>2025-05-27T11:06:49.000Z</time>
      </trkpt>
      <trkpt lat="49.67" lon="5.4875">
        <ele>372.60000610352</ele>
        <time>2025-05-27T11:06:54.000Z</time>
      </trkpt>
      <trkpt lat="49.66997" lon="5.48696">
        <ele>376.39999389648</ele>
        <time>2025-05-27T11:07:01.000Z</time>
      </trkpt>
      <trkpt lat="49.66998" lon="5.48666">
        <ele>376.60000610352</ele>
        <time>2025-05-27T11:07:05.000Z</time>
      </trkpt>
      <trkpt lat="49.66999" lon="5.48634">
        <ele>375.39999389648</ele>
        <time>2025-05-27T11:07:09.000Z</time>
      </trkpt>
      <trkpt lat="49.67005" lon="5.48588">
        <ele>374.20001220703</ele>
        <time>2025-05-27T11:07:15.000Z</time>
      </trkpt>
      <trkpt lat="49.67009" lon="5.48557">
        <ele>373.60000610352</ele>
        <time>2025-05-27T11:07:19.000Z</time>
      </trkpt>
      <trkpt lat="49.67009" lon="5.48542">
        <ele>374</ele>
        <time>2025-05-27T11:07:21.000Z</time>
      </trkpt>
      <trkpt lat="49.67004" lon="5.48497">
        <ele>374</ele>
        <time>2025-05-27T11:07:27.000Z</time>
      </trkpt>
      <trkpt lat="49.67" lon="5.48452">
        <ele>373.20001220703</ele>
        <time>2025-05-27T11:07:33.000Z</time>
      </trkpt>
      <trkpt lat="49.66995" lon="5.48398">
        <ele>373</ele>
        <time>2025-05-27T11:07:40.000Z</time>
      </trkpt>
      <trkpt lat="49.66988" lon="5.48342">
        <ele>373</ele>
        <time>2025-05-27T11:07:47.000Z</time>
      </trkpt>
      <trkpt lat="49.66983" lon="5.48295">
        <ele>373.60000610352</ele>
        <time>2025-05-27T11:07:53.000Z</time>
      </trkpt>
      <trkpt lat="49.66978" lon="5.48255">
        <ele>374.79998779297</ele>
        <time>2025-05-27T11:07:58.000Z</time>
      </trkpt>
      <trkpt lat="49.66973" lon="5.4821">
        <ele>375</ele>
        <time>2025-05-27T11:08:04.000Z</time>
      </trkpt>
      <trkpt lat="49.66968" lon="5.48161">
        <ele>374.60000610352</ele>
        <time>2025-05-27T11:08:10.000Z</time>
      </trkpt>
      <trkpt lat="49.66968" lon="5.48153">
        <ele>374.60000610352</ele>
        <time>2025-05-27T11:08:11.000Z</time>
      </trkpt>
      <trkpt lat="49.66966" lon="5.48131">
        <ele>374.39999389648</ele>
        <time>2025-05-27T11:08:14.000Z</time>
      </trkpt>
      <trkpt lat="49.66963" lon="5.48118">
        <ele>374</ele>
        <time>2025-05-27T11:08:16.000Z</time>
      </trkpt>
      <trkpt lat="49.66951" lon="5.48102">
        <ele>373.20001220703</ele>
        <time>2025-05-27T11:08:20.000Z</time>
      </trkpt>
      <trkpt lat="49.66947" lon="5.48099">
        <ele>373</ele>
        <time>2025-05-27T11:08:21.000Z</time>
      </trkpt>
      <trkpt lat="49.66932" lon="5.48087">
        <ele>372.39999389648</ele>
        <time>2025-05-27T11:08:24.000Z</time>
      </trkpt>
      <trkpt lat="49.66927" lon="5.48084">
        <ele>372.20001220703</ele>
        <time>2025-05-27T11:08:25.000Z</time>
      </trkpt>
      <trkpt lat="49.66897" lon="5.48068">
        <ele>370.79998779297</ele>
        <time>2025-05-27T11:08:31.000Z</time>
      </trkpt>
      <trkpt lat="49.66891" lon="5.48066">
        <ele>370.60000610352</ele>
        <time>2025-05-27T11:08:32.000Z</time>
      </trkpt>
      <trkpt lat="49.6687" lon="5.48056">
        <ele>370.20001220703</ele>
        <time>2025-05-27T11:08:36.000Z</time>
      </trkpt>
      <trkpt lat="49.66848" lon="5.48042">
        <ele>369.79998779297</ele>
        <time>2025-05-27T11:08:41.000Z</time>
      </trkpt>
      <trkpt lat="49.6684" lon="5.48035">
        <ele>369.79998779297</ele>
        <time>2025-05-27T11:08:43.000Z</time>
      </trkpt>
      <trkpt lat="49.66827" lon="5.48022">
        <ele>369.20001220703</ele>
        <time>2025-05-27T11:08:46.000Z</time>
      </trkpt>
      <trkpt lat="49.66811" lon="5.48006">
        <ele>368</ele>
        <time>2025-05-27T11:08:50.000Z</time>
      </trkpt>
      <trkpt lat="49.66805" lon="5.48003">
        <ele>367.39999389648</ele>
        <time>2025-05-27T11:08:51.000Z</time>
      </trkpt>
      <trkpt lat="49.66788" lon="5.47998">
        <ele>365.60000610352</ele>
        <time>2025-05-27T11:08:54.000Z</time>
      </trkpt>
      <trkpt lat="49.66745" lon="5.4799">
        <ele>362</ele>
        <time>2025-05-27T11:09:01.000Z</time>
      </trkpt>
      <trkpt lat="49.66734" lon="5.47988">
        <ele>360.79998779297</ele>
        <time>2025-05-27T11:09:03.000Z</time>
      </trkpt>
      <trkpt lat="49.66699" lon="5.4798">
        <ele>360</ele>
        <time>2025-05-27T11:09:09.000Z</time>
      </trkpt>
      <trkpt lat="49.66692" lon="5.47979">
        <ele>359.79998779297</ele>
        <time>2025-05-27T11:09:10.000Z</time>
      </trkpt>
      <trkpt lat="49.66655" lon="5.47973">
        <ele>358.39999389648</ele>
        <time>2025-05-27T11:09:16.000Z</time>
      </trkpt>
      <trkpt lat="49.66637" lon="5.4797">
        <ele>358</ele>
        <time>2025-05-27T11:09:19.000Z</time>
      </trkpt>
      <trkpt lat="49.66627" lon="5.47968">
        <ele>357.79998779297</ele>
        <time>2025-05-27T11:09:21.000Z</time>
      </trkpt>
      <trkpt lat="49.66604" lon="5.47964">
        <ele>357.79998779297</ele>
        <time>2025-05-27T11:09:25.000Z</time>
      </trkpt>
      <trkpt lat="49.66555" lon="5.47954">
        <ele>356.79998779297</ele>
        <time>2025-05-27T11:09:34.000Z</time>
      </trkpt>
      <trkpt lat="49.66508" lon="5.47947">
        <ele>356.79998779297</ele>
        <time>2025-05-27T11:09:43.000Z</time>
      </trkpt>
      <trkpt lat="49.6646" lon="5.4794">
        <ele>357.60000610352</ele>
        <time>2025-05-27T11:09:52.000Z</time>
      </trkpt>
      <trkpt lat="49.66439" lon="5.47936">
        <ele>356.20001220703</ele>
        <time>2025-05-27T11:09:56.000Z</time>
      </trkpt>
      <trkpt lat="49.66412" lon="5.47931">
        <ele>354</ele>
        <time>2025-05-27T11:10:01.000Z</time>
      </trkpt>
      <trkpt lat="49.66377" lon="5.47915">
        <ele>352</ele>
        <time>2025-05-27T11:10:08.000Z</time>
      </trkpt>
      <trkpt lat="49.66367" lon="5.47911">
        <ele>352.39999389648</ele>
        <time>2025-05-27T11:10:10.000Z</time>
      </trkpt>
      <trkpt lat="49.66354" lon="5.4791">
        <ele>354</ele>
        <time>2025-05-27T11:10:13.000Z</time>
      </trkpt>
      <trkpt lat="49.66344" lon="5.4793">
        <ele>354.20001220703</ele>
        <time>2025-05-27T11:10:16.000Z</time>
      </trkpt>
      <trkpt lat="49.66341" lon="5.47947">
        <ele>353.60000610352</ele>
        <time>2025-05-27T11:10:18.000Z</time>
      </trkpt>
      <trkpt lat="49.66338" lon="5.47971">
        <ele>353</ele>
        <time>2025-05-27T11:10:21.000Z</time>
      </trkpt>
      <trkpt lat="49.66338" lon="5.47979">
        <ele>353</ele>
        <time>2025-05-27T11:10:22.000Z</time>
      </trkpt>
      <trkpt lat="49.66339" lon="5.48017">
        <ele>353</ele>
        <time>2025-05-27T11:10:27.000Z</time>
      </trkpt>
      <trkpt lat="49.66334" lon="5.48029">
        <ele>353.39999389648</ele>
        <time>2025-05-27T11:10:30.000Z</time>
      </trkpt>
      <trkpt lat="49.6633" lon="5.4802">
        <ele>353.60000610352</ele>
        <time>2025-05-27T11:10:32.000Z</time>
      </trkpt>
      <trkpt lat="49.66325" lon="5.48007">
        <ele>354</ele>
        <time>2025-05-27T11:10:34.000Z</time>
      </trkpt>
      <trkpt lat="49.66317" lon="5.47987">
        <ele>354.39999389648</ele>
        <time>2025-05-27T11:10:37.000Z</time>
      </trkpt>
      <trkpt lat="49.66296" lon="5.47945">
        <ele>357</ele>
        <time>2025-05-27T11:10:43.000Z</time>
      </trkpt>
      <trkpt lat="49.66292" lon="5.47939">
        <ele>357</ele>
        <time>2025-05-27T11:10:44.000Z</time>
      </trkpt>
      <trkpt lat="49.66269" lon="5.47911">
        <ele>357.20001220703</ele>
        <time>2025-05-27T11:10:49.000Z</time>
      </trkpt>
      <trkpt lat="49.66264" lon="5.47906">
        <ele>357</ele>
        <time>2025-05-27T11:10:50.000Z</time>
      </trkpt>
      <trkpt lat="49.66254" lon="5.47897">
        <ele>356.60000610352</ele>
        <time>2025-05-27T11:10:52.000Z</time>
      </trkpt>
      <trkpt lat="49.66224" lon="5.47873">
        <ele>357</ele>
        <time>2025-05-27T11:10:58.000Z</time>
      </trkpt>
      <trkpt lat="49.66199" lon="5.47849">
        <ele>357.39999389648</ele>
        <time>2025-05-27T11:11:04.000Z</time>
      </trkpt>
      <trkpt lat="49.66171" lon="5.47824">
        <ele>357</ele>
        <time>2025-05-27T11:11:10.000Z</time>
      </trkpt>
      <trkpt lat="49.6613" lon="5.47782">
        <ele>353.60000610352</ele>
        <time>2025-05-27T11:11:19.000Z</time>
      </trkpt>
      <trkpt lat="49.66107" lon="5.47746">
        <ele>352.39999389648</ele>
        <time>2025-05-27T11:11:25.000Z</time>
      </trkpt>
      <trkpt lat="49.66101" lon="5.47733">
        <ele>352</ele>
        <time>2025-05-27T11:11:27.000Z</time>
      </trkpt>
      <trkpt lat="49.66075" lon="5.47674">
        <ele>351.39999389648</ele>
        <time>2025-05-27T11:11:36.000Z</time>
      </trkpt>
      <trkpt lat="49.66055" lon="5.47623">
        <ele>352.60000610352</ele>
        <time>2025-05-27T11:11:44.000Z</time>
      </trkpt>
      <trkpt lat="49.66049" lon="5.47611">
        <ele>353</ele>
        <time>2025-05-27T11:11:46.000Z</time>
      </trkpt>
      <trkpt lat="49.66029" lon="5.47567">
        <ele>352.39999389648</ele>
        <time>2025-05-27T11:11:53.000Z</time>
      </trkpt>
      <trkpt lat="49.66007" lon="5.47516">
        <ele>350</ele>
        <time>2025-05-27T11:12:01.000Z</time>
      </trkpt>
      <trkpt lat="49.65999" lon="5.47498">
        <ele>349.79998779297</ele>
        <time>2025-05-27T11:12:04.000Z</time>
      </trkpt>
      <trkpt lat="49.65991" lon="5.4749">
        <ele>349.79998779297</ele>
        <time>2025-05-27T11:12:06.000Z</time>
      </trkpt>
      <trkpt lat="49.65977" lon="5.47496">
        <ele>349.20001220703</ele>
        <time>2025-05-27T11:12:09.000Z</time>
      </trkpt>
      <trkpt lat="49.65972" lon="5.47498">
        <ele>348.79998779297</ele>
        <time>2025-05-27T11:12:10.000Z</time>
      </trkpt>
      <trkpt lat="49.65943" lon="5.4751">
        <ele>348</ele>
        <time>2025-05-27T11:12:16.000Z</time>
      </trkpt>
      <trkpt lat="49.65913" lon="5.47517">
        <ele>348</ele>
        <time>2025-05-27T11:12:22.000Z</time>
      </trkpt>
      <trkpt lat="49.65899" lon="5.47522">
        <ele>348.60000610352</ele>
        <time>2025-05-27T11:12:25.000Z</time>
      </trkpt>
      <trkpt lat="49.65856" lon="5.47538">
        <ele>347.60000610352</ele>
        <time>2025-05-27T11:12:34.000Z</time>
      </trkpt>
      <trkpt lat="49.65827" lon="5.47558">
        <ele>346.20001220703</ele>
        <time>2025-05-27T11:12:41.000Z</time>
      </trkpt>
      <trkpt lat="49.65813" lon="5.47573">
        <ele>345.20001220703</ele>
        <time>2025-05-27T11:12:46.000Z</time>
      </trkpt>
      <trkpt lat="49.65812" lon="5.47573">
        <ele>345.20001220703</ele>
        <time>2025-05-27T11:15:11.000Z</time>
      </trkpt>
      <trkpt lat="49.65807" lon="5.47576">
        <ele>344.79998779297</ele>
        <time>2025-05-27T11:15:14.000Z</time>
      </trkpt>
      <trkpt lat="49.65804" lon="5.47578">
        <ele>344.79998779297</ele>
        <time>2025-05-27T11:15:15.000Z</time>
      </trkpt>
      <trkpt lat="49.65792" lon="5.47592">
        <ele>344.39999389648</ele>
        <time>2025-05-27T11:15:19.000Z</time>
      </trkpt>
      <trkpt lat="49.65762" lon="5.47624">
        <ele>343.20001220703</ele>
        <time>2025-05-27T11:15:27.000Z</time>
      </trkpt>
      <trkpt lat="49.65758" lon="5.47628">
        <ele>343.20001220703</ele>
        <time>2025-05-27T11:15:28.000Z</time>
      </trkpt>
      <trkpt lat="49.65751" lon="5.47633">
        <ele>343</ele>
        <time>2025-05-27T11:15:30.000Z</time>
      </trkpt>
      <trkpt lat="49.65748" lon="5.47632">
        <ele>343</ele>
        <time>2025-05-27T11:15:31.000Z</time>
      </trkpt>
      <trkpt lat="49.65732" lon="5.47627">
        <ele>343.39999389648</ele>
        <time>2025-05-27T11:15:35.000Z</time>
      </trkpt>
      <trkpt lat="49.65729" lon="5.47625">
        <ele>343.39999389648</ele>
        <time>2025-05-27T11:15:36.000Z</time>
      </trkpt>
      <trkpt lat="49.65727" lon="5.4762">
        <ele>343.39999389648</ele>
        <time>2025-05-27T11:15:37.000Z</time>
      </trkpt>
      <trkpt lat="49.65717" lon="5.47602">
        <ele>343.79998779297</ele>
        <time>2025-05-27T11:15:41.000Z</time>
      </trkpt>
      <trkpt lat="49.65693" lon="5.47563">
        <ele>345.60000610352</ele>
        <time>2025-05-27T11:15:50.000Z</time>
      </trkpt>
      <trkpt lat="49.65675" lon="5.47535">
        <ele>345.20001220703</ele>
        <time>2025-05-27T11:15:56.000Z</time>
      </trkpt>
      <trkpt lat="49.65672" lon="5.4753">
        <ele>345</ele>
        <time>2025-05-27T11:15:57.000Z</time>
      </trkpt>
      <trkpt lat="49.65649" lon="5.47492">
        <ele>343.20001220703</ele>
        <time>2025-05-27T11:16:04.000Z</time>
      </trkpt>
      <trkpt lat="49.65645" lon="5.47487">
        <ele>343</ele>
        <time>2025-05-27T11:16:05.000Z</time>
      </trkpt>
      <trkpt lat="49.65638" lon="5.47477">
        <ele>343.39999389648</ele>
        <time>2025-05-27T11:16:07.000Z</time>
      </trkpt>
      <trkpt lat="49.65614" lon="5.47446">
        <ele>347</ele>
        <time>2025-05-27T11:16:14.000Z</time>
      </trkpt>
      <trkpt lat="49.65604" lon="5.4744">
        <ele>348.39999389648</ele>
        <time>2025-05-27T11:16:17.000Z</time>
      </trkpt>
      <trkpt lat="49.656" lon="5.47442">
        <ele>348.79998779297</ele>
        <time>2025-05-27T11:16:18.000Z</time>
      </trkpt>
      <trkpt lat="49.65593" lon="5.47448">
        <ele>349.20001220703</ele>
        <time>2025-05-27T11:16:20.000Z</time>
      </trkpt>
      <trkpt lat="49.65586" lon="5.47455">
        <ele>349.60000610352</ele>
        <time>2025-05-27T11:16:22.000Z</time>
      </trkpt>
      <trkpt lat="49.6558" lon="5.47462">
        <ele>349.60000610352</ele>
        <time>2025-05-27T11:16:24.000Z</time>
      </trkpt>
      <trkpt lat="49.65572" lon="5.47473">
        <ele>349.60000610352</ele>
        <time>2025-05-27T11:16:27.000Z</time>
      </trkpt>
      <trkpt lat="49.65568" lon="5.47477">
        <ele>349.60000610352</ele>
        <time>2025-05-27T11:16:28.000Z</time>
      </trkpt>
      <trkpt lat="49.65564" lon="5.4748">
        <ele>349.60000610352</ele>
        <time>2025-05-27T11:16:29.000Z</time>
      </trkpt>
      <trkpt lat="49.65556" lon="5.47491">
        <ele>349.79998779297</ele>
        <time>2025-05-27T11:16:32.000Z</time>
      </trkpt>
      <trkpt lat="49.65553" lon="5.47497">
        <ele>349.60000610352</ele>
        <time>2025-05-27T11:16:34.000Z</time>
      </trkpt>
      <trkpt lat="49.65553" lon="5.47502">
        <ele>349.39999389648</ele>
        <time>2025-05-27T11:16:35.000Z</time>
      </trkpt>
      <trkpt lat="49.65554" lon="5.47507">
        <ele>349.39999389648</ele>
        <time>2025-05-27T11:16:36.000Z</time>
      </trkpt>
      <trkpt lat="49.65557" lon="5.47519">
        <ele>349</ele>
        <time>2025-05-27T11:16:38.000Z</time>
      </trkpt>
      <trkpt lat="49.65559" lon="5.47526">
        <ele>349</ele>
        <time>2025-05-27T11:16:39.000Z</time>
      </trkpt>
      <trkpt lat="49.65561" lon="5.47533">
        <ele>348.79998779297</ele>
        <time>2025-05-27T11:16:40.000Z</time>
      </trkpt>
      <trkpt lat="49.65564" lon="5.47539">
        <ele>348.39999389648</ele>
        <time>2025-05-27T11:16:41.000Z</time>
      </trkpt>
      <trkpt lat="49.65567" lon="5.47547">
        <ele>348.20001220703</ele>
        <time>2025-05-27T11:16:42.000Z</time>
      </trkpt>
      <trkpt lat="49.65574" lon="5.47561">
        <ele>348.20001220703</ele>
        <time>2025-05-27T11:16:44.000Z</time>
      </trkpt>
      <trkpt lat="49.6558" lon="5.47575">
        <ele>349.20001220703</ele>
        <time>2025-05-27T11:16:46.000Z</time>
      </trkpt>
      <trkpt lat="49.65585" lon="5.4759">
        <ele>349.20001220703</ele>
        <time>2025-05-27T11:16:48.000Z</time>
      </trkpt>
      <trkpt lat="49.65586" lon="5.47597">
        <ele>349.20001220703</ele>
        <time>2025-05-27T11:16:49.000Z</time>
      </trkpt>
      <trkpt lat="49.65588" lon="5.47611">
        <ele>349</ele>
        <time>2025-05-27T11:16:51.000Z</time>
      </trkpt>
      <trkpt lat="49.65599" lon="5.47654">
        <ele>349.39999389648</ele>
        <time>2025-05-27T11:16:57.000Z</time>
      </trkpt>
      <trkpt lat="49.65599" lon="5.47674">
        <ele>349.20001220703</ele>
        <time>2025-05-27T11:17:01.000Z</time>
      </trkpt>
      <trkpt lat="49.65599" lon="5.47682">
        <ele>349</ele>
        <time>2025-05-27T11:17:03.000Z</time>
      </trkpt>
      <trkpt lat="49.65599" lon="5.47685">
        <ele>349</ele>
        <time>2025-05-27T11:17:04.000Z</time>
      </trkpt>
      <trkpt lat="49.65598" lon="5.47689">
        <ele>349</ele>
        <time>2025-05-27T11:17:05.000Z</time>
      </trkpt>
      <trkpt lat="49.65594" lon="5.47701">
        <ele>349</ele>
        <time>2025-05-27T11:17:08.000Z</time>
      </trkpt>
      <trkpt lat="49.65589" lon="5.47711">
        <ele>349.60000610352</ele>
        <time>2025-05-27T11:17:11.000Z</time>
      </trkpt>
      <trkpt lat="49.6558" lon="5.47723">
        <ele>350.79998779297</ele>
        <time>2025-05-27T11:17:15.000Z</time>
      </trkpt>
      <trkpt lat="49.65578" lon="5.47726">
        <ele>351.20001220703</ele>
        <time>2025-05-27T11:17:16.000Z</time>
      </trkpt>
      <trkpt lat="49.65572" lon="5.47733">
        <ele>352</ele>
        <time>2025-05-27T11:17:18.000Z</time>
      </trkpt>
      <trkpt lat="49.65565" lon="5.47744">
        <ele>353.39999389648</ele>
        <time>2025-05-27T11:17:21.000Z</time>
      </trkpt>
      <trkpt lat="49.65562" lon="5.47752">
        <ele>353.79998779297</ele>
        <time>2025-05-27T11:17:23.000Z</time>
      </trkpt>
      <trkpt lat="49.65561" lon="5.47757">
        <ele>354</ele>
        <time>2025-05-27T11:17:24.000Z</time>
      </trkpt>
      <trkpt lat="49.65559" lon="5.47768">
        <ele>354</ele>
        <time>2025-05-27T11:17:27.000Z</time>
      </trkpt>
      <trkpt lat="49.65556" lon="5.47779">
        <ele>354.20001220703</ele>
        <time>2025-05-27T11:17:30.000Z</time>
      </trkpt>
      <trkpt lat="49.65553" lon="5.47787">
        <ele>354.39999389648</ele>
        <time>2025-05-27T11:17:33.000Z</time>
      </trkpt>
      <trkpt lat="49.65551" lon="5.47797">
        <ele>354.60000610352</ele>
        <time>2025-05-27T11:17:36.000Z</time>
      </trkpt>
      <trkpt lat="49.6555" lon="5.47804">
        <ele>354.79998779297</ele>
        <time>2025-05-27T11:17:38.000Z</time>
      </trkpt>
      <trkpt lat="49.65547" lon="5.47811">
        <ele>354.79998779297</ele>
        <time>2025-05-27T11:17:40.000Z</time>
      </trkpt>
      <trkpt lat="49.65545" lon="5.47821">
        <ele>355</ele>
        <time>2025-05-27T11:17:42.000Z</time>
      </trkpt>
      <trkpt lat="49.65543" lon="5.47834">
        <ele>354.79998779297</ele>
        <time>2025-05-27T11:17:45.000Z</time>
      </trkpt>
      <trkpt lat="49.65542" lon="5.47838">
        <ele>355</ele>
        <time>2025-05-27T11:17:46.000Z</time>
      </trkpt>
      <trkpt lat="49.65539" lon="5.47852">
        <ele>355.20001220703</ele>
        <time>2025-05-27T11:17:49.000Z</time>
      </trkpt>
      <trkpt lat="49.65534" lon="5.47877">
        <ele>355.79998779297</ele>
        <time>2025-05-27T11:17:53.000Z</time>
      </trkpt>
      <trkpt lat="49.65531" lon="5.47907">
        <ele>357.39999389648</ele>
        <time>2025-05-27T11:17:58.000Z</time>
      </trkpt>
      <trkpt lat="49.65529" lon="5.47918">
        <ele>358.20001220703</ele>
        <time>2025-05-27T11:18:00.000Z</time>
      </trkpt>
      <trkpt lat="49.65527" lon="5.47922">
        <ele>358.39999389648</ele>
        <time>2025-05-27T11:18:01.000Z</time>
      </trkpt>
      <trkpt lat="49.6552" lon="5.47926">
        <ele>358.60000610352</ele>
        <time>2025-05-27T11:18:03.000Z</time>
      </trkpt>
      <trkpt lat="49.65495" lon="5.47933">
        <ele>359.20001220703</ele>
        <time>2025-05-27T11:18:09.000Z</time>
      </trkpt>
      <trkpt lat="49.65477" lon="5.47939">
        <ele>360.79998779297</ele>
        <time>2025-05-27T11:18:14.000Z</time>
      </trkpt>
      <trkpt lat="49.65473" lon="5.47941">
        <ele>361.20001220703</ele>
        <time>2025-05-27T11:18:15.000Z</time>
      </trkpt>
      <trkpt lat="49.65455" lon="5.4795">
        <ele>362</ele>
        <time>2025-05-27T11:18:20.000Z</time>
      </trkpt>
      <trkpt lat="49.65451" lon="5.47953">
        <ele>362.20001220703</ele>
        <time>2025-05-27T11:18:21.000Z</time>
      </trkpt>
      <trkpt lat="49.6543" lon="5.47966">
        <ele>362.20001220703</ele>
        <time>2025-05-27T11:18:26.000Z</time>
      </trkpt>
      <trkpt lat="49.65407" lon="5.47982">
        <ele>360.39999389648</ele>
        <time>2025-05-27T11:18:32.000Z</time>
      </trkpt>
      <trkpt lat="49.65404" lon="5.47985">
        <ele>360.20001220703</ele>
        <time>2025-05-27T11:18:33.000Z</time>
      </trkpt>
      <trkpt lat="49.65394" lon="5.47998">
        <ele>360</ele>
        <time>2025-05-27T11:18:36.000Z</time>
      </trkpt>
      <trkpt lat="49.65391" lon="5.48003">
        <ele>359.79998779297</ele>
        <time>2025-05-27T11:18:37.000Z</time>
      </trkpt>
      <trkpt lat="49.65373" lon="5.48029">
        <ele>359.20001220703</ele>
        <time>2025-05-27T11:18:43.000Z</time>
      </trkpt>
      <trkpt lat="49.65351" lon="5.48062">
        <ele>358.79998779297</ele>
        <time>2025-05-27T11:18:50.000Z</time>
      </trkpt>
      <trkpt lat="49.65332" lon="5.48085">
        <ele>359</ele>
        <time>2025-05-27T11:18:56.000Z</time>
      </trkpt>
      <trkpt lat="49.65304" lon="5.48111">
        <ele>358.60000610352</ele>
        <time>2025-05-27T11:19:04.000Z</time>
      </trkpt>
      <trkpt lat="49.65283" lon="5.48138">
        <ele>360</ele>
        <time>2025-05-27T11:19:10.000Z</time>
      </trkpt>
      <trkpt lat="49.65257" lon="5.48172">
        <ele>361.60000610352</ele>
        <time>2025-05-27T11:19:17.000Z</time>
      </trkpt>
      <trkpt lat="49.65232" lon="5.48202">
        <ele>361.20001220703</ele>
        <time>2025-05-27T11:19:24.000Z</time>
      </trkpt>
      <trkpt lat="49.65212" lon="5.48229">
        <ele>360.20001220703</ele>
        <time>2025-05-27T11:19:30.000Z</time>
      </trkpt>
      <trkpt lat="49.65208" lon="5.48233">
        <ele>360.20001220703</ele>
        <time>2025-05-27T11:19:31.000Z</time>
      </trkpt>
      <trkpt lat="49.6519" lon="5.48257">
        <ele>358.79998779297</ele>
        <time>2025-05-27T11:19:35.000Z</time>
      </trkpt>
      <trkpt lat="49.65185" lon="5.48265">
        <ele>358.39999389648</ele>
        <time>2025-05-27T11:19:36.000Z</time>
      </trkpt>
      <trkpt lat="49.65181" lon="5.48273">
        <ele>358.39999389648</ele>
        <time>2025-05-27T11:19:37.000Z</time>
      </trkpt>
      <trkpt lat="49.65175" lon="5.48294">
        <ele>358.20001220703</ele>
        <time>2025-05-27T11:19:40.000Z</time>
      </trkpt>
      <trkpt lat="49.65169" lon="5.48309">
        <ele>358.39999389648</ele>
        <time>2025-05-27T11:19:43.000Z</time>
      </trkpt>
      <trkpt lat="49.65167" lon="5.4832">
        <ele>359.39999389648</ele>
        <time>2025-05-27T11:19:45.000Z</time>
      </trkpt>
      <trkpt lat="49.65166" lon="5.48325">
        <ele>360</ele>
        <time>2025-05-27T11:19:46.000Z</time>
      </trkpt>
      <trkpt lat="49.65158" lon="5.48353">
        <ele>361.20001220703</ele>
        <time>2025-05-27T11:19:51.000Z</time>
      </trkpt>
      <trkpt lat="49.65147" lon="5.48388">
        <ele>363.79998779297</ele>
        <time>2025-05-27T11:19:57.000Z</time>
      </trkpt>
      <trkpt lat="49.65142" lon="5.484">
        <ele>364</ele>
        <time>2025-05-27T11:19:59.000Z</time>
      </trkpt>
      <trkpt lat="49.65131" lon="5.48425">
        <ele>363.79998779297</ele>
        <time>2025-05-27T11:20:03.000Z</time>
      </trkpt>
      <trkpt lat="49.65112" lon="5.4847">
        <ele>363.79998779297</ele>
        <time>2025-05-27T11:20:10.000Z</time>
      </trkpt>
      <trkpt lat="49.65098" lon="5.48506">
        <ele>364.79998779297</ele>
        <time>2025-05-27T11:20:16.000Z</time>
      </trkpt>
      <trkpt lat="49.65078" lon="5.48557">
        <ele>365</ele>
        <time>2025-05-27T11:20:23.000Z</time>
      </trkpt>
      <trkpt lat="49.65068" lon="5.48586">
        <ele>365.20001220703</ele>
        <time>2025-05-27T11:20:27.000Z</time>
      </trkpt>
      <trkpt lat="49.65058" lon="5.48616">
        <ele>363.39999389648</ele>
        <time>2025-05-27T11:20:31.000Z</time>
      </trkpt>
      <trkpt lat="49.65044" lon="5.48654">
        <ele>360.20001220703</ele>
        <time>2025-05-27T11:20:36.000Z</time>
      </trkpt>
      <trkpt lat="49.65039" lon="5.48669">
        <ele>359.20001220703</ele>
        <time>2025-05-27T11:20:38.000Z</time>
      </trkpt>
      <trkpt lat="49.65019" lon="5.4871">
        <ele>356.79998779297</ele>
        <time>2025-05-27T11:20:44.000Z</time>
      </trkpt>
      <trkpt lat="49.64997" lon="5.48733">
        <ele>355.79998779297</ele>
        <time>2025-05-27T11:20:50.000Z</time>
      </trkpt>
      <trkpt lat="49.64987" lon="5.48744">
        <ele>355.60000610352</ele>
        <time>2025-05-27T11:20:53.000Z</time>
      </trkpt>
      <trkpt lat="49.64977" lon="5.48757">
        <ele>355.39999389648</ele>
        <time>2025-05-27T11:20:56.000Z</time>
      </trkpt>
      <trkpt lat="49.64971" lon="5.48764">
        <ele>355.79998779297</ele>
        <time>2025-05-27T11:20:58.000Z</time>
      </trkpt>
      <trkpt lat="49.64964" lon="5.48771">
        <ele>356.20001220703</ele>
        <time>2025-05-27T11:21:00.000Z</time>
      </trkpt>
      <trkpt lat="49.64942" lon="5.48798">
        <ele>357.20001220703</ele>
        <time>2025-05-27T11:21:06.000Z</time>
      </trkpt>
      <trkpt lat="49.64926" lon="5.48818">
        <ele>358</ele>
        <time>2025-05-27T11:21:11.000Z</time>
      </trkpt>
      <trkpt lat="49.64906" lon="5.48839">
        <ele>356.60000610352</ele>
        <time>2025-05-27T11:21:16.000Z</time>
      </trkpt>
      <trkpt lat="49.64891" lon="5.48854">
        <ele>356.60000610352</ele>
        <time>2025-05-27T11:21:21.000Z</time>
      </trkpt>
      <trkpt lat="49.64885" lon="5.48855">
        <ele>357</ele>
        <time>2025-05-27T11:21:52.000Z</time>
      </trkpt>
      <trkpt lat="49.64877" lon="5.48843">
        <ele>358.39999389648</ele>
        <time>2025-05-27T11:21:56.000Z</time>
      </trkpt>
      <trkpt lat="49.64875" lon="5.4884">
        <ele>358.79998779297</ele>
        <time>2025-05-27T11:21:57.000Z</time>
      </trkpt>
      <trkpt lat="49.64871" lon="5.48832">
        <ele>359.60000610352</ele>
        <time>2025-05-27T11:21:59.000Z</time>
      </trkpt>
      <trkpt lat="49.64864" lon="5.48821">
        <ele>360.39999389648</ele>
        <time>2025-05-27T11:22:01.000Z</time>
      </trkpt>
      <trkpt lat="49.64849" lon="5.48796">
        <ele>360.60000610352</ele>
        <time>2025-05-27T11:22:06.000Z</time>
      </trkpt>
      <trkpt lat="49.64827" lon="5.48767">
        <ele>359.20001220703</ele>
        <time>2025-05-27T11:22:12.000Z</time>
      </trkpt>
      <trkpt lat="49.64815" lon="5.48754">
        <ele>358.39999389648</ele>
        <time>2025-05-27T11:22:15.000Z</time>
      </trkpt>
      <trkpt lat="49.6481" lon="5.48749">
        <ele>358</ele>
        <time>2025-05-27T11:22:16.000Z</time>
      </trkpt>
      <trkpt lat="49.64806" lon="5.48745">
        <ele>357.39999389648</ele>
        <time>2025-05-27T11:22:17.000Z</time>
      </trkpt>
      <trkpt lat="49.64801" lon="5.4874">
        <ele>356.79998779297</ele>
        <time>2025-05-27T11:22:18.000Z</time>
      </trkpt>
      <trkpt lat="49.64777" lon="5.48711">
        <ele>353.20001220703</ele>
        <time>2025-05-27T11:22:24.000Z</time>
      </trkpt>
      <trkpt lat="49.6477" lon="5.48701">
        <ele>352.39999389648</ele>
        <time>2025-05-27T11:22:26.000Z</time>
      </trkpt>
      <trkpt lat="49.64763" lon="5.48692">
        <ele>351.60000610352</ele>
        <time>2025-05-27T11:22:28.000Z</time>
      </trkpt>
      <trkpt lat="49.64755" lon="5.48675">
        <ele>351</ele>
        <time>2025-05-27T11:22:31.000Z</time>
      </trkpt>
      <trkpt lat="49.64753" lon="5.48671">
        <ele>351</ele>
        <time>2025-05-27T11:22:32.000Z</time>
      </trkpt>
      <trkpt lat="49.6475" lon="5.48667">
        <ele>351</ele>
        <time>2025-05-27T11:22:33.000Z</time>
      </trkpt>
      <trkpt lat="49.6474" lon="5.48657">
        <ele>350.60000610352</ele>
        <time>2025-05-27T11:22:45.000Z</time>
      </trkpt>
      <trkpt lat="49.64741" lon="5.48659">
        <ele>350.79998779297</ele>
        <time>2025-05-27T11:22:46.000Z</time>
      </trkpt>
      <trkpt lat="49.64749" lon="5.48675">
        <ele>351</ele>
        <time>2025-05-27T11:22:54.000Z</time>
      </trkpt>
      <trkpt lat="49.64752" lon="5.48682">
        <ele>351</ele>
        <time>2025-05-27T11:23:10.000Z</time>
      </trkpt>
      <trkpt lat="49.64748" lon="5.48677">
        <ele>351</ele>
        <time>2025-05-27T11:23:12.000Z</time>
      </trkpt>
      <trkpt lat="49.64734" lon="5.48673">
        <ele>351</ele>
        <time>2025-05-27T11:23:18.000Z</time>
      </trkpt>
      <trkpt lat="49.64719" lon="5.48669">
        <ele>351</ele>
        <time>2025-05-27T11:23:23.000Z</time>
      </trkpt>
      <trkpt lat="49.6471" lon="5.48674">
        <ele>351</ele>
        <time>2025-05-27T11:23:27.000Z</time>
      </trkpt>
      <trkpt lat="49.64692" lon="5.48678">
        <ele>351.20001220703</ele>
        <time>2025-05-27T11:23:33.000Z</time>
      </trkpt>
      <trkpt lat="49.64672" lon="5.48677">
        <ele>350.79998779297</ele>
        <time>2025-05-27T11:23:39.000Z</time>
      </trkpt>
      <trkpt lat="49.64656" lon="5.48676">
        <ele>351.20001220703</ele>
        <time>2025-05-27T11:23:44.000Z</time>
      </trkpt>
      <trkpt lat="49.64641" lon="5.48667">
        <ele>351</ele>
        <time>2025-05-27T11:23:49.000Z</time>
      </trkpt>
      <trkpt lat="49.64638" lon="5.48665">
        <ele>351</ele>
        <time>2025-05-27T11:23:50.000Z</time>
      </trkpt>
      <trkpt lat="49.64631" lon="5.48656">
        <ele>351</ele>
        <time>2025-05-27T11:23:53.000Z</time>
      </trkpt>
      <trkpt lat="49.64627" lon="5.4865">
        <ele>351</ele>
        <time>2025-05-27T11:23:55.000Z</time>
      </trkpt>
      <trkpt lat="49.64619" lon="5.48646">
        <ele>351</ele>
        <time>2025-05-27T11:23:57.000Z</time>
      </trkpt>
      <trkpt lat="49.64615" lon="5.48644">
        <ele>351</ele>
        <time>2025-05-27T11:23:58.000Z</time>
      </trkpt>
      <trkpt lat="49.64612" lon="5.48643">
        <ele>351</ele>
        <time>2025-05-27T11:23:59.000Z</time>
      </trkpt>
      <trkpt lat="49.64603" lon="5.48642">
        <ele>351</ele>
        <time>2025-05-27T11:24:02.000Z</time>
      </trkpt>
      <trkpt lat="49.64588" lon="5.48642">
        <ele>351</ele>
        <time>2025-05-27T11:24:08.000Z</time>
      </trkpt>
      <trkpt lat="49.6457" lon="5.48641">
        <ele>350.20001220703</ele>
        <time>2025-05-27T11:24:14.000Z</time>
      </trkpt>
      <trkpt lat="49.64555" lon="5.48647">
        <ele>349.60000610352</ele>
        <time>2025-05-27T11:24:37.000Z</time>
      </trkpt>
      <trkpt lat="49.64552" lon="5.48654">
        <ele>349.39999389648</ele>
        <time>2025-05-27T11:24:40.000Z</time>
      </trkpt>
      <trkpt lat="49.64551" lon="5.48657">
        <ele>349.39999389648</ele>
        <time>2025-05-27T11:24:41.000Z</time>
      </trkpt>
      <trkpt lat="49.64544" lon="5.48669">
        <ele>348.79998779297</ele>
        <time>2025-05-27T11:24:45.000Z</time>
      </trkpt>
      <trkpt lat="49.64541" lon="5.48686">
        <ele>349.39999389648</ele>
        <time>2025-05-27T11:24:50.000Z</time>
      </trkpt>
      <trkpt lat="49.64536" lon="5.487">
        <ele>350.20001220703</ele>
        <time>2025-05-27T11:24:54.000Z</time>
      </trkpt>
      <trkpt lat="49.64533" lon="5.48702">
        <ele>350.60000610352</ele>
        <time>2025-05-27T11:24:55.000Z</time>
      </trkpt>
      <trkpt lat="49.64525" lon="5.4871">
        <ele>349.39999389648</ele>
        <time>2025-05-27T11:24:58.000Z</time>
      </trkpt>
      <trkpt lat="49.64522" lon="5.48714">
        <ele>349.20001220703</ele>
        <time>2025-05-27T11:24:59.000Z</time>
      </trkpt>
      <trkpt lat="49.64515" lon="5.48728">
        <ele>348.39999389648</ele>
        <time>2025-05-27T11:25:02.000Z</time>
      </trkpt>
      <trkpt lat="49.64512" lon="5.48731">
        <ele>348.20001220703</ele>
        <time>2025-05-27T11:25:03.000Z</time>
      </trkpt>
      <trkpt lat="49.64508" lon="5.48738">
        <ele>348.79998779297</ele>
        <time>2025-05-27T11:25:05.000Z</time>
      </trkpt>
      <trkpt lat="49.64507" lon="5.4874">
        <ele>349</ele>
        <time>2025-05-27T11:25:06.000Z</time>
      </trkpt>
      <trkpt lat="49.64504" lon="5.48745">
        <ele>349.39999389648</ele>
        <time>2025-05-27T11:25:07.000Z</time>
      </trkpt>
      <trkpt lat="49.64497" lon="5.48754">
        <ele>347.79998779297</ele>
        <time>2025-05-27T11:25:09.000Z</time>
      </trkpt>
      <trkpt lat="49.64493" lon="5.48758">
        <ele>346.79998779297</ele>
        <time>2025-05-27T11:25:10.000Z</time>
      </trkpt>
      <trkpt lat="49.64488" lon="5.48764">
        <ele>345.60000610352</ele>
        <time>2025-05-27T11:25:12.000Z</time>
      </trkpt>
      <trkpt lat="49.64483" lon="5.48767">
        <ele>345.20001220703</ele>
        <time>2025-05-27T11:25:14.000Z</time>
      </trkpt>
      <trkpt lat="49.64474" lon="5.48774">
        <ele>345</ele>
        <time>2025-05-27T11:25:17.000Z</time>
      </trkpt>
      <trkpt lat="49.6447" lon="5.48781">
        <ele>345.20001220703</ele>
        <time>2025-05-27T11:25:19.000Z</time>
      </trkpt>
      <trkpt lat="49.64467" lon="5.48784">
        <ele>345</ele>
        <time>2025-05-27T11:25:20.000Z</time>
      </trkpt>
      <trkpt lat="49.64461" lon="5.48789">
        <ele>344.60000610352</ele>
        <time>2025-05-27T11:25:22.000Z</time>
      </trkpt>
      <trkpt lat="49.64458" lon="5.48792">
        <ele>345</ele>
        <time>2025-05-27T11:25:23.000Z</time>
      </trkpt>
      <trkpt lat="49.64452" lon="5.48798">
        <ele>347</ele>
        <time>2025-05-27T11:25:25.000Z</time>
      </trkpt>
      <trkpt lat="49.64443" lon="5.48809">
        <ele>349</ele>
        <time>2025-05-27T11:25:28.000Z</time>
      </trkpt>
      <trkpt lat="49.64429" lon="5.48823">
        <ele>350.20001220703</ele>
        <time>2025-05-27T11:25:32.000Z</time>
      </trkpt>
      <trkpt lat="49.64426" lon="5.48826">
        <ele>350.79998779297</ele>
        <time>2025-05-27T11:25:33.000Z</time>
      </trkpt>
      <trkpt lat="49.64405" lon="5.48839">
        <ele>351.20001220703</ele>
        <time>2025-05-27T11:25:38.000Z</time>
      </trkpt>
      <trkpt lat="49.64373" lon="5.48848">
        <ele>348</ele>
        <time>2025-05-27T11:25:45.000Z</time>
      </trkpt>
      <trkpt lat="49.64352" lon="5.48855">
        <ele>345.79998779297</ele>
        <time>2025-05-27T11:25:50.000Z</time>
      </trkpt>
      <trkpt lat="49.64348" lon="5.48855">
        <ele>345.20001220703</ele>
        <time>2025-05-27T11:25:51.000Z</time>
      </trkpt>
      <trkpt lat="49.6433" lon="5.48856">
        <ele>343.39999389648</ele>
        <time>2025-05-27T11:25:55.000Z</time>
      </trkpt>
      <trkpt lat="49.6432" lon="5.48857">
        <ele>343</ele>
        <time>2025-05-27T11:25:57.000Z</time>
      </trkpt>
      <trkpt lat="49.64315" lon="5.48858">
        <ele>343</ele>
        <time>2025-05-27T11:25:58.000Z</time>
      </trkpt>
      <trkpt lat="49.64305" lon="5.48861">
        <ele>343</ele>
        <time>2025-05-27T11:26:00.000Z</time>
      </trkpt>
      <trkpt lat="49.64294" lon="5.48865">
        <ele>343</ele>
        <time>2025-05-27T11:26:02.000Z</time>
      </trkpt>
      <trkpt lat="49.64285" lon="5.48869">
        <ele>343</ele>
        <time>2025-05-27T11:26:04.000Z</time>
      </trkpt>
      <trkpt lat="49.64269" lon="5.48873">
        <ele>344</ele>
        <time>2025-05-27T11:26:07.000Z</time>
      </trkpt>
      <trkpt lat="49.6424" lon="5.48878">
        <ele>347</ele>
        <time>2025-05-27T11:26:13.000Z</time>
      </trkpt>
      <trkpt lat="49.64225" lon="5.48882">
        <ele>348.79998779297</ele>
        <time>2025-05-27T11:26:17.000Z</time>
      </trkpt>
      <trkpt lat="49.64207" lon="5.48886">
        <ele>351</ele>
        <time>2025-05-27T11:26:21.000Z</time>
      </trkpt>
      <trkpt lat="49.64202" lon="5.48888">
        <ele>351.60000610352</ele>
        <time>2025-05-27T11:26:22.000Z</time>
      </trkpt>
      <trkpt lat="49.64197" lon="5.4889">
        <ele>352</ele>
        <time>2025-05-27T11:26:23.000Z</time>
      </trkpt>
      <trkpt lat="49.64177" lon="5.48899">
        <ele>350.79998779297</ele>
        <time>2025-05-27T11:26:27.000Z</time>
      </trkpt>
      <trkpt lat="49.64172" lon="5.48901">
        <ele>350.60000610352</ele>
        <time>2025-05-27T11:26:28.000Z</time>
      </trkpt>
      <trkpt lat="49.64161" lon="5.48903">
        <ele>349.79998779297</ele>
        <time>2025-05-27T11:26:30.000Z</time>
      </trkpt>
      <trkpt lat="49.64121" lon="5.48914">
        <ele>346.60000610352</ele>
        <time>2025-05-27T11:26:38.000Z</time>
      </trkpt>
      <trkpt lat="49.64115" lon="5.48914">
        <ele>346</ele>
        <time>2025-05-27T11:26:39.000Z</time>
      </trkpt>
      <trkpt lat="49.64101" lon="5.48906">
        <ele>345.39999389648</ele>
        <time>2025-05-27T11:26:42.000Z</time>
      </trkpt>
      <trkpt lat="49.64097" lon="5.48901">
        <ele>345.20001220703</ele>
        <time>2025-05-27T11:26:43.000Z</time>
      </trkpt>
      <trkpt lat="49.64089" lon="5.48892">
        <ele>345</ele>
        <time>2025-05-27T11:26:45.000Z</time>
      </trkpt>
      <trkpt lat="49.6408" lon="5.48891">
        <ele>345.20001220703</ele>
        <time>2025-05-27T11:26:47.000Z</time>
      </trkpt>
      <trkpt lat="49.64062" lon="5.48895">
        <ele>345.79998779297</ele>
        <time>2025-05-27T11:26:51.000Z</time>
      </trkpt>
      <trkpt lat="49.64053" lon="5.48896">
        <ele>346.20001220703</ele>
        <time>2025-05-27T11:26:53.000Z</time>
      </trkpt>
      <trkpt lat="49.64038" lon="5.48896">
        <ele>346.79998779297</ele>
        <time>2025-05-27T11:26:56.000Z</time>
      </trkpt>
      <trkpt lat="49.64028" lon="5.48895">
        <ele>347</ele>
        <time>2025-05-27T11:26:58.000Z</time>
      </trkpt>
      <trkpt lat="49.64023" lon="5.48895">
        <ele>347</ele>
        <time>2025-05-27T11:26:59.000Z</time>
      </trkpt>
      <trkpt lat="49.63992" lon="5.48896">
        <ele>347.39999389648</ele>
        <time>2025-05-27T11:27:05.000Z</time>
      </trkpt>
      <trkpt lat="49.63989" lon="5.48898">
        <ele>347.60000610352</ele>
        <time>2025-05-27T11:27:06.000Z</time>
      </trkpt>
      <trkpt lat="49.63982" lon="5.48905">
        <ele>347.39999389648</ele>
        <time>2025-05-27T11:27:08.000Z</time>
      </trkpt>
      <trkpt lat="49.63974" lon="5.48916">
        <ele>347</ele>
        <time>2025-05-27T11:27:11.000Z</time>
      </trkpt>
      <trkpt lat="49.63972" lon="5.48919">
        <ele>347</ele>
        <time>2025-05-27T11:27:12.000Z</time>
      </trkpt>
      <trkpt lat="49.63967" lon="5.48929">
        <ele>346.39999389648</ele>
        <time>2025-05-27T11:27:15.000Z</time>
      </trkpt>
      <trkpt lat="49.63966" lon="5.48935">
        <ele>346</ele>
        <time>2025-05-27T11:27:16.000Z</time>
      </trkpt>
      <trkpt lat="49.63957" lon="5.48955">
        <ele>344.79998779297</ele>
        <time>2025-05-27T11:27:20.000Z</time>
      </trkpt>
      <trkpt lat="49.63951" lon="5.48963">
        <ele>344.60000610352</ele>
        <time>2025-05-27T11:27:22.000Z</time>
      </trkpt>
      <trkpt lat="49.63943" lon="5.48968">
        <ele>344.60000610352</ele>
        <time>2025-05-27T11:27:24.000Z</time>
      </trkpt>
      <trkpt lat="49.6393" lon="5.48985">
        <ele>344</ele>
        <time>2025-05-27T11:27:28.000Z</time>
      </trkpt>
      <trkpt lat="49.63926" lon="5.48989">
        <ele>344.20001220703</ele>
        <time>2025-05-27T11:27:29.000Z</time>
      </trkpt>
      <trkpt lat="49.63904" lon="5.49026">
        <ele>343.39999389648</ele>
        <time>2025-05-27T11:27:35.000Z</time>
      </trkpt>
      <trkpt lat="49.639" lon="5.49031">
        <ele>343.60000610352</ele>
        <time>2025-05-27T11:27:36.000Z</time>
      </trkpt>
      <trkpt lat="49.63893" lon="5.4904">
        <ele>343.60000610352</ele>
        <time>2025-05-27T11:27:38.000Z</time>
      </trkpt>
      <trkpt lat="49.63887" lon="5.49051">
        <ele>342.79998779297</ele>
        <time>2025-05-27T11:27:40.000Z</time>
      </trkpt>
      <trkpt lat="49.63871" lon="5.49081">
        <ele>342.39999389648</ele>
        <time>2025-05-27T11:27:46.000Z</time>
      </trkpt>
      <trkpt lat="49.63865" lon="5.49094">
        <ele>342.60000610352</ele>
        <time>2025-05-27T11:27:50.000Z</time>
      </trkpt>
      <trkpt lat="49.63853" lon="5.49114">
        <ele>343.39999389648</ele>
        <time>2025-05-27T11:28:05.000Z</time>
      </trkpt>
      <trkpt lat="49.63848" lon="5.49128">
        <ele>343.79998779297</ele>
        <time>2025-05-27T11:28:08.000Z</time>
      </trkpt>
      <trkpt lat="49.63835" lon="5.49154">
        <ele>345</ele>
        <time>2025-05-27T11:28:13.000Z</time>
      </trkpt>
      <trkpt lat="49.63831" lon="5.49158">
        <ele>345.20001220703</ele>
        <time>2025-05-27T11:28:14.000Z</time>
      </trkpt>
      <trkpt lat="49.63812" lon="5.49175">
        <ele>345.39999389648</ele>
        <time>2025-05-27T11:28:18.000Z</time>
      </trkpt>
      <trkpt lat="49.63789" lon="5.49186">
        <ele>344.20001220703</ele>
        <time>2025-05-27T11:28:23.000Z</time>
      </trkpt>
      <trkpt lat="49.6378" lon="5.49188">
        <ele>344.20001220703</ele>
        <time>2025-05-27T11:28:25.000Z</time>
      </trkpt>
      <trkpt lat="49.63767" lon="5.49195">
        <ele>343.39999389648</ele>
        <time>2025-05-27T11:28:28.000Z</time>
      </trkpt>
      <trkpt lat="49.63756" lon="5.49202">
        <ele>342.60000610352</ele>
        <time>2025-05-27T11:28:31.000Z</time>
      </trkpt>
      <trkpt lat="49.63744" lon="5.49211">
        <ele>342.79998779297</ele>
        <time>2025-05-27T11:28:34.000Z</time>
      </trkpt>
      <trkpt lat="49.63732" lon="5.49223">
        <ele>342.79998779297</ele>
        <time>2025-05-27T11:28:37.000Z</time>
      </trkpt>
      <trkpt lat="49.63723" lon="5.4923">
        <ele>342.20001220703</ele>
        <time>2025-05-27T11:28:39.000Z</time>
      </trkpt>
      <trkpt lat="49.63693" lon="5.49253">
        <ele>338.39999389648</ele>
        <time>2025-05-27T11:28:46.000Z</time>
      </trkpt>
      <trkpt lat="49.63689" lon="5.49256">
        <ele>337.79998779297</ele>
        <time>2025-05-27T11:28:47.000Z</time>
      </trkpt>
      <trkpt lat="49.6367" lon="5.49268">
        <ele>337</ele>
        <time>2025-05-27T11:28:51.000Z</time>
      </trkpt>
      <trkpt lat="49.63665" lon="5.49273">
        <ele>337.20001220703</ele>
        <time>2025-05-27T11:28:52.000Z</time>
      </trkpt>
      <trkpt lat="49.63654" lon="5.49291">
        <ele>338.60000610352</ele>
        <time>2025-05-27T11:28:55.000Z</time>
      </trkpt>
      <trkpt lat="49.63649" lon="5.49305">
        <ele>338.79998779297</ele>
        <time>2025-05-27T11:28:57.000Z</time>
      </trkpt>
      <trkpt lat="49.63647" lon="5.49313">
        <ele>338.79998779297</ele>
        <time>2025-05-27T11:28:58.000Z</time>
      </trkpt>
      <trkpt lat="49.63643" lon="5.49328">
        <ele>339</ele>
        <time>2025-05-27T11:29:00.000Z</time>
      </trkpt>
      <trkpt lat="49.6364" lon="5.49342">
        <ele>338.60000610352</ele>
        <time>2025-05-27T11:29:02.000Z</time>
      </trkpt>
      <trkpt lat="49.63638" lon="5.49349">
        <ele>338.39999389648</ele>
        <time>2025-05-27T11:29:03.000Z</time>
      </trkpt>
      <trkpt lat="49.6363" lon="5.49369">
        <ele>338</ele>
        <time>2025-05-27T11:29:06.000Z</time>
      </trkpt>
      <trkpt lat="49.63626" lon="5.49385">
        <ele>338</ele>
        <time>2025-05-27T11:29:08.000Z</time>
      </trkpt>
      <trkpt lat="49.63624" lon="5.49404">
        <ele>337.39999389648</ele>
        <time>2025-05-27T11:29:10.000Z</time>
      </trkpt>
      <trkpt lat="49.63623" lon="5.49432">
        <ele>336.20001220703</ele>
        <time>2025-05-27T11:29:13.000Z</time>
      </trkpt>
      <trkpt lat="49.63625" lon="5.4945">
        <ele>335.20001220703</ele>
        <time>2025-05-27T11:29:15.000Z</time>
      </trkpt>
      <trkpt lat="49.63625" lon="5.49458">
        <ele>334.79998779297</ele>
        <time>2025-05-27T11:29:16.000Z</time>
      </trkpt>
      <trkpt lat="49.63629" lon="5.49484">
        <ele>334</ele>
        <time>2025-05-27T11:29:19.000Z</time>
      </trkpt>
      <trkpt lat="49.63634" lon="5.49502">
        <ele>333.60000610352</ele>
        <time>2025-05-27T11:29:21.000Z</time>
      </trkpt>
      <trkpt lat="49.63644" lon="5.49517">
        <ele>333.79998779297</ele>
        <time>2025-05-27T11:29:23.000Z</time>
      </trkpt>
      <trkpt lat="49.63649" lon="5.49523">
        <ele>333.60000610352</ele>
        <time>2025-05-27T11:29:24.000Z</time>
      </trkpt>
      <trkpt lat="49.63653" lon="5.49527">
        <ele>333.39999389648</ele>
        <time>2025-05-27T11:29:25.000Z</time>
      </trkpt>
      <trkpt lat="49.63655" lon="5.4953">
        <ele>333.20001220703</ele>
        <time>2025-05-27T11:29:26.000Z</time>
      </trkpt>
      <trkpt lat="49.63658" lon="5.49533">
        <ele>333</ele>
        <time>2025-05-27T11:29:27.000Z</time>
      </trkpt>
      <trkpt lat="49.63664" lon="5.49538">
        <ele>332.60000610352</ele>
        <time>2025-05-27T11:29:30.000Z</time>
      </trkpt>
      <trkpt lat="49.63666" lon="5.4954">
        <ele>332.60000610352</ele>
        <time>2025-05-27T11:29:31.000Z</time>
      </trkpt>
      <trkpt lat="49.63677" lon="5.49549">
        <ele>332</ele>
        <time>2025-05-27T11:29:35.000Z</time>
      </trkpt>
      <trkpt lat="49.63681" lon="5.49555">
        <ele>331.39999389648</ele>
        <time>2025-05-27T11:29:36.000Z</time>
      </trkpt>
      <trkpt lat="49.63694" lon="5.49589">
        <ele>329.39999389648</ele>
        <time>2025-05-27T11:29:42.000Z</time>
      </trkpt>
      <trkpt lat="49.637" lon="5.49616">
        <ele>329.39999389648</ele>
        <time>2025-05-27T11:29:47.000Z</time>
      </trkpt>
      <trkpt lat="49.637" lon="5.49619">
        <ele>329.20001220703</ele>
        <time>2025-05-27T11:29:48.000Z</time>
      </trkpt>
      <trkpt lat="49.63698" lon="5.49627">
        <ele>329</ele>
        <time>2025-05-27T11:29:50.000Z</time>
      </trkpt>
      <trkpt lat="49.63697" lon="5.49636">
        <ele>328.79998779297</ele>
        <time>2025-05-27T11:29:52.000Z</time>
      </trkpt>
      <trkpt lat="49.63697" lon="5.49641">
        <ele>328.79998779297</ele>
        <time>2025-05-27T11:29:53.000Z</time>
      </trkpt>
      <trkpt lat="49.63699" lon="5.49651">
        <ele>329.39999389648</ele>
        <time>2025-05-27T11:29:55.000Z</time>
      </trkpt>
      <trkpt lat="49.63704" lon="5.49666">
        <ele>331</ele>
        <time>2025-05-27T11:29:58.000Z</time>
      </trkpt>
      <trkpt lat="49.6372" lon="5.49685">
        <ele>333.39999389648</ele>
        <time>2025-05-27T11:30:04.000Z</time>
      </trkpt>
      <trkpt lat="49.63736" lon="5.49688">
        <ele>335.39999389648</ele>
        <time>2025-05-27T11:30:09.000Z</time>
      </trkpt>
      <trkpt lat="49.6374" lon="5.49688">
        <ele>335.79998779297</ele>
        <time>2025-05-27T11:30:10.000Z</time>
      </trkpt>
      <trkpt lat="49.63751" lon="5.49685">
        <ele>337</ele>
        <time>2025-05-27T11:30:13.000Z</time>
      </trkpt>
      <trkpt lat="49.63757" lon="5.49682">
        <ele>337.39999389648</ele>
        <time>2025-05-27T11:30:15.000Z</time>
      </trkpt>
      <trkpt lat="49.63774" lon="5.49674">
        <ele>338.20001220703</ele>
        <time>2025-05-27T11:30:20.000Z</time>
      </trkpt>
      <trkpt lat="49.63788" lon="5.4968">
        <ele>338.20001220703</ele>
        <time>2025-05-27T11:30:24.000Z</time>
      </trkpt>
      <trkpt lat="49.63805" lon="5.497">
        <ele>337.39999389648</ele>
        <time>2025-05-27T11:30:29.000Z</time>
      </trkpt>
      <trkpt lat="49.63817" lon="5.49725">
        <ele>336.60000610352</ele>
        <time>2025-05-27T11:30:34.000Z</time>
      </trkpt>
      <trkpt lat="49.63823" lon="5.4974">
        <ele>336.60000610352</ele>
        <time>2025-05-27T11:30:37.000Z</time>
      </trkpt>
      <trkpt lat="49.6383" lon="5.49753">
        <ele>336.60000610352</ele>
        <time>2025-05-27T11:30:40.000Z</time>
      </trkpt>
      <trkpt lat="49.63844" lon="5.49778">
        <ele>336.79998779297</ele>
        <time>2025-05-27T11:30:45.000Z</time>
      </trkpt>
      <trkpt lat="49.63851" lon="5.49787">
        <ele>337.20001220703</ele>
        <time>2025-05-27T11:30:47.000Z</time>
      </trkpt>
      <trkpt lat="49.63867" lon="5.4981">
        <ele>338</ele>
        <time>2025-05-27T11:30:52.000Z</time>
      </trkpt>
      <trkpt lat="49.63869" lon="5.49815">
        <ele>338.20001220703</ele>
        <time>2025-05-27T11:30:53.000Z</time>
      </trkpt>
      <trkpt lat="49.63881" lon="5.49842">
        <ele>338.39999389648</ele>
        <time>2025-05-27T11:30:58.000Z</time>
      </trkpt>
      <trkpt lat="49.63892" lon="5.49868">
        <ele>339</ele>
        <time>2025-05-27T11:31:03.000Z</time>
      </trkpt>
      <trkpt lat="49.63908" lon="5.49905">
        <ele>339.60000610352</ele>
        <time>2025-05-27T11:31:09.000Z</time>
      </trkpt>
      <trkpt lat="49.63912" lon="5.4991">
        <ele>339.60000610352</ele>
        <time>2025-05-27T11:31:10.000Z</time>
      </trkpt>
      <trkpt lat="49.63923" lon="5.49922">
        <ele>339.79998779297</ele>
        <time>2025-05-27T11:31:13.000Z</time>
      </trkpt>
      <trkpt lat="49.63927" lon="5.49922">
        <ele>339.60000610352</ele>
        <time>2025-05-27T11:31:14.000Z</time>
      </trkpt>
      <trkpt lat="49.63931" lon="5.49921">
        <ele>339.39999389648</ele>
        <time>2025-05-27T11:31:15.000Z</time>
      </trkpt>
      <trkpt lat="49.63948" lon="5.49921">
        <ele>338.79998779297</ele>
        <time>2025-05-27T11:31:19.000Z</time>
      </trkpt>
      <trkpt lat="49.63952" lon="5.4992">
        <ele>338.39999389648</ele>
        <time>2025-05-27T11:31:20.000Z</time>
      </trkpt>
      <trkpt lat="49.63961" lon="5.49917">
        <ele>338.60000610352</ele>
        <time>2025-05-27T11:31:22.000Z</time>
      </trkpt>
      <trkpt lat="49.63974" lon="5.49908">
        <ele>339</ele>
        <time>2025-05-27T11:31:25.000Z</time>
      </trkpt>
      <trkpt lat="49.6398" lon="5.49905">
        <ele>338.60000610352</ele>
        <time>2025-05-27T11:31:26.000Z</time>
      </trkpt>
      <trkpt lat="49.63985" lon="5.499">
        <ele>338.20001220703</ele>
        <time>2025-05-27T11:31:27.000Z</time>
      </trkpt>
      <trkpt lat="49.6399" lon="5.49894">
        <ele>338</ele>
        <time>2025-05-27T11:31:28.000Z</time>
      </trkpt>
      <trkpt lat="49.63995" lon="5.49887">
        <ele>337.60000610352</ele>
        <time>2025-05-27T11:31:29.000Z</time>
      </trkpt>
      <trkpt lat="49.64" lon="5.4988">
        <ele>337.60000610352</ele>
        <time>2025-05-27T11:31:30.000Z</time>
      </trkpt>
      <trkpt lat="49.64005" lon="5.49871">
        <ele>337.79998779297</ele>
        <time>2025-05-27T11:31:31.000Z</time>
      </trkpt>
      <trkpt lat="49.6401" lon="5.49861">
        <ele>337.20001220703</ele>
        <time>2025-05-27T11:31:32.000Z</time>
      </trkpt>
      <trkpt lat="49.64015" lon="5.49852">
        <ele>336</ele>
        <time>2025-05-27T11:31:33.000Z</time>
      </trkpt>
      <trkpt lat="49.6402" lon="5.49842">
        <ele>335.20001220703</ele>
        <time>2025-05-27T11:31:34.000Z</time>
      </trkpt>
      <trkpt lat="49.64026" lon="5.49832">
        <ele>334.39999389648</ele>
        <time>2025-05-27T11:31:35.000Z</time>
      </trkpt>
      <trkpt lat="49.64032" lon="5.49824">
        <ele>333</ele>
        <time>2025-05-27T11:31:36.000Z</time>
      </trkpt>
      <trkpt lat="49.64043" lon="5.49814">
        <ele>331.39999389648</ele>
        <time>2025-05-27T11:31:38.000Z</time>
      </trkpt>
      <trkpt lat="49.64056" lon="5.49815">
        <ele>329</ele>
        <time>2025-05-27T11:31:40.000Z</time>
      </trkpt>
      <trkpt lat="49.64061" lon="5.49817">
        <ele>328.39999389648</ele>
        <time>2025-05-27T11:31:41.000Z</time>
      </trkpt>
      <trkpt lat="49.64066" lon="5.49827">
        <ele>328.60000610352</ele>
        <time>2025-05-27T11:31:43.000Z</time>
      </trkpt>
      <trkpt lat="49.64067" lon="5.49838">
        <ele>328.79998779297</ele>
        <time>2025-05-27T11:31:45.000Z</time>
      </trkpt>
      <trkpt lat="49.64067" lon="5.49845">
        <ele>328.60000610352</ele>
        <time>2025-05-27T11:31:46.000Z</time>
      </trkpt>
      <trkpt lat="49.64067" lon="5.49853">
        <ele>328.39999389648</ele>
        <time>2025-05-27T11:31:47.000Z</time>
      </trkpt>
      <trkpt lat="49.64065" lon="5.49869">
        <ele>327.60000610352</ele>
        <time>2025-05-27T11:31:49.000Z</time>
      </trkpt>
      <trkpt lat="49.64064" lon="5.49881">
        <ele>326.79998779297</ele>
        <time>2025-05-27T11:31:50.000Z</time>
      </trkpt>
      <trkpt lat="49.64062" lon="5.49892">
        <ele>325.79998779297</ele>
        <time>2025-05-27T11:31:51.000Z</time>
      </trkpt>
      <trkpt lat="49.64059" lon="5.49905">
        <ele>324.79998779297</ele>
        <time>2025-05-27T11:31:52.000Z</time>
      </trkpt>
      <trkpt lat="49.64057" lon="5.49918">
        <ele>324.20001220703</ele>
        <time>2025-05-27T11:31:53.000Z</time>
      </trkpt>
      <trkpt lat="49.64054" lon="5.49931">
        <ele>323.60000610352</ele>
        <time>2025-05-27T11:31:54.000Z</time>
      </trkpt>
      <trkpt lat="49.64052" lon="5.49943">
        <ele>322.60000610352</ele>
        <time>2025-05-27T11:31:55.000Z</time>
      </trkpt>
      <trkpt lat="49.6405" lon="5.49956">
        <ele>321</ele>
        <time>2025-05-27T11:31:56.000Z</time>
      </trkpt>
      <trkpt lat="49.64047" lon="5.49969">
        <ele>319.39999389648</ele>
        <time>2025-05-27T11:31:57.000Z</time>
      </trkpt>
      <trkpt lat="49.64041" lon="5.4999">
        <ele>316.79998779297</ele>
        <time>2025-05-27T11:31:59.000Z</time>
      </trkpt>
      <trkpt lat="49.64028" lon="5.50001">
        <ele>316.39999389648</ele>
        <time>2025-05-27T11:32:02.000Z</time>
      </trkpt>
      <trkpt lat="49.64022" lon="5.50004">
        <ele>316.79998779297</ele>
        <time>2025-05-27T11:32:03.000Z</time>
      </trkpt>
      <trkpt lat="49.64016" lon="5.50007">
        <ele>317.20001220703</ele>
        <time>2025-05-27T11:32:04.000Z</time>
      </trkpt>
      <trkpt lat="49.63995" lon="5.50017">
        <ele>317</ele>
        <time>2025-05-27T11:32:08.000Z</time>
      </trkpt>
      <trkpt lat="49.63971" lon="5.50041">
        <ele>317.20001220703</ele>
        <time>2025-05-27T11:32:13.000Z</time>
      </trkpt>
      <trkpt lat="49.63943" lon="5.50068">
        <ele>318.79998779297</ele>
        <time>2025-05-27T11:32:19.000Z</time>
      </trkpt>
      <trkpt lat="49.63926" lon="5.50087">
        <ele>320.39999389648</ele>
        <time>2025-05-27T11:32:23.000Z</time>
      </trkpt>
      <trkpt lat="49.63912" lon="5.50103">
        <ele>319.20001220703</ele>
        <time>2025-05-27T11:32:26.000Z</time>
      </trkpt>
      <trkpt lat="49.63886" lon="5.50128">
        <ele>315</ele>
        <time>2025-05-27T11:32:31.000Z</time>
      </trkpt>
      <trkpt lat="49.63874" lon="5.50136">
        <ele>313.60000610352</ele>
        <time>2025-05-27T11:32:33.000Z</time>
      </trkpt>
      <trkpt lat="49.63854" lon="5.5014">
        <ele>312.39999389648</ele>
        <time>2025-05-27T11:32:36.000Z</time>
      </trkpt>
      <trkpt lat="49.63848" lon="5.50142">
        <ele>312</ele>
        <time>2025-05-27T11:32:37.000Z</time>
      </trkpt>
      <trkpt lat="49.63828" lon="5.50145">
        <ele>310.79998779297</ele>
        <time>2025-05-27T11:32:40.000Z</time>
      </trkpt>
      <trkpt lat="49.63807" lon="5.50143">
        <ele>309</ele>
        <time>2025-05-27T11:32:43.000Z</time>
      </trkpt>
      <trkpt lat="49.63793" lon="5.50141">
        <ele>307.39999389648</ele>
        <time>2025-05-27T11:32:45.000Z</time>
      </trkpt>
      <trkpt lat="49.63778" lon="5.50139">
        <ele>306.20001220703</ele>
        <time>2025-05-27T11:32:47.000Z</time>
      </trkpt>
      <trkpt lat="49.63755" lon="5.50133">
        <ele>306.60000610352</ele>
        <time>2025-05-27T11:32:50.000Z</time>
      </trkpt>
      <trkpt lat="49.63734" lon="5.50124">
        <ele>307.39999389648</ele>
        <time>2025-05-27T11:32:53.000Z</time>
      </trkpt>
      <trkpt lat="49.63729" lon="5.50121">
        <ele>307.79998779297</ele>
        <time>2025-05-27T11:32:54.000Z</time>
      </trkpt>
      <trkpt lat="49.63705" lon="5.50106">
        <ele>311</ele>
        <time>2025-05-27T11:32:59.000Z</time>
      </trkpt>
      <trkpt lat="49.63694" lon="5.50096">
        <ele>312.39999389648</ele>
        <time>2025-05-27T11:33:02.000Z</time>
      </trkpt>
      <trkpt lat="49.63691" lon="5.50092">
        <ele>312.60000610352</ele>
        <time>2025-05-27T11:33:03.000Z</time>
      </trkpt>
      <trkpt lat="49.63685" lon="5.50085">
        <ele>313</ele>
        <time>2025-05-27T11:33:05.000Z</time>
      </trkpt>
      <trkpt lat="49.63679" lon="5.50077">
        <ele>313.39999389648</ele>
        <time>2025-05-27T11:33:07.000Z</time>
      </trkpt>
      <trkpt lat="49.63667" lon="5.50062">
        <ele>314.39999389648</ele>
        <time>2025-05-27T11:33:11.000Z</time>
      </trkpt>
      <trkpt lat="49.63664" lon="5.50058">
        <ele>314.60000610352</ele>
        <time>2025-05-27T11:33:12.000Z</time>
      </trkpt>
      <trkpt lat="49.63656" lon="5.50045">
        <ele>315</ele>
        <time>2025-05-27T11:33:15.000Z</time>
      </trkpt>
      <trkpt lat="49.63644" lon="5.5003">
        <ele>315.79998779297</ele>
        <time>2025-05-27T11:33:19.000Z</time>
      </trkpt>
      <trkpt lat="49.63633" lon="5.50012">
        <ele>316.39999389648</ele>
        <time>2025-05-27T11:33:23.000Z</time>
      </trkpt>
      <trkpt lat="49.63626" lon="5.50003">
        <ele>317</ele>
        <time>2025-05-27T11:33:25.000Z</time>
      </trkpt>
      <trkpt lat="49.6362" lon="5.49995">
        <ele>317.39999389648</ele>
        <time>2025-05-27T11:33:27.000Z</time>
      </trkpt>
      <trkpt lat="49.63612" lon="5.49984">
        <ele>317.60000610352</ele>
        <time>2025-05-27T11:33:30.000Z</time>
      </trkpt>
      <trkpt lat="49.6361" lon="5.4998">
        <ele>317.60000610352</ele>
        <time>2025-05-27T11:33:31.000Z</time>
      </trkpt>
      <trkpt lat="49.63602" lon="5.49968">
        <ele>317.39999389648</ele>
        <time>2025-05-27T11:33:35.000Z</time>
      </trkpt>
      <trkpt lat="49.636" lon="5.49965">
        <ele>317.39999389648</ele>
        <time>2025-05-27T11:33:36.000Z</time>
      </trkpt>
      <trkpt lat="49.63593" lon="5.49955">
        <ele>317.20001220703</ele>
        <time>2025-05-27T11:33:39.000Z</time>
      </trkpt>
      <trkpt lat="49.63581" lon="5.49945">
        <ele>317.79998779297</ele>
        <time>2025-05-27T11:33:43.000Z</time>
      </trkpt>
      <trkpt lat="49.63575" lon="5.49941">
        <ele>318</ele>
        <time>2025-05-27T11:33:45.000Z</time>
      </trkpt>
      <trkpt lat="49.63565" lon="5.49935">
        <ele>318.79998779297</ele>
        <time>2025-05-27T11:33:48.000Z</time>
      </trkpt>
      <trkpt lat="49.63558" lon="5.49935">
        <ele>319.39999389648</ele>
        <time>2025-05-27T11:33:50.000Z</time>
      </trkpt>
      <trkpt lat="49.63549" lon="5.49937">
        <ele>320.79998779297</ele>
        <time>2025-05-27T11:33:53.000Z</time>
      </trkpt>
      <trkpt lat="49.63544" lon="5.4994">
        <ele>321.39999389648</ele>
        <time>2025-05-27T11:33:55.000Z</time>
      </trkpt>
      <trkpt lat="49.63533" lon="5.49949">
        <ele>323</ele>
        <time>2025-05-27T11:33:59.000Z</time>
      </trkpt>
      <trkpt lat="49.63524" lon="5.49957">
        <ele>324.20001220703</ele>
        <time>2025-05-27T11:34:02.000Z</time>
      </trkpt>
      <trkpt lat="49.63521" lon="5.4996">
        <ele>324.79998779297</ele>
        <time>2025-05-27T11:34:04.000Z</time>
      </trkpt>
      <trkpt lat="49.6352" lon="5.49962">
        <ele>325.20001220703</ele>
        <time>2025-05-27T11:34:05.000Z</time>
      </trkpt>
      <trkpt lat="49.63519" lon="5.49964">
        <ele>325.20001220703</ele>
        <time>2025-05-27T11:34:06.000Z</time>
      </trkpt>
      <trkpt lat="49.63517" lon="5.4997">
        <ele>325.60000610352</ele>
        <time>2025-05-27T11:34:09.000Z</time>
      </trkpt>
      <trkpt lat="49.63518" lon="5.4998">
        <ele>326</ele>
        <time>2025-05-27T11:34:12.000Z</time>
      </trkpt>
      <trkpt lat="49.63518" lon="5.49987">
        <ele>326.39999389648</ele>
        <time>2025-05-27T11:34:14.000Z</time>
      </trkpt>
      <trkpt lat="49.63518" lon="5.4999">
        <ele>326.39999389648</ele>
        <time>2025-05-27T11:34:15.000Z</time>
      </trkpt>
      <trkpt lat="49.63517" lon="5.49993">
        <ele>326.39999389648</ele>
        <time>2025-05-27T11:34:16.000Z</time>
      </trkpt>
      <trkpt lat="49.63516" lon="5.49997">
        <ele>326.20001220703</ele>
        <time>2025-05-27T11:34:17.000Z</time>
      </trkpt>
      <trkpt lat="49.63513" lon="5.50008">
        <ele>326.60000610352</ele>
        <time>2025-05-27T11:34:20.000Z</time>
      </trkpt>
      <trkpt lat="49.63507" lon="5.50021">
        <ele>326.79998779297</ele>
        <time>2025-05-27T11:34:24.000Z</time>
      </trkpt>
      <trkpt lat="49.63506" lon="5.50024">
        <ele>327</ele>
        <time>2025-05-27T11:34:25.000Z</time>
      </trkpt>
      <trkpt lat="49.63501" lon="5.50045">
        <ele>328</ele>
        <time>2025-05-27T11:34:31.000Z</time>
      </trkpt>
      <trkpt lat="49.635" lon="5.5005">
        <ele>328.20001220703</ele>
        <time>2025-05-27T11:34:32.000Z</time>
      </trkpt>
      <trkpt lat="49.63496" lon="5.50079">
        <ele>329.20001220703</ele>
        <time>2025-05-27T11:34:39.000Z</time>
      </trkpt>
      <trkpt lat="49.63496" lon="5.50105">
        <ele>329</ele>
        <time>2025-05-27T11:34:45.000Z</time>
      </trkpt>
      <trkpt lat="49.63496" lon="5.50109">
        <ele>329</ele>
        <time>2025-05-27T11:34:46.000Z</time>
      </trkpt>
      <trkpt lat="49.63494" lon="5.50131">
        <ele>329.79998779297</ele>
        <time>2025-05-27T11:34:51.000Z</time>
      </trkpt>
      <trkpt lat="49.63495" lon="5.50144">
        <ele>330.60000610352</ele>
        <time>2025-05-27T11:34:54.000Z</time>
      </trkpt>
      <trkpt lat="49.63496" lon="5.50161">
        <ele>331.79998779297</ele>
        <time>2025-05-27T11:34:58.000Z</time>
      </trkpt>
      <trkpt lat="49.63496" lon="5.5017">
        <ele>332</ele>
        <time>2025-05-27T11:35:00.000Z</time>
      </trkpt>
      <trkpt lat="49.63496" lon="5.50187">
        <ele>332</ele>
        <time>2025-05-27T11:35:04.000Z</time>
      </trkpt>
      <trkpt lat="49.63495" lon="5.50196">
        <ele>332</ele>
        <time>2025-05-27T11:35:06.000Z</time>
      </trkpt>
      <trkpt lat="49.63495" lon="5.50223">
        <ele>332</ele>
        <time>2025-05-27T11:35:12.000Z</time>
      </trkpt>
      <trkpt lat="49.63495" lon="5.50233">
        <ele>331.60000610352</ele>
        <time>2025-05-27T11:35:14.000Z</time>
      </trkpt>
      <trkpt lat="49.63496" lon="5.50252">
        <ele>331.20001220703</ele>
        <time>2025-05-27T11:35:18.000Z</time>
      </trkpt>
      <trkpt lat="49.63496" lon="5.5027">
        <ele>331.20001220703</ele>
        <time>2025-05-27T11:35:22.000Z</time>
      </trkpt>
      <trkpt lat="49.63497" lon="5.50285">
        <ele>332.20001220703</ele>
        <time>2025-05-27T11:35:25.000Z</time>
      </trkpt>
      <trkpt lat="49.63497" lon="5.50304">
        <ele>334.20001220703</ele>
        <time>2025-05-27T11:35:29.000Z</time>
      </trkpt>
      <trkpt lat="49.63497" lon="5.50312">
        <ele>335</ele>
        <time>2025-05-27T11:35:31.000Z</time>
      </trkpt>
      <trkpt lat="49.63496" lon="5.50315">
        <ele>335.39999389648</ele>
        <time>2025-05-27T11:35:32.000Z</time>
      </trkpt>
      <trkpt lat="49.63493" lon="5.50323">
        <ele>336.20001220703</ele>
        <time>2025-05-27T11:35:34.000Z</time>
      </trkpt>
      <trkpt lat="49.63492" lon="5.50331">
        <ele>336.79998779297</ele>
        <time>2025-05-27T11:35:36.000Z</time>
      </trkpt>
      <trkpt lat="49.63493" lon="5.50347">
        <ele>337.60000610352</ele>
        <time>2025-05-27T11:35:40.000Z</time>
      </trkpt>
      <trkpt lat="49.63494" lon="5.50355">
        <ele>337.79998779297</ele>
        <time>2025-05-27T11:35:42.000Z</time>
      </trkpt>
      <trkpt lat="49.63494" lon="5.50376">
        <ele>339.39999389648</ele>
        <time>2025-05-27T11:35:47.000Z</time>
      </trkpt>
      <trkpt lat="49.63493" lon="5.5038">
        <ele>339.79998779297</ele>
        <time>2025-05-27T11:35:48.000Z</time>
      </trkpt>
      <trkpt lat="49.63496" lon="5.50399">
        <ele>341</ele>
        <time>2025-05-27T11:35:53.000Z</time>
      </trkpt>
      <trkpt lat="49.63497" lon="5.50402">
        <ele>341.20001220703</ele>
        <time>2025-05-27T11:35:54.000Z</time>
      </trkpt>
      <trkpt lat="49.63502" lon="5.50424">
        <ele>342.39999389648</ele>
        <time>2025-05-27T11:36:00.000Z</time>
      </trkpt>
      <trkpt lat="49.63508" lon="5.50438">
        <ele>342.60000610352</ele>
        <time>2025-05-27T11:36:04.000Z</time>
      </trkpt>
      <trkpt lat="49.6351" lon="5.50444">
        <ele>342.79998779297</ele>
        <time>2025-05-27T11:36:05.000Z</time>
      </trkpt>
      <trkpt lat="49.63521" lon="5.50466">
        <ele>343.79998779297</ele>
        <time>2025-05-27T11:36:10.000Z</time>
      </trkpt>
      <trkpt lat="49.63525" lon="5.50473">
        <ele>344</ele>
        <time>2025-05-27T11:36:12.000Z</time>
      </trkpt>
      <trkpt lat="49.63529" lon="5.50485">
        <ele>345</ele>
        <time>2025-05-27T11:36:15.000Z</time>
      </trkpt>
      <trkpt lat="49.63532" lon="5.50497">
        <ele>345.79998779297</ele>
        <time>2025-05-27T11:36:18.000Z</time>
      </trkpt>
      <trkpt lat="49.63534" lon="5.50504">
        <ele>346</ele>
        <time>2025-05-27T11:36:20.000Z</time>
      </trkpt>
      <trkpt lat="49.63535" lon="5.50522">
        <ele>346.60000610352</ele>
        <time>2025-05-27T11:36:24.000Z</time>
      </trkpt>
      <trkpt lat="49.63536" lon="5.50527">
        <ele>346.60000610352</ele>
        <time>2025-05-27T11:36:25.000Z</time>
      </trkpt>
      <trkpt lat="49.63545" lon="5.50546">
        <ele>345.60000610352</ele>
        <time>2025-05-27T11:36:30.000Z</time>
      </trkpt>
      <trkpt lat="49.63556" lon="5.5057">
        <ele>343.79998779297</ele>
        <time>2025-05-27T11:36:36.000Z</time>
      </trkpt>
      <trkpt lat="49.6356" lon="5.50578">
        <ele>343</ele>
        <time>2025-05-27T11:36:38.000Z</time>
      </trkpt>
      <trkpt lat="49.63567" lon="5.50587">
        <ele>341.79998779297</ele>
        <time>2025-05-27T11:36:40.000Z</time>
      </trkpt>
      <trkpt lat="49.6357" lon="5.50591">
        <ele>341</ele>
        <time>2025-05-27T11:36:41.000Z</time>
      </trkpt>
      <trkpt lat="49.63573" lon="5.50594">
        <ele>340.20001220703</ele>
        <time>2025-05-27T11:36:42.000Z</time>
      </trkpt>
      <trkpt lat="49.6358" lon="5.50599">
        <ele>338.79998779297</ele>
        <time>2025-05-27T11:36:44.000Z</time>
      </trkpt>
      <trkpt lat="49.63584" lon="5.506">
        <ele>338.20001220703</ele>
        <time>2025-05-27T11:36:45.000Z</time>
      </trkpt>
      <trkpt lat="49.63588" lon="5.506">
        <ele>337.60000610352</ele>
        <time>2025-05-27T11:36:46.000Z</time>
      </trkpt>
      <trkpt lat="49.63593" lon="5.50601">
        <ele>337.20001220703</ele>
        <time>2025-05-27T11:36:47.000Z</time>
      </trkpt>
      <trkpt lat="49.63598" lon="5.50602">
        <ele>336.60000610352</ele>
        <time>2025-05-27T11:36:48.000Z</time>
      </trkpt>
      <trkpt lat="49.63612" lon="5.50611">
        <ele>334.39999389648</ele>
        <time>2025-05-27T11:36:51.000Z</time>
      </trkpt>
      <trkpt lat="49.63617" lon="5.50613">
        <ele>333.79998779297</ele>
        <time>2025-05-27T11:36:52.000Z</time>
      </trkpt>
      <trkpt lat="49.63631" lon="5.50623">
        <ele>332.60000610352</ele>
        <time>2025-05-27T11:36:55.000Z</time>
      </trkpt>
      <trkpt lat="49.6364" lon="5.50632">
        <ele>332</ele>
        <time>2025-05-27T11:36:58.000Z</time>
      </trkpt>
      <trkpt lat="49.63643" lon="5.50635">
        <ele>331.79998779297</ele>
        <time>2025-05-27T11:36:59.000Z</time>
      </trkpt>
      <trkpt lat="49.63651" lon="5.50639">
        <ele>332</ele>
        <time>2025-05-27T11:37:03.000Z</time>
      </trkpt>
      <trkpt lat="49.63662" lon="5.50653">
        <ele>332.60000610352</ele>
        <time>2025-05-27T11:37:10.000Z</time>
      </trkpt>
      <trkpt lat="49.63672" lon="5.50667">
        <ele>333</ele>
        <time>2025-05-27T11:37:17.000Z</time>
      </trkpt>
      <trkpt lat="49.63676" lon="5.50674">
        <ele>333.39999389648</ele>
        <time>2025-05-27T11:37:20.000Z</time>
      </trkpt>
      <trkpt lat="49.6368" lon="5.50682">
        <ele>333.60000610352</ele>
        <time>2025-05-27T11:37:23.000Z</time>
      </trkpt>
      <trkpt lat="49.63686" lon="5.50695">
        <ele>333.60000610352</ele>
        <time>2025-05-27T11:37:26.000Z</time>
      </trkpt>
      <trkpt lat="49.63691" lon="5.50707">
        <ele>333.79998779297</ele>
        <time>2025-05-27T11:37:29.000Z</time>
      </trkpt>
      <trkpt lat="49.63695" lon="5.50719">
        <ele>333.79998779297</ele>
        <time>2025-05-27T11:37:32.000Z</time>
      </trkpt>
      <trkpt lat="49.63701" lon="5.50732">
        <ele>334.20001220703</ele>
        <time>2025-05-27T11:37:35.000Z</time>
      </trkpt>
      <trkpt lat="49.63706" lon="5.50743">
        <ele>334.39999389648</ele>
        <time>2025-05-27T11:37:38.000Z</time>
      </trkpt>
      <trkpt lat="49.63707" lon="5.50751">
        <ele>334.20001220703</ele>
        <time>2025-05-27T11:37:40.000Z</time>
      </trkpt>
      <trkpt lat="49.63722" lon="5.50776">
        <ele>335.60000610352</ele>
        <time>2025-05-27T11:37:44.000Z</time>
      </trkpt>
      <trkpt lat="49.63724" lon="5.50781">
        <ele>335.79998779297</ele>
        <time>2025-05-27T11:37:45.000Z</time>
      </trkpt>
      <trkpt lat="49.63732" lon="5.50806">
        <ele>337.20001220703</ele>
        <time>2025-05-27T11:37:51.000Z</time>
      </trkpt>
      <trkpt lat="49.63734" lon="5.50814">
        <ele>337.79998779297</ele>
        <time>2025-05-27T11:37:53.000Z</time>
      </trkpt>
      <trkpt lat="49.63744" lon="5.50838">
        <ele>340.39999389648</ele>
        <time>2025-05-27T11:37:59.000Z</time>
      </trkpt>
      <trkpt lat="49.63746" lon="5.50842">
        <ele>341</ele>
        <time>2025-05-27T11:38:00.000Z</time>
      </trkpt>
      <trkpt lat="49.63753" lon="5.50858">
        <ele>342.79998779297</ele>
        <time>2025-05-27T11:38:04.000Z</time>
      </trkpt>
      <trkpt lat="49.63757" lon="5.5087">
        <ele>343.60000610352</ele>
        <time>2025-05-27T11:38:07.000Z</time>
      </trkpt>
      <trkpt lat="49.63758" lon="5.50886">
        <ele>344.20001220703</ele>
        <time>2025-05-27T11:38:11.000Z</time>
      </trkpt>
      <trkpt lat="49.63764" lon="5.50908">
        <ele>344.60000610352</ele>
        <time>2025-05-27T11:38:16.000Z</time>
      </trkpt>
      <trkpt lat="49.63765" lon="5.50912">
        <ele>344.79998779297</ele>
        <time>2025-05-27T11:38:17.000Z</time>
      </trkpt>
      <trkpt lat="49.63775" lon="5.50934">
        <ele>345.60000610352</ele>
        <time>2025-05-27T11:38:22.000Z</time>
      </trkpt>
      <trkpt lat="49.63784" lon="5.50956">
        <ele>347</ele>
        <time>2025-05-27T11:38:27.000Z</time>
      </trkpt>
      <trkpt lat="49.63786" lon="5.50961">
        <ele>347.60000610352</ele>
        <time>2025-05-27T11:38:28.000Z</time>
      </trkpt>
      <trkpt lat="49.63796" lon="5.50979">
        <ele>349.60000610352</ele>
        <time>2025-05-27T11:38:32.000Z</time>
      </trkpt>
      <trkpt lat="49.63805" lon="5.50991">
        <ele>351</ele>
        <time>2025-05-27T11:38:36.000Z</time>
      </trkpt>
      <trkpt lat="49.63807" lon="5.50994">
        <ele>351.39999389648</ele>
        <time>2025-05-27T11:38:37.000Z</time>
      </trkpt>
      <trkpt lat="49.63812" lon="5.50999">
        <ele>351.79998779297</ele>
        <time>2025-05-27T11:38:39.000Z</time>
      </trkpt>
      <trkpt lat="49.63819" lon="5.51005">
        <ele>352.20001220703</ele>
        <time>2025-05-27T11:38:42.000Z</time>
      </trkpt>
      <trkpt lat="49.63822" lon="5.5101">
        <ele>352.39999389648</ele>
        <time>2025-05-27T11:38:44.000Z</time>
      </trkpt>
      <trkpt lat="49.63823" lon="5.51013">
        <ele>352.39999389648</ele>
        <time>2025-05-27T11:38:45.000Z</time>
      </trkpt>
      <trkpt lat="49.63827" lon="5.51023">
        <ele>353</ele>
        <time>2025-05-27T11:38:48.000Z</time>
      </trkpt>
      <trkpt lat="49.63829" lon="5.51031">
        <ele>353.39999389648</ele>
        <time>2025-05-27T11:38:50.000Z</time>
      </trkpt>
      <trkpt lat="49.63831" lon="5.51039">
        <ele>353.60000610352</ele>
        <time>2025-05-27T11:38:52.000Z</time>
      </trkpt>
      <trkpt lat="49.63831" lon="5.51062">
        <ele>354.39999389648</ele>
        <time>2025-05-27T11:38:57.000Z</time>
      </trkpt>
      <trkpt lat="49.63828" lon="5.51087">
        <ele>355.79998779297</ele>
        <time>2025-05-27T11:39:03.000Z</time>
      </trkpt>
      <trkpt lat="49.63826" lon="5.51097">
        <ele>356.20001220703</ele>
        <time>2025-05-27T11:39:06.000Z</time>
      </trkpt>
      <trkpt lat="49.63825" lon="5.51101">
        <ele>356.20001220703</ele>
        <time>2025-05-27T11:39:07.000Z</time>
      </trkpt>
      <trkpt lat="49.63825" lon="5.51126">
        <ele>357</ele>
        <time>2025-05-27T11:39:13.000Z</time>
      </trkpt>
      <trkpt lat="49.63823" lon="5.51147">
        <ele>357.20001220703</ele>
        <time>2025-05-27T11:39:18.000Z</time>
      </trkpt>
      <trkpt lat="49.63823" lon="5.51156">
        <ele>357.60000610352</ele>
        <time>2025-05-27T11:39:20.000Z</time>
      </trkpt>
      <trkpt lat="49.63824" lon="5.51186">
        <ele>358.79998779297</ele>
        <time>2025-05-27T11:39:27.000Z</time>
      </trkpt>
      <trkpt lat="49.63823" lon="5.5119">
        <ele>359.20001220703</ele>
        <time>2025-05-27T11:39:28.000Z</time>
      </trkpt>
      <trkpt lat="49.63823" lon="5.51216">
        <ele>361</ele>
        <time>2025-05-27T11:39:34.000Z</time>
      </trkpt>
      <trkpt lat="49.63819" lon="5.51223">
        <ele>361.39999389648</ele>
        <time>2025-05-27T11:39:37.000Z</time>
      </trkpt>
      <trkpt lat="49.63818" lon="5.51225">
        <ele>361.39999389648</ele>
        <time>2025-05-27T11:39:38.000Z</time>
      </trkpt>
      <trkpt lat="49.63811" lon="5.51232">
        <ele>362</ele>
        <time>2025-05-27T11:39:41.000Z</time>
      </trkpt>
      <trkpt lat="49.63807" lon="5.51236">
        <ele>362.60000610352</ele>
        <time>2025-05-27T11:39:43.000Z</time>
      </trkpt>
      <trkpt lat="49.6379" lon="5.51242">
        <ele>364.20001220703</ele>
        <time>2025-05-27T11:39:49.000Z</time>
      </trkpt>
      <trkpt lat="49.6377" lon="5.5125">
        <ele>365.20001220703</ele>
        <time>2025-05-27T11:39:55.000Z</time>
      </trkpt>
      <trkpt lat="49.63743" lon="5.51266">
        <ele>364.39999389648</ele>
        <time>2025-05-27T11:40:02.000Z</time>
      </trkpt>
      <trkpt lat="49.63714" lon="5.5128">
        <ele>364.39999389648</ele>
        <time>2025-05-27T11:40:09.000Z</time>
      </trkpt>
      <trkpt lat="49.63709" lon="5.51282">
        <ele>364.20001220703</ele>
        <time>2025-05-27T11:40:10.000Z</time>
      </trkpt>
      <trkpt lat="49.63687" lon="5.51293">
        <ele>363.79998779297</ele>
        <time>2025-05-27T11:40:15.000Z</time>
      </trkpt>
      <trkpt lat="49.63661" lon="5.51303">
        <ele>362.39999389648</ele>
        <time>2025-05-27T11:40:21.000Z</time>
      </trkpt>
      <trkpt lat="49.63652" lon="5.51307">
        <ele>362.39999389648</ele>
        <time>2025-05-27T11:40:23.000Z</time>
      </trkpt>
      <trkpt lat="49.63639" lon="5.51312">
        <ele>362.39999389648</ele>
        <time>2025-05-27T11:40:26.000Z</time>
      </trkpt>
      <trkpt lat="49.63622" lon="5.51315">
        <ele>362</ele>
        <time>2025-05-27T11:40:30.000Z</time>
      </trkpt>
      <trkpt lat="49.63617" lon="5.51313">
        <ele>361.79998779297</ele>
        <time>2025-05-27T11:40:31.000Z</time>
      </trkpt>
      <trkpt lat="49.63593" lon="5.51297">
        <ele>357.79998779297</ele>
        <time>2025-05-27T11:40:36.000Z</time>
      </trkpt>
      <trkpt lat="49.63583" lon="5.51291">
        <ele>356.60000610352</ele>
        <time>2025-05-27T11:40:38.000Z</time>
      </trkpt>
      <trkpt lat="49.63573" lon="5.51289">
        <ele>356.39999389648</ele>
        <time>2025-05-27T11:40:40.000Z</time>
      </trkpt>
      <trkpt lat="49.63568" lon="5.51289">
        <ele>356.60000610352</ele>
        <time>2025-05-27T11:40:41.000Z</time>
      </trkpt>
      <trkpt lat="49.63564" lon="5.51289">
        <ele>356.39999389648</ele>
        <time>2025-05-27T11:40:42.000Z</time>
      </trkpt>
      <trkpt lat="49.6356" lon="5.51288">
        <ele>356.39999389648</ele>
        <time>2025-05-27T11:40:43.000Z</time>
      </trkpt>
      <trkpt lat="49.63551" lon="5.51284">
        <ele>356.39999389648</ele>
        <time>2025-05-27T11:40:45.000Z</time>
      </trkpt>
      <trkpt lat="49.63547" lon="5.51282">
        <ele>356.60000610352</ele>
        <time>2025-05-27T11:40:46.000Z</time>
      </trkpt>
      <trkpt lat="49.63538" lon="5.51277">
        <ele>356.39999389648</ele>
        <time>2025-05-27T11:40:48.000Z</time>
      </trkpt>
      <trkpt lat="49.63533" lon="5.5127">
        <ele>356</ele>
        <time>2025-05-27T11:40:50.000Z</time>
      </trkpt>
      <trkpt lat="49.6352" lon="5.51263">
        <ele>356.20001220703</ele>
        <time>2025-05-27T11:40:54.000Z</time>
      </trkpt>
      <trkpt lat="49.63516" lon="5.51262">
        <ele>356.39999389648</ele>
        <time>2025-05-27T11:40:55.000Z</time>
      </trkpt>
      <trkpt lat="49.63507" lon="5.5126">
        <ele>356.60000610352</ele>
        <time>2025-05-27T11:40:57.000Z</time>
      </trkpt>
      <trkpt lat="49.63494" lon="5.51256">
        <ele>355.39999389648</ele>
        <time>2025-05-27T11:41:00.000Z</time>
      </trkpt>
      <trkpt lat="49.63481" lon="5.51253">
        <ele>353.79998779297</ele>
        <time>2025-05-27T11:41:03.000Z</time>
      </trkpt>
      <trkpt lat="49.63472" lon="5.5125">
        <ele>352.60000610352</ele>
        <time>2025-05-27T11:41:05.000Z</time>
      </trkpt>
      <trkpt lat="49.6346" lon="5.51239">
        <ele>351.39999389648</ele>
        <time>2025-05-27T11:41:09.000Z</time>
      </trkpt>
      <trkpt lat="49.63456" lon="5.51216">
        <ele>350.20001220703</ele>
        <time>2025-05-27T11:41:13.000Z</time>
      </trkpt>
      <trkpt lat="49.63455" lon="5.5121">
        <ele>350</ele>
        <time>2025-05-27T11:41:14.000Z</time>
      </trkpt>
      <trkpt lat="49.63454" lon="5.51197">
        <ele>349.60000610352</ele>
        <time>2025-05-27T11:41:16.000Z</time>
      </trkpt>
      <trkpt lat="49.63455" lon="5.51176">
        <ele>348.79998779297</ele>
        <time>2025-05-27T11:41:19.000Z</time>
      </trkpt>
      <trkpt lat="49.63455" lon="5.51169">
        <ele>348.60000610352</ele>
        <time>2025-05-27T11:41:20.000Z</time>
      </trkpt>
      <trkpt lat="49.63457" lon="5.51128">
        <ele>348.60000610352</ele>
        <time>2025-05-27T11:41:26.000Z</time>
      </trkpt>
      <trkpt lat="49.63458" lon="5.51086">
        <ele>348.20001220703</ele>
        <time>2025-05-27T11:41:33.000Z</time>
      </trkpt>
      <trkpt lat="49.63461" lon="5.5105">
        <ele>348.79998779297</ele>
        <time>2025-05-27T11:41:39.000Z</time>
      </trkpt>
      <trkpt lat="49.63462" lon="5.51028">
        <ele>349</ele>
        <time>2025-05-27T11:41:42.000Z</time>
      </trkpt>
      <trkpt lat="49.63461" lon="5.51012">
        <ele>349.39999389648</ele>
        <time>2025-05-27T11:41:44.000Z</time>
      </trkpt>
      <trkpt lat="49.63459" lon="5.50966">
        <ele>351</ele>
        <time>2025-05-27T11:41:50.000Z</time>
      </trkpt>
      <trkpt lat="49.63449" lon="5.50919">
        <ele>352</ele>
        <time>2025-05-27T11:41:56.000Z</time>
      </trkpt>
      <trkpt lat="49.63442" lon="5.50879">
        <ele>348.60000610352</ele>
        <time>2025-05-27T11:42:02.000Z</time>
      </trkpt>
      <trkpt lat="49.63441" lon="5.50872">
        <ele>348.20001220703</ele>
        <time>2025-05-27T11:42:03.000Z</time>
      </trkpt>
      <trkpt lat="49.63434" lon="5.50828">
        <ele>345</ele>
        <time>2025-05-27T11:42:09.000Z</time>
      </trkpt>
      <trkpt lat="49.6343" lon="5.50807">
        <ele>344.20001220703</ele>
        <time>2025-05-27T11:42:12.000Z</time>
      </trkpt>
      <trkpt lat="49.63427" lon="5.50787">
        <ele>343.79998779297</ele>
        <time>2025-05-27T11:42:15.000Z</time>
      </trkpt>
      <trkpt lat="49.63415" lon="5.50785">
        <ele>342.60000610352</ele>
        <time>2025-05-27T11:42:19.000Z</time>
      </trkpt>
      <trkpt lat="49.6341" lon="5.50783">
        <ele>342.20001220703</ele>
        <time>2025-05-27T11:42:22.000Z</time>
      </trkpt>
      <trkpt lat="49.63406" lon="5.5078">
        <ele>342</ele>
        <time>2025-05-27T11:42:24.000Z</time>
      </trkpt>
      <trkpt lat="49.63394" lon="5.50775">
        <ele>341.20001220703</ele>
        <time>2025-05-27T11:42:27.000Z</time>
      </trkpt>
      <trkpt lat="49.63389" lon="5.50773">
        <ele>340.60000610352</ele>
        <time>2025-05-27T11:42:28.000Z</time>
      </trkpt>
      <trkpt lat="49.63385" lon="5.50772">
        <ele>340.20001220703</ele>
        <time>2025-05-27T11:42:29.000Z</time>
      </trkpt>
      <trkpt lat="49.63381" lon="5.50772">
        <ele>339.79998779297</ele>
        <time>2025-05-27T11:42:30.000Z</time>
      </trkpt>
      <trkpt lat="49.63371" lon="5.50772">
        <ele>338.60000610352</ele>
        <time>2025-05-27T11:42:32.000Z</time>
      </trkpt>
      <trkpt lat="49.6336" lon="5.50768">
        <ele>337.60000610352</ele>
        <time>2025-05-27T11:42:34.000Z</time>
      </trkpt>
      <trkpt lat="49.63354" lon="5.50765">
        <ele>336.79998779297</ele>
        <time>2025-05-27T11:42:35.000Z</time>
      </trkpt>
      <trkpt lat="49.6335" lon="5.50762">
        <ele>336.39999389648</ele>
        <time>2025-05-27T11:42:36.000Z</time>
      </trkpt>
      <trkpt lat="49.63338" lon="5.50756">
        <ele>335</ele>
        <time>2025-05-27T11:42:38.000Z</time>
      </trkpt>
      <trkpt lat="49.63323" lon="5.50749">
        <ele>333.60000610352</ele>
        <time>2025-05-27T11:42:41.000Z</time>
      </trkpt>
      <trkpt lat="49.63305" lon="5.5074">
        <ele>331.60000610352</ele>
        <time>2025-05-27T11:42:47.000Z</time>
      </trkpt>
      <trkpt lat="49.633" lon="5.50736">
        <ele>331</ele>
        <time>2025-05-27T11:42:49.000Z</time>
      </trkpt>
      <trkpt lat="49.63288" lon="5.50732">
        <ele>329.60000610352</ele>
        <time>2025-05-27T11:42:52.000Z</time>
      </trkpt>
      <trkpt lat="49.63265" lon="5.50724">
        <ele>327.20001220703</ele>
        <time>2025-05-27T11:42:57.000Z</time>
      </trkpt>
      <trkpt lat="49.6326" lon="5.50723">
        <ele>326.60000610352</ele>
        <time>2025-05-27T11:42:58.000Z</time>
      </trkpt>
      <trkpt lat="49.63252" lon="5.50718">
        <ele>326</ele>
        <time>2025-05-27T11:43:00.000Z</time>
      </trkpt>
      <trkpt lat="49.6324" lon="5.50711">
        <ele>325.39999389648</ele>
        <time>2025-05-27T11:43:03.000Z</time>
      </trkpt>
      <trkpt lat="49.6322" lon="5.50707">
        <ele>324.60000610352</ele>
        <time>2025-05-27T11:43:08.000Z</time>
      </trkpt>
      <trkpt lat="49.63198" lon="5.507">
        <ele>325.20001220703</ele>
        <time>2025-05-27T11:43:14.000Z</time>
      </trkpt>
      <trkpt lat="49.63191" lon="5.50695">
        <ele>325</ele>
        <time>2025-05-27T11:43:16.000Z</time>
      </trkpt>
      <trkpt lat="49.63181" lon="5.50687">
        <ele>324.39999389648</ele>
        <time>2025-05-27T11:43:19.000Z</time>
      </trkpt>
      <trkpt lat="49.63173" lon="5.50681">
        <ele>324</ele>
        <time>2025-05-27T11:43:21.000Z</time>
      </trkpt>
      <trkpt lat="49.63151" lon="5.50673">
        <ele>322</ele>
        <time>2025-05-27T11:43:25.000Z</time>
      </trkpt>
      <trkpt lat="49.63146" lon="5.50669">
        <ele>321.39999389648</ele>
        <time>2025-05-27T11:43:26.000Z</time>
      </trkpt>
      <trkpt lat="49.63132" lon="5.50655">
        <ele>321</ele>
        <time>2025-05-27T11:43:29.000Z</time>
      </trkpt>
      <trkpt lat="49.63121" lon="5.50647">
        <ele>320.79998779297</ele>
        <time>2025-05-27T11:43:31.000Z</time>
      </trkpt>
      <trkpt lat="49.63116" lon="5.50645">
        <ele>320.60000610352</ele>
        <time>2025-05-27T11:43:32.000Z</time>
      </trkpt>
      <trkpt lat="49.63106" lon="5.50642">
        <ele>320.39999389648</ele>
        <time>2025-05-27T11:43:34.000Z</time>
      </trkpt>
      <trkpt lat="49.631" lon="5.50641">
        <ele>320.39999389648</ele>
        <time>2025-05-27T11:43:35.000Z</time>
      </trkpt>
      <trkpt lat="49.63089" lon="5.5064">
        <ele>320</ele>
        <time>2025-05-27T11:43:37.000Z</time>
      </trkpt>
      <trkpt lat="49.63084" lon="5.50641">
        <ele>319.79998779297</ele>
        <time>2025-05-27T11:43:38.000Z</time>
      </trkpt>
      <trkpt lat="49.63073" lon="5.50641">
        <ele>319</ele>
        <time>2025-05-27T11:43:40.000Z</time>
      </trkpt>
      <trkpt lat="49.63053" lon="5.50641">
        <ele>317.60000610352</ele>
        <time>2025-05-27T11:43:44.000Z</time>
      </trkpt>
      <trkpt lat="49.63049" lon="5.5064">
        <ele>317.20001220703</ele>
        <time>2025-05-27T11:43:45.000Z</time>
      </trkpt>
      <trkpt lat="49.63036" lon="5.50632">
        <ele>316.39999389648</ele>
        <time>2025-05-27T11:43:48.000Z</time>
      </trkpt>
      <trkpt lat="49.63027" lon="5.50625">
        <ele>315.79998779297</ele>
        <time>2025-05-27T11:43:50.000Z</time>
      </trkpt>
      <trkpt lat="49.6301" lon="5.50612">
        <ele>314.39999389648</ele>
        <time>2025-05-27T11:43:54.000Z</time>
      </trkpt>
      <trkpt lat="49.62999" lon="5.50606">
        <ele>313.60000610352</ele>
        <time>2025-05-27T11:43:56.000Z</time>
      </trkpt>
      <trkpt lat="49.62995" lon="5.50602">
        <ele>313.39999389648</ele>
        <time>2025-05-27T11:43:57.000Z</time>
      </trkpt>
      <trkpt lat="49.6299" lon="5.50598">
        <ele>313</ele>
        <time>2025-05-27T11:43:58.000Z</time>
      </trkpt>
      <trkpt lat="49.62977" lon="5.50581">
        <ele>312</ele>
        <time>2025-05-27T11:44:01.000Z</time>
      </trkpt>
      <trkpt lat="49.62972" lon="5.50576">
        <ele>311.60000610352</ele>
        <time>2025-05-27T11:44:02.000Z</time>
      </trkpt>
      <trkpt lat="49.62959" lon="5.50565">
        <ele>310.79998779297</ele>
        <time>2025-05-27T11:44:04.000Z</time>
      </trkpt>
      <trkpt lat="49.62952" lon="5.50561">
        <ele>310.39999389648</ele>
        <time>2025-05-27T11:44:05.000Z</time>
      </trkpt>
      <trkpt lat="49.62932" lon="5.50556">
        <ele>310.60000610352</ele>
        <time>2025-05-27T11:44:08.000Z</time>
      </trkpt>
      <trkpt lat="49.62925" lon="5.50555">
        <ele>310.79998779297</ele>
        <time>2025-05-27T11:44:09.000Z</time>
      </trkpt>
      <trkpt lat="49.62913" lon="5.50553">
        <ele>311.20001220703</ele>
        <time>2025-05-27T11:44:11.000Z</time>
      </trkpt>
      <trkpt lat="49.62889" lon="5.5055">
        <ele>311.60000610352</ele>
        <time>2025-05-27T11:44:15.000Z</time>
      </trkpt>
      <trkpt lat="49.62883" lon="5.50548">
        <ele>311.39999389648</ele>
        <time>2025-05-27T11:44:16.000Z</time>
      </trkpt>
      <trkpt lat="49.62847" lon="5.50547">
        <ele>308</ele>
        <time>2025-05-27T11:44:22.000Z</time>
      </trkpt>
      <trkpt lat="49.62841" lon="5.50547">
        <ele>307.20001220703</ele>
        <time>2025-05-27T11:44:23.000Z</time>
      </trkpt>
      <trkpt lat="49.62828" lon="5.5055">
        <ele>306.39999389648</ele>
        <time>2025-05-27T11:44:25.000Z</time>
      </trkpt>
      <trkpt lat="49.62819" lon="5.50556">
        <ele>306.60000610352</ele>
        <time>2025-05-27T11:44:27.000Z</time>
      </trkpt>
      <trkpt lat="49.62815" lon="5.5056">
        <ele>307.20001220703</ele>
        <time>2025-05-27T11:44:28.000Z</time>
      </trkpt>
      <trkpt lat="49.62805" lon="5.50567">
        <ele>307.60000610352</ele>
        <time>2025-05-27T11:44:30.000Z</time>
      </trkpt>
      <trkpt lat="49.62795" lon="5.50573">
        <ele>308.60000610352</ele>
        <time>2025-05-27T11:44:32.000Z</time>
      </trkpt>
      <trkpt lat="49.62775" lon="5.5058">
        <ele>309.39999389648</ele>
        <time>2025-05-27T11:44:36.000Z</time>
      </trkpt>
      <trkpt lat="49.6277" lon="5.50581">
        <ele>309.39999389648</ele>
        <time>2025-05-27T11:44:37.000Z</time>
      </trkpt>
      <trkpt lat="49.62746" lon="5.5059">
        <ele>310</ele>
        <time>2025-05-27T11:44:42.000Z</time>
      </trkpt>
      <trkpt lat="49.62741" lon="5.50591">
        <ele>309.79998779297</ele>
        <time>2025-05-27T11:44:43.000Z</time>
      </trkpt>
      <trkpt lat="49.62717" lon="5.50593">
        <ele>308.39999389648</ele>
        <time>2025-05-27T11:44:47.000Z</time>
      </trkpt>
      <trkpt lat="49.62711" lon="5.50594">
        <ele>308</ele>
        <time>2025-05-27T11:44:48.000Z</time>
      </trkpt>
      <trkpt lat="49.62685" lon="5.50603">
        <ele>307</ele>
        <time>2025-05-27T11:44:52.000Z</time>
      </trkpt>
      <trkpt lat="49.62673" lon="5.50609">
        <ele>307</ele>
        <time>2025-05-27T11:44:54.000Z</time>
      </trkpt>
      <trkpt lat="49.62648" lon="5.50619">
        <ele>307</ele>
        <time>2025-05-27T11:44:58.000Z</time>
      </trkpt>
      <trkpt lat="49.6263" lon="5.50626">
        <ele>305.60000610352</ele>
        <time>2025-05-27T11:45:01.000Z</time>
      </trkpt>
      <trkpt lat="49.62616" lon="5.50631">
        <ele>304.39999389648</ele>
        <time>2025-05-27T11:45:03.000Z</time>
      </trkpt>
      <trkpt lat="49.6261" lon="5.50631">
        <ele>303.79998779297</ele>
        <time>2025-05-27T11:45:04.000Z</time>
      </trkpt>
      <trkpt lat="49.62593" lon="5.50633">
        <ele>301.79998779297</ele>
        <time>2025-05-27T11:45:07.000Z</time>
      </trkpt>
      <trkpt lat="49.6256" lon="5.50638">
        <ele>298.20001220703</ele>
        <time>2025-05-27T11:45:13.000Z</time>
      </trkpt>
      <trkpt lat="49.62556" lon="5.5064">
        <ele>297.39999389648</ele>
        <time>2025-05-27T11:45:14.000Z</time>
      </trkpt>
      <trkpt lat="49.62542" lon="5.50654">
        <ele>294.60000610352</ele>
        <time>2025-05-27T11:45:17.000Z</time>
      </trkpt>
      <trkpt lat="49.62538" lon="5.50659">
        <ele>294</ele>
        <time>2025-05-27T11:45:18.000Z</time>
      </trkpt>
      <trkpt lat="49.62535" lon="5.50663">
        <ele>293.60000610352</ele>
        <time>2025-05-27T11:45:19.000Z</time>
      </trkpt>
      <trkpt lat="49.6253" lon="5.50672">
        <ele>293.39999389648</ele>
        <time>2025-05-27T11:45:21.000Z</time>
      </trkpt>
      <trkpt lat="49.62528" lon="5.5068">
        <ele>293.79998779297</ele>
        <time>2025-05-27T11:45:23.000Z</time>
      </trkpt>
      <trkpt lat="49.6253" lon="5.50689">
        <ele>294</ele>
        <time>2025-05-27T11:45:25.000Z</time>
      </trkpt>
      <trkpt lat="49.62535" lon="5.50695">
        <ele>294.20001220703</ele>
        <time>2025-05-27T11:45:27.000Z</time>
      </trkpt>
      <trkpt lat="49.62544" lon="5.50703">
        <ele>294.20001220703</ele>
        <time>2025-05-27T11:45:30.000Z</time>
      </trkpt>
      <trkpt lat="49.62548" lon="5.50705">
        <ele>294.20001220703</ele>
        <time>2025-05-27T11:45:31.000Z</time>
      </trkpt>
      <trkpt lat="49.62551" lon="5.50709">
        <ele>294.20001220703</ele>
        <time>2025-05-27T11:45:32.000Z</time>
      </trkpt>
      <trkpt lat="49.62567" lon="5.50726">
        <ele>294.39999389648</ele>
        <time>2025-05-27T11:45:37.000Z</time>
      </trkpt>
      <trkpt lat="49.62582" lon="5.50748">
        <ele>295</ele>
        <time>2025-05-27T11:45:43.000Z</time>
      </trkpt>
      <trkpt lat="49.62596" lon="5.50769">
        <ele>295.20001220703</ele>
        <time>2025-05-27T11:45:48.000Z</time>
      </trkpt>
      <trkpt lat="49.62607" lon="5.5079">
        <ele>295.79998779297</ele>
        <time>2025-05-27T11:45:53.000Z</time>
      </trkpt>
      <trkpt lat="49.6261" lon="5.50795">
        <ele>296</ele>
        <time>2025-05-27T11:45:54.000Z</time>
      </trkpt>
      <trkpt lat="49.62624" lon="5.50814">
        <ele>297.39999389648</ele>
        <time>2025-05-27T11:45:59.000Z</time>
      </trkpt>
      <trkpt lat="49.62628" lon="5.50817">
        <ele>298</ele>
        <time>2025-05-27T11:46:00.000Z</time>
      </trkpt>
      <trkpt lat="49.62643" lon="5.50838">
        <ele>300</ele>
        <time>2025-05-27T11:46:05.000Z</time>
      </trkpt>
      <trkpt lat="49.62648" lon="5.50846">
        <ele>300.39999389648</ele>
        <time>2025-05-27T11:46:07.000Z</time>
      </trkpt>
      <trkpt lat="49.62664" lon="5.50872">
        <ele>300.79998779297</ele>
        <time>2025-05-27T11:46:13.000Z</time>
      </trkpt>
      <trkpt lat="49.6268" lon="5.50896">
        <ele>301</ele>
        <time>2025-05-27T11:46:18.000Z</time>
      </trkpt>
      <trkpt lat="49.62683" lon="5.50901">
        <ele>301.39999389648</ele>
        <time>2025-05-27T11:46:19.000Z</time>
      </trkpt>
      <trkpt lat="49.62702" lon="5.50937">
        <ele>303.60000610352</ele>
        <time>2025-05-27T11:46:27.000Z</time>
      </trkpt>
      <trkpt lat="49.62718" lon="5.50965">
        <ele>304.39999389648</ele>
        <time>2025-05-27T11:46:34.000Z</time>
      </trkpt>
      <trkpt lat="49.6272" lon="5.5097">
        <ele>304.60000610352</ele>
        <time>2025-05-27T11:46:35.000Z</time>
      </trkpt>
      <trkpt lat="49.62735" lon="5.50999">
        <ele>306</ele>
        <time>2025-05-27T11:46:41.000Z</time>
      </trkpt>
      <trkpt lat="49.62751" lon="5.51024">
        <ele>306</ele>
        <time>2025-05-27T11:46:47.000Z</time>
      </trkpt>
      <trkpt lat="49.62757" lon="5.51031">
        <ele>306</ele>
        <time>2025-05-27T11:46:49.000Z</time>
      </trkpt>
      <trkpt lat="49.62767" lon="5.51041">
        <ele>306</ele>
        <time>2025-05-27T11:46:52.000Z</time>
      </trkpt>
      <trkpt lat="49.62775" lon="5.5105">
        <ele>306</ele>
        <time>2025-05-27T11:46:55.000Z</time>
      </trkpt>
      <trkpt lat="49.62791" lon="5.51063">
        <ele>306</ele>
        <time>2025-05-27T11:47:00.000Z</time>
      </trkpt>
      <trkpt lat="49.62794" lon="5.51066">
        <ele>306.20001220703</ele>
        <time>2025-05-27T11:47:01.000Z</time>
      </trkpt>
      <trkpt lat="49.62809" lon="5.5107">
        <ele>306.60000610352</ele>
        <time>2025-05-27T11:47:06.000Z</time>
      </trkpt>
      <trkpt lat="49.6282" lon="5.51062">
        <ele>307.39999389648</ele>
        <time>2025-05-27T11:47:10.000Z</time>
      </trkpt>
      <trkpt lat="49.62823" lon="5.5106">
        <ele>307.39999389648</ele>
        <time>2025-05-27T11:47:11.000Z</time>
      </trkpt>
      <trkpt lat="49.62831" lon="5.51052">
        <ele>308.39999389648</ele>
        <time>2025-05-27T11:47:14.000Z</time>
      </trkpt>
      <trkpt lat="49.62837" lon="5.51041">
        <ele>309</ele>
        <time>2025-05-27T11:47:17.000Z</time>
      </trkpt>
      <trkpt lat="49.62842" lon="5.51019">
        <ele>312.79998779297</ele>
        <time>2025-05-27T11:47:22.000Z</time>
      </trkpt>
      <trkpt lat="49.62842" lon="5.51015">
        <ele>313.79998779297</ele>
        <time>2025-05-27T11:47:23.000Z</time>
      </trkpt>
      <trkpt lat="49.62851" lon="5.50998">
        <ele>317</ele>
        <time>2025-05-27T11:47:28.000Z</time>
      </trkpt>
      <trkpt lat="49.62856" lon="5.50992">
        <ele>318.20001220703</ele>
        <time>2025-05-27T11:47:30.000Z</time>
      </trkpt>
      <trkpt lat="49.62863" lon="5.50983">
        <ele>319.39999389648</ele>
        <time>2025-05-27T11:47:33.000Z</time>
      </trkpt>
      <trkpt lat="49.62865" lon="5.50982">
        <ele>319.79998779297</ele>
        <time>2025-05-27T11:47:34.000Z</time>
      </trkpt>
      <trkpt lat="49.62869" lon="5.50977">
        <ele>321</ele>
        <time>2025-05-27T11:47:36.000Z</time>
      </trkpt>
      <trkpt lat="49.62877" lon="5.50969">
        <ele>322.20001220703</ele>
        <time>2025-05-27T11:47:40.000Z</time>
      </trkpt>
      <trkpt lat="49.62884" lon="5.50962">
        <ele>323.39999389648</ele>
        <time>2025-05-27T11:47:44.000Z</time>
      </trkpt>
      <trkpt lat="49.62892" lon="5.50954">
        <ele>324.39999389648</ele>
        <time>2025-05-27T11:47:48.000Z</time>
      </trkpt>
      <trkpt lat="49.62906" lon="5.50951">
        <ele>325</ele>
        <time>2025-05-27T11:47:53.000Z</time>
      </trkpt>
      <trkpt lat="49.62912" lon="5.50949">
        <ele>325.39999389648</ele>
        <time>2025-05-27T11:47:55.000Z</time>
      </trkpt>
      <trkpt lat="49.6293" lon="5.50945">
        <ele>327</ele>
        <time>2025-05-27T11:48:01.000Z</time>
      </trkpt>
      <trkpt lat="49.62936" lon="5.50942">
        <ele>327.79998779297</ele>
        <time>2025-05-27T11:48:03.000Z</time>
      </trkpt>
      <trkpt lat="49.62942" lon="5.50939">
        <ele>328.60000610352</ele>
        <time>2025-05-27T11:48:05.000Z</time>
      </trkpt>
      <trkpt lat="49.62955" lon="5.50934">
        <ele>330.39999389648</ele>
        <time>2025-05-27T11:48:10.000Z</time>
      </trkpt>
      <trkpt lat="49.62958" lon="5.50933">
        <ele>330.79998779297</ele>
        <time>2025-05-27T11:48:11.000Z</time>
      </trkpt>
      <trkpt lat="49.62971" lon="5.50932">
        <ele>332.20001220703</ele>
        <time>2025-05-27T11:48:16.000Z</time>
      </trkpt>
      <trkpt lat="49.62979" lon="5.50932">
        <ele>332.79998779297</ele>
        <time>2025-05-27T11:48:19.000Z</time>
      </trkpt>
      <trkpt lat="49.6299" lon="5.50933">
        <ele>333.60000610352</ele>
        <time>2025-05-27T11:48:23.000Z</time>
      </trkpt>
      <trkpt lat="49.62996" lon="5.50934">
        <ele>334</ele>
        <time>2025-05-27T11:48:25.000Z</time>
      </trkpt>
      <trkpt lat="49.63008" lon="5.50935">
        <ele>335</ele>
        <time>2025-05-27T11:48:30.000Z</time>
      </trkpt>
      <trkpt lat="49.6302" lon="5.50935">
        <ele>335.79998779297</ele>
        <time>2025-05-27T11:48:35.000Z</time>
      </trkpt>
      <trkpt lat="49.63025" lon="5.50936">
        <ele>336.20001220703</ele>
        <time>2025-05-27T11:48:37.000Z</time>
      </trkpt>
      <trkpt lat="49.63033" lon="5.50939">
        <ele>336.60000610352</ele>
        <time>2025-05-27T11:48:41.000Z</time>
      </trkpt>
      <trkpt lat="49.63034" lon="5.5094">
        <ele>336.60000610352</ele>
        <time>2025-05-27T11:48:42.000Z</time>
      </trkpt>
      <trkpt lat="49.63045" lon="5.50948">
        <ele>336.60000610352</ele>
        <time>2025-05-27T11:48:48.000Z</time>
      </trkpt>
      <trkpt lat="49.63048" lon="5.50949">
        <ele>336.39999389648</ele>
        <time>2025-05-27T11:48:49.000Z</time>
      </trkpt>
      <trkpt lat="49.63061" lon="5.50959">
        <ele>336.20001220703</ele>
        <time>2025-05-27T11:48:55.000Z</time>
      </trkpt>
      <trkpt lat="49.6307" lon="5.50967">
        <ele>336.79998779297</ele>
        <time>2025-05-27T11:48:59.000Z</time>
      </trkpt>
      <trkpt lat="49.63073" lon="5.50972">
        <ele>337</ele>
        <time>2025-05-27T11:49:01.000Z</time>
      </trkpt>
      <trkpt lat="49.63078" lon="5.50979">
        <ele>337.20001220703</ele>
        <time>2025-05-27T11:49:04.000Z</time>
      </trkpt>
      <trkpt lat="49.63082" lon="5.50982">
        <ele>337.20001220703</ele>
        <time>2025-05-27T11:49:07.000Z</time>
      </trkpt>
      <trkpt lat="49.63083" lon="5.50984">
        <ele>337.39999389648</ele>
        <time>2025-05-27T11:49:08.000Z</time>
      </trkpt>
      <trkpt lat="49.6309" lon="5.51026">
        <ele>337.39999389648</ele>
        <time>2025-05-27T11:50:45.000Z</time>
      </trkpt>
      <trkpt lat="49.63114" lon="5.51062">
        <ele>340.79998779297</ele>
        <time>2025-05-27T11:51:05.000Z</time>
      </trkpt>
      <trkpt lat="49.63121" lon="5.51074">
        <ele>341.39999389648</ele>
        <time>2025-05-27T11:51:09.000Z</time>
      </trkpt>
      <trkpt lat="49.63129" lon="5.51085">
        <ele>342</ele>
        <time>2025-05-27T11:51:14.000Z</time>
      </trkpt>
      <trkpt lat="49.63132" lon="5.51092">
        <ele>342.20001220703</ele>
        <time>2025-05-27T11:51:16.000Z</time>
      </trkpt>
      <trkpt lat="49.63137" lon="5.51108">
        <ele>342.60000610352</ele>
        <time>2025-05-27T11:51:22.000Z</time>
      </trkpt>
      <trkpt lat="49.6314" lon="5.51111">
        <ele>342.79998779297</ele>
        <time>2025-05-27T11:51:24.000Z</time>
      </trkpt>
      <trkpt lat="49.63148" lon="5.51123">
        <ele>343</ele>
        <time>2025-05-27T11:51:28.000Z</time>
      </trkpt>
      <trkpt lat="49.63158" lon="5.51142">
        <ele>343.20001220703</ele>
        <time>2025-05-27T11:51:37.000Z</time>
      </trkpt>
      <trkpt lat="49.63159" lon="5.51147">
        <ele>343.39999389648</ele>
        <time>2025-05-27T11:51:39.000Z</time>
      </trkpt>
      <trkpt lat="49.6316" lon="5.51187">
        <ele>344.79998779297</ele>
        <time>2025-05-27T11:51:55.000Z</time>
      </trkpt>
      <trkpt lat="49.63157" lon="5.51193">
        <ele>344.60000610352</ele>
        <time>2025-05-27T11:51:57.000Z</time>
      </trkpt>
      <trkpt lat="49.63147" lon="5.51221">
        <ele>343.60000610352</ele>
        <time>2025-05-27T11:52:12.000Z</time>
      </trkpt>
      <trkpt lat="49.63136" lon="5.51229">
        <ele>342.60000610352</ele>
        <time>2025-05-27T11:52:18.000Z</time>
      </trkpt>
      <trkpt lat="49.63136" lon="5.51232">
        <ele>342.60000610352</ele>
        <time>2025-05-27T11:52:19.000Z</time>
      </trkpt>
      <trkpt lat="49.63131" lon="5.51248">
        <ele>341.79998779297</ele>
        <time>2025-05-27T11:52:24.000Z</time>
      </trkpt>
      <trkpt lat="49.63129" lon="5.51257">
        <ele>341.20001220703</ele>
        <time>2025-05-27T11:52:27.000Z</time>
      </trkpt>
      <trkpt lat="49.63123" lon="5.51279">
        <ele>339.79998779297</ele>
        <time>2025-05-27T11:52:33.000Z</time>
      </trkpt>
      <trkpt lat="49.6312" lon="5.51286">
        <ele>339.20001220703</ele>
        <time>2025-05-27T11:52:35.000Z</time>
      </trkpt>
      <trkpt lat="49.63115" lon="5.51298">
        <ele>338.20001220703</ele>
        <time>2025-05-27T11:52:39.000Z</time>
      </trkpt>
      <trkpt lat="49.63112" lon="5.51306">
        <ele>337.79998779297</ele>
        <time>2025-05-27T11:52:41.000Z</time>
      </trkpt>
      <trkpt lat="49.6311" lon="5.51315">
        <ele>337</ele>
        <time>2025-05-27T11:52:43.000Z</time>
      </trkpt>
      <trkpt lat="49.63109" lon="5.51319">
        <ele>336.60000610352</ele>
        <time>2025-05-27T11:52:44.000Z</time>
      </trkpt>
      <trkpt lat="49.63109" lon="5.51324">
        <ele>336.20001220703</ele>
        <time>2025-05-27T11:52:45.000Z</time>
      </trkpt>
      <trkpt lat="49.63109" lon="5.51328">
        <ele>336</ele>
        <time>2025-05-27T11:52:46.000Z</time>
      </trkpt>
      <trkpt lat="49.63109" lon="5.51332">
        <ele>335.79998779297</ele>
        <time>2025-05-27T11:52:47.000Z</time>
      </trkpt>
      <trkpt lat="49.6311" lon="5.51336">
        <ele>335.39999389648</ele>
        <time>2025-05-27T11:52:48.000Z</time>
      </trkpt>
      <trkpt lat="49.6311" lon="5.51346">
        <ele>334.79998779297</ele>
        <time>2025-05-27T11:52:50.000Z</time>
      </trkpt>
      <trkpt lat="49.63101" lon="5.51361">
        <ele>333.60000610352</ele>
        <time>2025-05-27T11:52:54.000Z</time>
      </trkpt>
      <trkpt lat="49.63097" lon="5.51368">
        <ele>333</ele>
        <time>2025-05-27T11:52:55.000Z</time>
      </trkpt>
      <trkpt lat="49.63089" lon="5.51378">
        <ele>332</ele>
        <time>2025-05-27T11:52:57.000Z</time>
      </trkpt>
      <trkpt lat="49.63087" lon="5.51382">
        <ele>331.39999389648</ele>
        <time>2025-05-27T11:52:58.000Z</time>
      </trkpt>
      <trkpt lat="49.63085" lon="5.51385">
        <ele>331</ele>
        <time>2025-05-27T11:52:59.000Z</time>
      </trkpt>
      <trkpt lat="49.63082" lon="5.51387">
        <ele>330.79998779297</ele>
        <time>2025-05-27T11:53:00.000Z</time>
      </trkpt>
      <trkpt lat="49.63081" lon="5.51389">
        <ele>330.60000610352</ele>
        <time>2025-05-27T11:53:01.000Z</time>
      </trkpt>
      <trkpt lat="49.63079" lon="5.51391">
        <ele>330.20001220703</ele>
        <time>2025-05-27T11:53:02.000Z</time>
      </trkpt>
      <trkpt lat="49.63077" lon="5.51393">
        <ele>330</ele>
        <time>2025-05-27T11:53:03.000Z</time>
      </trkpt>
      <trkpt lat="49.63074" lon="5.51399">
        <ele>329.39999389648</ele>
        <time>2025-05-27T11:53:10.000Z</time>
      </trkpt>
      <trkpt lat="49.63084" lon="5.5141">
        <ele>329.20001220703</ele>
        <time>2025-05-27T11:53:12.000Z</time>
      </trkpt>
      <trkpt lat="49.63092" lon="5.51428">
        <ele>329.20001220703</ele>
        <time>2025-05-27T11:53:16.000Z</time>
      </trkpt>
      <trkpt lat="49.63089" lon="5.51446">
        <ele>329</ele>
        <time>2025-05-27T11:53:22.000Z</time>
      </trkpt>
      <trkpt lat="49.63088" lon="5.51452">
        <ele>329.20001220703</ele>
        <time>2025-05-27T11:53:24.000Z</time>
      </trkpt>
      <trkpt lat="49.63084" lon="5.5146">
        <ele>329.60000610352</ele>
        <time>2025-05-27T11:53:28.000Z</time>
      </trkpt>
      <trkpt lat="49.63083" lon="5.51462">
        <ele>329.60000610352</ele>
        <time>2025-05-27T11:53:29.000Z</time>
      </trkpt>
      <trkpt lat="49.63081" lon="5.51468">
        <ele>329.79998779297</ele>
        <time>2025-05-27T11:53:31.000Z</time>
      </trkpt>
      <trkpt lat="49.63078" lon="5.51478">
        <ele>330.79998779297</ele>
        <time>2025-05-27T11:53:35.000Z</time>
      </trkpt>
      <trkpt lat="49.63077" lon="5.51481">
        <ele>331</ele>
        <time>2025-05-27T11:53:36.000Z</time>
      </trkpt>
      <trkpt lat="49.63074" lon="5.51499">
        <ele>332.39999389648</ele>
        <time>2025-05-27T11:53:42.000Z</time>
      </trkpt>
      <trkpt lat="49.63073" lon="5.51502">
        <ele>332.79998779297</ele>
        <time>2025-05-27T11:53:43.000Z</time>
      </trkpt>
      <trkpt lat="49.63072" lon="5.51508">
        <ele>333.39999389648</ele>
        <time>2025-05-27T11:53:45.000Z</time>
      </trkpt>
      <trkpt lat="49.63067" lon="5.51527">
        <ele>334.79998779297</ele>
        <time>2025-05-27T11:53:50.000Z</time>
      </trkpt>
      <trkpt lat="49.63066" lon="5.51547">
        <ele>336.60000610352</ele>
        <time>2025-05-27T11:53:55.000Z</time>
      </trkpt>
      <trkpt lat="49.63066" lon="5.51556">
        <ele>337.39999389648</ele>
        <time>2025-05-27T11:53:56.000Z</time>
      </trkpt>
      <trkpt lat="49.63069" lon="5.51578">
        <ele>339.79998779297</ele>
        <time>2025-05-27T11:54:00.000Z</time>
      </trkpt>
      <trkpt lat="49.6307" lon="5.51595">
        <ele>341.20001220703</ele>
        <time>2025-05-27T11:54:03.000Z</time>
      </trkpt>
      <trkpt lat="49.63072" lon="5.51606">
        <ele>342.39999389648</ele>
        <time>2025-05-27T11:54:05.000Z</time>
      </trkpt>
      <trkpt lat="49.63073" lon="5.51629">
        <ele>344.20001220703</ele>
        <time>2025-05-27T11:54:10.000Z</time>
      </trkpt>
      <trkpt lat="49.63071" lon="5.51643">
        <ele>345.20001220703</ele>
        <time>2025-05-27T11:54:14.000Z</time>
      </trkpt>
      <trkpt lat="49.63069" lon="5.5165">
        <ele>345.39999389648</ele>
        <time>2025-05-27T11:54:16.000Z</time>
      </trkpt>
      <trkpt lat="49.63069" lon="5.51654">
        <ele>345.60000610352</ele>
        <time>2025-05-27T11:54:17.000Z</time>
      </trkpt>
      <trkpt lat="49.63068" lon="5.51667">
        <ele>346.60000610352</ele>
        <time>2025-05-27T11:54:21.000Z</time>
      </trkpt>
      <trkpt lat="49.63067" lon="5.51678">
        <ele>347</ele>
        <time>2025-05-27T11:54:24.000Z</time>
      </trkpt>
      <trkpt lat="49.63067" lon="5.51698">
        <ele>347</ele>
        <time>2025-05-27T11:54:28.000Z</time>
      </trkpt>
      <trkpt lat="49.63067" lon="5.51706">
        <ele>347.20001220703</ele>
        <time>2025-05-27T11:54:30.000Z</time>
      </trkpt>
      <trkpt lat="49.63066" lon="5.5171">
        <ele>347.20001220703</ele>
        <time>2025-05-27T11:54:31.000Z</time>
      </trkpt>
      <trkpt lat="49.63065" lon="5.51726">
        <ele>347.20001220703</ele>
        <time>2025-05-27T11:54:35.000Z</time>
      </trkpt>
      <trkpt lat="49.63064" lon="5.5173">
        <ele>347.20001220703</ele>
        <time>2025-05-27T11:54:36.000Z</time>
      </trkpt>
      <trkpt lat="49.63055" lon="5.51749">
        <ele>347.39999389648</ele>
        <time>2025-05-27T11:54:42.000Z</time>
      </trkpt>
      <trkpt lat="49.63041" lon="5.51769">
        <ele>349.39999389648</ele>
        <time>2025-05-27T11:54:49.000Z</time>
      </trkpt>
      <trkpt lat="49.63039" lon="5.51772">
        <ele>349.39999389648</ele>
        <time>2025-05-27T11:54:50.000Z</time>
      </trkpt>
      <trkpt lat="49.63035" lon="5.5178">
        <ele>349.79998779297</ele>
        <time>2025-05-27T11:54:53.000Z</time>
      </trkpt>
      <trkpt lat="49.63029" lon="5.51789">
        <ele>350.20001220703</ele>
        <time>2025-05-27T11:54:56.000Z</time>
      </trkpt>
      <trkpt lat="49.63025" lon="5.51795">
        <ele>350.60000610352</ele>
        <time>2025-05-27T11:54:59.000Z</time>
      </trkpt>
      <trkpt lat="49.63018" lon="5.51802">
        <ele>351</ele>
        <time>2025-05-27T11:55:02.000Z</time>
      </trkpt>
      <trkpt lat="49.62998" lon="5.5182">
        <ele>351</ele>
        <time>2025-05-27T11:55:09.000Z</time>
      </trkpt>
      <trkpt lat="49.62987" lon="5.51837">
        <ele>349.79998779297</ele>
        <time>2025-05-27T11:55:13.000Z</time>
      </trkpt>
      <trkpt lat="49.62983" lon="5.51847">
        <ele>349</ele>
        <time>2025-05-27T11:55:15.000Z</time>
      </trkpt>
      <trkpt lat="49.62977" lon="5.51856">
        <ele>348.39999389648</ele>
        <time>2025-05-27T11:55:17.000Z</time>
      </trkpt>
      <trkpt lat="49.62971" lon="5.51863">
        <ele>347.79998779297</ele>
        <time>2025-05-27T11:55:19.000Z</time>
      </trkpt>
      <trkpt lat="49.62968" lon="5.51864">
        <ele>347.60000610352</ele>
        <time>2025-05-27T11:55:20.000Z</time>
      </trkpt>
      <trkpt lat="49.6296" lon="5.51868">
        <ele>347</ele>
        <time>2025-05-27T11:55:22.000Z</time>
      </trkpt>
      <trkpt lat="49.62948" lon="5.51869">
        <ele>346.60000610352</ele>
        <time>2025-05-27T11:55:25.000Z</time>
      </trkpt>
      <trkpt lat="49.62941" lon="5.51871">
        <ele>346.20001220703</ele>
        <time>2025-05-27T11:55:27.000Z</time>
      </trkpt>
      <trkpt lat="49.62926" lon="5.5187">
        <ele>345.60000610352</ele>
        <time>2025-05-27T11:55:31.000Z</time>
      </trkpt>
      <trkpt lat="49.62918" lon="5.51872">
        <ele>345</ele>
        <time>2025-05-27T11:55:33.000Z</time>
      </trkpt>
      <trkpt lat="49.62897" lon="5.51866">
        <ele>344</ele>
        <time>2025-05-27T11:55:38.000Z</time>
      </trkpt>
      <trkpt lat="49.62865" lon="5.51852">
        <ele>341</ele>
        <time>2025-05-27T11:55:45.000Z</time>
      </trkpt>
      <trkpt lat="49.6284" lon="5.51834">
        <ele>340.39999389648</ele>
        <time>2025-05-27T11:55:52.000Z</time>
      </trkpt>
      <trkpt lat="49.62818" lon="5.518">
        <ele>340.39999389648</ele>
        <time>2025-05-27T11:55:59.000Z</time>
      </trkpt>
      <trkpt lat="49.62813" lon="5.51778">
        <ele>341.39999389648</ele>
        <time>2025-05-27T11:56:04.000Z</time>
      </trkpt>
      <trkpt lat="49.62812" lon="5.51773">
        <ele>341.20001220703</ele>
        <time>2025-05-27T11:56:05.000Z</time>
      </trkpt>
      <trkpt lat="49.62805" lon="5.51748">
        <ele>339.60000610352</ele>
        <time>2025-05-27T11:56:10.000Z</time>
      </trkpt>
      <trkpt lat="49.62798" lon="5.51719">
        <ele>338.39999389648</ele>
        <time>2025-05-27T11:56:15.000Z</time>
      </trkpt>
      <trkpt lat="49.62796" lon="5.51709">
        <ele>338.60000610352</ele>
        <time>2025-05-27T11:56:17.000Z</time>
      </trkpt>
      <trkpt lat="49.62781" lon="5.51675">
        <ele>339.39999389648</ele>
        <time>2025-05-27T11:56:24.000Z</time>
      </trkpt>
      <trkpt lat="49.62752" lon="5.51642">
        <ele>340.79998779297</ele>
        <time>2025-05-27T11:57:08.000Z</time>
      </trkpt>
      <trkpt lat="49.62749" lon="5.5164">
        <ele>341</ele>
        <time>2025-05-27T11:57:09.000Z</time>
      </trkpt>
      <trkpt lat="49.62731" lon="5.51634">
        <ele>341.60000610352</ele>
        <time>2025-05-27T11:57:15.000Z</time>
      </trkpt>
      <trkpt lat="49.62707" lon="5.51624">
        <ele>343.20001220703</ele>
        <time>2025-05-27T11:57:23.000Z</time>
      </trkpt>
      <trkpt lat="49.627" lon="5.51622">
        <ele>343.79998779297</ele>
        <time>2025-05-27T11:57:25.000Z</time>
      </trkpt>
      <trkpt lat="49.62683" lon="5.51616">
        <ele>342.79998779297</ele>
        <time>2025-05-27T11:57:30.000Z</time>
      </trkpt>
      <trkpt lat="49.62661" lon="5.51606">
        <ele>340.39999389648</ele>
        <time>2025-05-27T11:57:36.000Z</time>
      </trkpt>
      <trkpt lat="49.62659" lon="5.51605">
        <ele>340</ele>
        <time>2025-05-27T11:57:37.000Z</time>
      </trkpt>
      <trkpt lat="49.62649" lon="5.516">
        <ele>338.20001220703</ele>
        <time>2025-05-27T11:57:39.000Z</time>
      </trkpt>
      <trkpt lat="49.62637" lon="5.51592">
        <ele>336.60000610352</ele>
        <time>2025-05-27T11:57:42.000Z</time>
      </trkpt>
      <trkpt lat="49.62634" lon="5.5159">
        <ele>336.39999389648</ele>
        <time>2025-05-27T11:57:43.000Z</time>
      </trkpt>
      <trkpt lat="49.62608" lon="5.51576">
        <ele>334.20001220703</ele>
        <time>2025-05-27T11:57:50.000Z</time>
      </trkpt>
      <trkpt lat="49.62583" lon="5.51569">
        <ele>333.39999389648</ele>
        <time>2025-05-27T11:57:55.000Z</time>
      </trkpt>
      <trkpt lat="49.62577" lon="5.51568">
        <ele>333.79998779297</ele>
        <time>2025-05-27T11:57:56.000Z</time>
      </trkpt>
      <trkpt lat="49.62554" lon="5.51569">
        <ele>335.20001220703</ele>
        <time>2025-05-27T11:58:01.000Z</time>
      </trkpt>
      <trkpt lat="49.62538" lon="5.51574">
        <ele>336.20001220703</ele>
        <time>2025-05-27T11:58:05.000Z</time>
      </trkpt>
      <trkpt lat="49.62535" lon="5.51576">
        <ele>336.39999389648</ele>
        <time>2025-05-27T11:58:06.000Z</time>
      </trkpt>
      <trkpt lat="49.62513" lon="5.51583">
        <ele>337.39999389648</ele>
        <time>2025-05-27T11:58:12.000Z</time>
      </trkpt>
      <trkpt lat="49.62506" lon="5.51584">
        <ele>337.79998779297</ele>
        <time>2025-05-27T11:58:14.000Z</time>
      </trkpt>
      <trkpt lat="49.62494" lon="5.51587">
        <ele>337.39999389648</ele>
        <time>2025-05-27T11:58:18.000Z</time>
      </trkpt>
      <trkpt lat="49.62467" lon="5.51571">
        <ele>338.79998779297</ele>
        <time>2025-05-27T11:58:26.000Z</time>
      </trkpt>
      <trkpt lat="49.62455" lon="5.51567">
        <ele>339.39999389648</ele>
        <time>2025-05-27T11:58:30.000Z</time>
      </trkpt>
      <trkpt lat="49.6245" lon="5.51567">
        <ele>339</ele>
        <time>2025-05-27T11:58:32.000Z</time>
      </trkpt>
      <trkpt lat="49.62429" lon="5.5157">
        <ele>337</ele>
        <time>2025-05-27T11:58:36.000Z</time>
      </trkpt>
      <trkpt lat="49.62423" lon="5.51587">
        <ele>332.79998779297</ele>
        <time>2025-05-27T11:58:39.000Z</time>
      </trkpt>
      <trkpt lat="49.62423" lon="5.51593">
        <ele>332</ele>
        <time>2025-05-27T11:58:40.000Z</time>
      </trkpt>
      <trkpt lat="49.62422" lon="5.51599">
        <ele>331</ele>
        <time>2025-05-27T11:58:41.000Z</time>
      </trkpt>
      <trkpt lat="49.62421" lon="5.51611">
        <ele>329.20001220703</ele>
        <time>2025-05-27T11:58:43.000Z</time>
      </trkpt>
      <trkpt lat="49.62422" lon="5.51618">
        <ele>328.60000610352</ele>
        <time>2025-05-27T11:58:44.000Z</time>
      </trkpt>
      <trkpt lat="49.62422" lon="5.51623">
        <ele>328</ele>
        <time>2025-05-27T11:58:45.000Z</time>
      </trkpt>
      <trkpt lat="49.62422" lon="5.51635">
        <ele>326.79998779297</ele>
        <time>2025-05-27T11:58:47.000Z</time>
      </trkpt>
      <trkpt lat="49.62421" lon="5.51647">
        <ele>325.60000610352</ele>
        <time>2025-05-27T11:58:49.000Z</time>
      </trkpt>
      <trkpt lat="49.6242" lon="5.51653">
        <ele>325</ele>
        <time>2025-05-27T11:58:50.000Z</time>
      </trkpt>
      <trkpt lat="49.62419" lon="5.5166">
        <ele>324.39999389648</ele>
        <time>2025-05-27T11:58:51.000Z</time>
      </trkpt>
      <trkpt lat="49.62417" lon="5.51676">
        <ele>322.39999389648</ele>
        <time>2025-05-27T11:58:53.000Z</time>
      </trkpt>
      <trkpt lat="49.62414" lon="5.51684">
        <ele>321</ele>
        <time>2025-05-27T11:58:54.000Z</time>
      </trkpt>
      <trkpt lat="49.62411" lon="5.51693">
        <ele>319.60000610352</ele>
        <time>2025-05-27T11:58:55.000Z</time>
      </trkpt>
      <trkpt lat="49.62408" lon="5.51702">
        <ele>318.20001220703</ele>
        <time>2025-05-27T11:58:56.000Z</time>
      </trkpt>
      <trkpt lat="49.62404" lon="5.51722">
        <ele>315.79998779297</ele>
        <time>2025-05-27T11:58:58.000Z</time>
      </trkpt>
      <trkpt lat="49.624" lon="5.51744">
        <ele>313.39999389648</ele>
        <time>2025-05-27T11:59:00.000Z</time>
      </trkpt>
      <trkpt lat="49.62397" lon="5.51762">
        <ele>312</ele>
        <time>2025-05-27T11:59:02.000Z</time>
      </trkpt>
      <trkpt lat="49.62395" lon="5.5178">
        <ele>311.60000610352</ele>
        <time>2025-05-27T11:59:04.000Z</time>
      </trkpt>
      <trkpt lat="49.62395" lon="5.51789">
        <ele>311.39999389648</ele>
        <time>2025-05-27T11:59:05.000Z</time>
      </trkpt>
      <trkpt lat="49.62394" lon="5.51797">
        <ele>311.20001220703</ele>
        <time>2025-05-27T11:59:06.000Z</time>
      </trkpt>
      <trkpt lat="49.62389" lon="5.51821">
        <ele>309.60000610352</ele>
        <time>2025-05-27T11:59:09.000Z</time>
      </trkpt>
      <trkpt lat="49.62388" lon="5.51826">
        <ele>309</ele>
        <time>2025-05-27T11:59:10.000Z</time>
      </trkpt>
      <trkpt lat="49.62384" lon="5.51835">
        <ele>308.39999389648</ele>
        <time>2025-05-27T11:59:12.000Z</time>
      </trkpt>
      <trkpt lat="49.62378" lon="5.51845">
        <ele>307.60000610352</ele>
        <time>2025-05-27T11:59:14.000Z</time>
      </trkpt>
      <trkpt lat="49.62374" lon="5.5185">
        <ele>307.20001220703</ele>
        <time>2025-05-27T11:59:15.000Z</time>
      </trkpt>
      <trkpt lat="49.62371" lon="5.51856">
        <ele>306.60000610352</ele>
        <time>2025-05-27T11:59:16.000Z</time>
      </trkpt>
      <trkpt lat="49.62367" lon="5.5186">
        <ele>306.20001220703</ele>
        <time>2025-05-27T11:59:17.000Z</time>
      </trkpt>
      <trkpt lat="49.62363" lon="5.51865">
        <ele>305.79998779297</ele>
        <time>2025-05-27T11:59:18.000Z</time>
      </trkpt>
      <trkpt lat="49.62358" lon="5.51874">
        <ele>305.60000610352</ele>
        <time>2025-05-27T11:59:20.000Z</time>
      </trkpt>
      <trkpt lat="49.62353" lon="5.51887">
        <ele>305</ele>
        <time>2025-05-27T11:59:22.000Z</time>
      </trkpt>
      <trkpt lat="49.6235" lon="5.519">
        <ele>304.20001220703</ele>
        <time>2025-05-27T11:59:24.000Z</time>
      </trkpt>
      <trkpt lat="49.62349" lon="5.51907">
        <ele>303.79998779297</ele>
        <time>2025-05-27T11:59:25.000Z</time>
      </trkpt>
      <trkpt lat="49.62347" lon="5.51919">
        <ele>303</ele>
        <time>2025-05-27T11:59:27.000Z</time>
      </trkpt>
      <trkpt lat="49.62345" lon="5.51935">
        <ele>302.39999389648</ele>
        <time>2025-05-27T11:59:30.000Z</time>
      </trkpt>
      <trkpt lat="49.62343" lon="5.51944">
        <ele>302</ele>
        <time>2025-05-27T11:59:32.000Z</time>
      </trkpt>
      <trkpt lat="49.62337" lon="5.51957">
        <ele>301.60000610352</ele>
        <time>2025-05-27T11:59:36.000Z</time>
      </trkpt>
      <trkpt lat="49.62333" lon="5.51966">
        <ele>301.39999389648</ele>
        <time>2025-05-27T11:59:40.000Z</time>
      </trkpt>
      <trkpt lat="49.62333" lon="5.5197">
        <ele>301.20001220703</ele>
        <time>2025-05-27T11:59:41.000Z</time>
      </trkpt>
      <trkpt lat="49.62338" lon="5.5198">
        <ele>301</ele>
        <time>2025-05-27T11:59:46.000Z</time>
      </trkpt>
      <trkpt lat="49.62341" lon="5.51984">
        <ele>301.20001220703</ele>
        <time>2025-05-27T11:59:48.000Z</time>
      </trkpt>
      <trkpt lat="49.62341" lon="5.51985">
        <ele>301.20001220703</ele>
        <time>2025-05-27T12:00:06.000Z</time>
      </trkpt>
      <trkpt lat="49.62338" lon="5.51982">
        <ele>301</ele>
        <time>2025-05-27T12:00:07.000Z</time>
      </trkpt>
      <trkpt lat="49.6233" lon="5.5198">
        <ele>301.20001220703</ele>
        <time>2025-05-27T12:00:10.000Z</time>
      </trkpt>
      <trkpt lat="49.62325" lon="5.51981">
        <ele>301.39999389648</ele>
        <time>2025-05-27T12:00:12.000Z</time>
      </trkpt>
      <trkpt lat="49.62303" lon="5.51988">
        <ele>301.20001220703</ele>
        <time>2025-05-27T12:00:18.000Z</time>
      </trkpt>
      <trkpt lat="49.62274" lon="5.51989">
        <ele>301</ele>
        <time>2025-05-27T12:00:24.000Z</time>
      </trkpt>
      <trkpt lat="49.62259" lon="5.5199">
        <ele>300.60000610352</ele>
        <time>2025-05-27T12:00:27.000Z</time>
      </trkpt>
      <trkpt lat="49.62243" lon="5.51994">
        <ele>299.79998779297</ele>
        <time>2025-05-27T12:00:31.000Z</time>
      </trkpt>
      <trkpt lat="49.62231" lon="5.51995">
        <ele>299.39999389648</ele>
        <time>2025-05-27T12:00:34.000Z</time>
      </trkpt>
      <trkpt lat="49.62209" lon="5.52003">
        <ele>298.39999389648</ele>
        <time>2025-05-27T12:00:39.000Z</time>
      </trkpt>
      <trkpt lat="49.62196" lon="5.5201">
        <ele>298.39999389648</ele>
        <time>2025-05-27T12:00:42.000Z</time>
      </trkpt>
      <trkpt lat="49.62183" lon="5.5201">
        <ele>298.39999389648</ele>
        <time>2025-05-27T12:00:45.000Z</time>
      </trkpt>
      <trkpt lat="49.6216" lon="5.52">
        <ele>297.39999389648</ele>
        <time>2025-05-27T12:00:50.000Z</time>
      </trkpt>
      <trkpt lat="49.62152" lon="5.51998">
        <ele>296.79998779297</ele>
        <time>2025-05-27T12:00:52.000Z</time>
      </trkpt>
      <trkpt lat="49.6213" lon="5.51995">
        <ele>295.39999389648</ele>
        <time>2025-05-27T12:00:57.000Z</time>
      </trkpt>
      <trkpt lat="49.62124" lon="5.51995">
        <ele>295</ele>
        <time>2025-05-27T12:00:58.000Z</time>
      </trkpt>
      <trkpt lat="49.62119" lon="5.51995">
        <ele>294.60000610352</ele>
        <time>2025-05-27T12:00:59.000Z</time>
      </trkpt>
      <trkpt lat="49.62101" lon="5.51996">
        <ele>293.39999389648</ele>
        <time>2025-05-27T12:01:03.000Z</time>
      </trkpt>
      <trkpt lat="49.62093" lon="5.51996">
        <ele>292.79998779297</ele>
        <time>2025-05-27T12:01:05.000Z</time>
      </trkpt>
      <trkpt lat="49.62079" lon="5.51995">
        <ele>292.20001220703</ele>
        <time>2025-05-27T12:01:08.000Z</time>
      </trkpt>
      <trkpt lat="49.62065" lon="5.51994">
        <ele>291.60000610352</ele>
        <time>2025-05-27T12:01:11.000Z</time>
      </trkpt>
      <trkpt lat="49.62056" lon="5.51998">
        <ele>291.20001220703</ele>
        <time>2025-05-27T12:01:13.000Z</time>
      </trkpt>
      <trkpt lat="49.62046" lon="5.51999">
        <ele>290.20001220703</ele>
        <time>2025-05-27T12:01:15.000Z</time>
      </trkpt>
      <trkpt lat="49.62042" lon="5.51999">
        <ele>290</ele>
        <time>2025-05-27T12:01:16.000Z</time>
      </trkpt>
      <trkpt lat="49.62037" lon="5.51998">
        <ele>289.60000610352</ele>
        <time>2025-05-27T12:01:17.000Z</time>
      </trkpt>
      <trkpt lat="49.62033" lon="5.51999">
        <ele>289.20001220703</ele>
        <time>2025-05-27T12:01:18.000Z</time>
      </trkpt>
      <trkpt lat="49.62027" lon="5.52">
        <ele>289</ele>
        <time>2025-05-27T12:01:20.000Z</time>
      </trkpt>
      <trkpt lat="49.62011" lon="5.52004">
        <ele>288.20001220703</ele>
        <time>2025-05-27T12:01:26.000Z</time>
      </trkpt>
      <trkpt lat="49.62009" lon="5.52001">
        <ele>288.20001220703</ele>
        <time>2025-05-27T12:01:32.000Z</time>
      </trkpt>
      <trkpt lat="49.62008" lon="5.52002">
        <ele>288.20001220703</ele>
        <time>2025-05-27T12:01:33.000Z</time>
      </trkpt>
      <trkpt lat="49.61998" lon="5.52004">
        <ele>287.60000610352</ele>
        <time>2025-05-27T12:01:37.000Z</time>
      </trkpt>
      <trkpt lat="49.61994" lon="5.52004">
        <ele>287.20001220703</ele>
        <time>2025-05-27T12:01:38.000Z</time>
      </trkpt>
      <trkpt lat="49.61978" lon="5.52006">
        <ele>286.20001220703</ele>
        <time>2025-05-27T12:01:42.000Z</time>
      </trkpt>
      <trkpt lat="49.61968" lon="5.5201">
        <ele>286</ele>
        <time>2025-05-27T12:01:44.000Z</time>
      </trkpt>
      <trkpt lat="49.61954" lon="5.52017">
        <ele>285.60000610352</ele>
        <time>2025-05-27T12:01:47.000Z</time>
      </trkpt>
      <trkpt lat="49.61936" lon="5.52027">
        <ele>285.60000610352</ele>
        <time>2025-05-27T12:01:51.000Z</time>
      </trkpt>
      <trkpt lat="49.61918" lon="5.52043">
        <ele>285.60000610352</ele>
        <time>2025-05-27T12:01:55.000Z</time>
      </trkpt>
      <trkpt lat="49.61908" lon="5.52055">
        <ele>285.60000610352</ele>
        <time>2025-05-27T12:01:58.000Z</time>
      </trkpt>
      <trkpt lat="49.61896" lon="5.52069">
        <ele>285</ele>
        <time>2025-05-27T12:02:01.000Z</time>
      </trkpt>
      <trkpt lat="49.61884" lon="5.52086">
        <ele>283.39999389648</ele>
        <time>2025-05-27T12:02:04.000Z</time>
      </trkpt>
      <trkpt lat="49.61878" lon="5.52088">
        <ele>282.79998779297</ele>
        <time>2025-05-27T12:02:05.000Z</time>
      </trkpt>
      <trkpt lat="49.6186" lon="5.52092">
        <ele>281</ele>
        <time>2025-05-27T12:02:09.000Z</time>
      </trkpt>
      <trkpt lat="49.61856" lon="5.52091">
        <ele>280.39999389648</ele>
        <time>2025-05-27T12:02:10.000Z</time>
      </trkpt>
      <trkpt lat="49.61843" lon="5.52085">
        <ele>279</ele>
        <time>2025-05-27T12:02:14.000Z</time>
      </trkpt>
      <trkpt lat="49.6184" lon="5.52083">
        <ele>278.60000610352</ele>
        <time>2025-05-27T12:02:15.000Z</time>
      </trkpt>
      <trkpt lat="49.61831" lon="5.52078">
        <ele>277.39999389648</ele>
        <time>2025-05-27T12:02:18.000Z</time>
      </trkpt>
      <trkpt lat="49.61821" lon="5.52068">
        <ele>276.20001220703</ele>
        <time>2025-05-27T12:02:21.000Z</time>
      </trkpt>
      <trkpt lat="49.61807" lon="5.52054">
        <ele>274.79998779297</ele>
        <time>2025-05-27T12:02:25.000Z</time>
      </trkpt>
      <trkpt lat="49.61804" lon="5.52049">
        <ele>274</ele>
        <time>2025-05-27T12:02:26.000Z</time>
      </trkpt>
      <trkpt lat="49.61784" lon="5.52011">
        <ele>269.60000610352</ele>
        <time>2025-05-27T12:02:32.000Z</time>
      </trkpt>
      <trkpt lat="49.61775" lon="5.51994">
        <ele>269</ele>
        <time>2025-05-27T12:02:34.000Z</time>
      </trkpt>
      <trkpt lat="49.61772" lon="5.51986">
        <ele>269.20001220703</ele>
        <time>2025-05-27T12:02:35.000Z</time>
      </trkpt>
      <trkpt lat="49.61761" lon="5.51962">
        <ele>268.79998779297</ele>
        <time>2025-05-27T12:02:38.000Z</time>
      </trkpt>
      <trkpt lat="49.61738" lon="5.51925">
        <ele>270.20001220703</ele>
        <time>2025-05-27T12:02:44.000Z</time>
      </trkpt>
      <trkpt lat="49.61735" lon="5.5192">
        <ele>270.60000610352</ele>
        <time>2025-05-27T12:02:45.000Z</time>
      </trkpt>
      <trkpt lat="49.61712" lon="5.519">
        <ele>274.39999389648</ele>
        <time>2025-05-27T12:02:49.000Z</time>
      </trkpt>
      <trkpt lat="49.617" lon="5.51896">
        <ele>276.79998779297</ele>
        <time>2025-05-27T12:02:51.000Z</time>
      </trkpt>
      <trkpt lat="49.61683" lon="5.51894">
        <ele>278.39999389648</ele>
        <time>2025-05-27T12:02:55.000Z</time>
      </trkpt>
      <trkpt lat="49.61671" lon="5.51894">
        <ele>279.20001220703</ele>
        <time>2025-05-27T12:02:58.000Z</time>
      </trkpt>
      <trkpt lat="49.61658" lon="5.51897">
        <ele>280.20001220703</ele>
        <time>2025-05-27T12:03:02.000Z</time>
      </trkpt>
      <trkpt lat="49.61654" lon="5.51897">
        <ele>280.39999389648</ele>
        <time>2025-05-27T12:03:03.000Z</time>
      </trkpt>
      <trkpt lat="49.61645" lon="5.51899">
        <ele>281.20001220703</ele>
        <time>2025-05-27T12:03:06.000Z</time>
      </trkpt>
      <trkpt lat="49.61642" lon="5.51899">
        <ele>281.39999389648</ele>
        <time>2025-05-27T12:03:07.000Z</time>
      </trkpt>
      <trkpt lat="49.61636" lon="5.51899">
        <ele>281.79998779297</ele>
        <time>2025-05-27T12:03:09.000Z</time>
      </trkpt>
      <trkpt lat="49.61628" lon="5.519">
        <ele>282.39999389648</ele>
        <time>2025-05-27T12:03:12.000Z</time>
      </trkpt>
      <trkpt lat="49.61617" lon="5.51902">
        <ele>283</ele>
        <time>2025-05-27T12:03:15.000Z</time>
      </trkpt>
      <trkpt lat="49.61613" lon="5.51901">
        <ele>283</ele>
        <time>2025-05-27T12:03:16.000Z</time>
      </trkpt>
      <trkpt lat="49.61602" lon="5.51902">
        <ele>283.39999389648</ele>
        <time>2025-05-27T12:03:19.000Z</time>
      </trkpt>
      <trkpt lat="49.61596" lon="5.51903">
        <ele>283.39999389648</ele>
        <time>2025-05-27T12:03:21.000Z</time>
      </trkpt>
      <trkpt lat="49.61593" lon="5.51903">
        <ele>283.20001220703</ele>
        <time>2025-05-27T12:03:22.000Z</time>
      </trkpt>
      <trkpt lat="49.61582" lon="5.51903">
        <ele>283.60000610352</ele>
        <time>2025-05-27T12:03:25.000Z</time>
      </trkpt>
      <trkpt lat="49.61571" lon="5.519">
        <ele>285</ele>
        <time>2025-05-27T12:03:28.000Z</time>
      </trkpt>
      <trkpt lat="49.61561" lon="5.51898">
        <ele>286</ele>
        <time>2025-05-27T12:03:30.000Z</time>
      </trkpt>
      <trkpt lat="49.6154" lon="5.51897">
        <ele>287.79998779297</ele>
        <time>2025-05-27T12:03:35.000Z</time>
      </trkpt>
      <trkpt lat="49.61525" lon="5.51899">
        <ele>289</ele>
        <time>2025-05-27T12:03:39.000Z</time>
      </trkpt>
      <trkpt lat="49.61514" lon="5.51899">
        <ele>289</ele>
        <time>2025-05-27T12:03:42.000Z</time>
      </trkpt>
      <trkpt lat="49.61501" lon="5.51896">
        <ele>289.39999389648</ele>
        <time>2025-05-27T12:03:46.000Z</time>
      </trkpt>
      <trkpt lat="49.61493" lon="5.51894">
        <ele>289.39999389648</ele>
        <time>2025-05-27T12:03:48.000Z</time>
      </trkpt>
      <trkpt lat="49.61485" lon="5.51892">
        <ele>289.20001220703</ele>
        <time>2025-05-27T12:03:50.000Z</time>
      </trkpt>
      <trkpt lat="49.61475" lon="5.51887">
        <ele>289.20001220703</ele>
        <time>2025-05-27T12:03:53.000Z</time>
      </trkpt>
      <trkpt lat="49.61468" lon="5.51883">
        <ele>289.60000610352</ele>
        <time>2025-05-27T12:03:55.000Z</time>
      </trkpt>
      <trkpt lat="49.61462" lon="5.51875">
        <ele>290</ele>
        <time>2025-05-27T12:03:57.000Z</time>
      </trkpt>
      <trkpt lat="49.61454" lon="5.51862">
        <ele>291</ele>
        <time>2025-05-27T12:04:00.000Z</time>
      </trkpt>
      <trkpt lat="49.6145" lon="5.51852">
        <ele>292.39999389648</ele>
        <time>2025-05-27T12:04:02.000Z</time>
      </trkpt>
      <trkpt lat="49.6145" lon="5.51847">
        <ele>293.20001220703</ele>
        <time>2025-05-27T12:04:04.000Z</time>
      </trkpt>
      <trkpt lat="49.6145" lon="5.51843">
        <ele>293.60000610352</ele>
        <time>2025-05-27T12:04:05.000Z</time>
      </trkpt>
      <trkpt lat="49.6145" lon="5.51838">
        <ele>294.39999389648</ele>
        <time>2025-05-27T12:04:07.000Z</time>
      </trkpt>
      <trkpt lat="49.61456" lon="5.51831">
        <ele>295.20001220703</ele>
        <time>2025-05-27T12:04:11.000Z</time>
      </trkpt>
      <trkpt lat="49.61458" lon="5.51829">
        <ele>295.60000610352</ele>
        <time>2025-05-27T12:04:12.000Z</time>
      </trkpt>
      <trkpt lat="49.61466" lon="5.51822">
        <ele>296.79998779297</ele>
        <time>2025-05-27T12:04:16.000Z</time>
      </trkpt>
      <trkpt lat="49.61471" lon="5.51817">
        <ele>297.39999389648</ele>
        <time>2025-05-27T12:04:18.000Z</time>
      </trkpt>
      <trkpt lat="49.61473" lon="5.51814">
        <ele>297.60000610352</ele>
        <time>2025-05-27T12:04:19.000Z</time>
      </trkpt>
      <trkpt lat="49.61479" lon="5.51805">
        <ele>299</ele>
        <time>2025-05-27T12:04:22.000Z</time>
      </trkpt>
      <trkpt lat="49.61485" lon="5.51795">
        <ele>300.39999389648</ele>
        <time>2025-05-27T12:04:25.000Z</time>
      </trkpt>
      <trkpt lat="49.61488" lon="5.51787">
        <ele>301.20001220703</ele>
        <time>2025-05-27T12:04:27.000Z</time>
      </trkpt>
      <trkpt lat="49.61494" lon="5.51768">
        <ele>302.39999389648</ele>
        <time>2025-05-27T12:04:31.000Z</time>
      </trkpt>
      <trkpt lat="49.61496" lon="5.51751">
        <ele>304.20001220703</ele>
        <time>2025-05-27T12:04:35.000Z</time>
      </trkpt>
      <trkpt lat="49.61496" lon="5.51748">
        <ele>304.79998779297</ele>
        <time>2025-05-27T12:04:36.000Z</time>
      </trkpt>
      <trkpt lat="49.61496" lon="5.5174">
        <ele>306</ele>
        <time>2025-05-27T12:04:38.000Z</time>
      </trkpt>
      <trkpt lat="49.61497" lon="5.5173">
        <ele>306.79998779297</ele>
        <time>2025-05-27T12:04:41.000Z</time>
      </trkpt>
      <trkpt lat="49.61498" lon="5.51723">
        <ele>307.60000610352</ele>
        <time>2025-05-27T12:04:43.000Z</time>
      </trkpt>
      <trkpt lat="49.61498" lon="5.5172">
        <ele>308</ele>
        <time>2025-05-27T12:04:44.000Z</time>
      </trkpt>
      <trkpt lat="49.615" lon="5.51711">
        <ele>308.79998779297</ele>
        <time>2025-05-27T12:04:47.000Z</time>
      </trkpt>
      <trkpt lat="49.61502" lon="5.51703">
        <ele>309.39999389648</ele>
        <time>2025-05-27T12:04:49.000Z</time>
      </trkpt>
      <trkpt lat="49.61503" lon="5.51701">
        <ele>309.39999389648</ele>
        <time>2025-05-27T12:04:50.000Z</time>
      </trkpt>
      <trkpt lat="49.61505" lon="5.51689">
        <ele>310</ele>
        <time>2025-05-27T12:04:53.000Z</time>
      </trkpt>
      <trkpt lat="49.61509" lon="5.51676">
        <ele>310.39999389648</ele>
        <time>2025-05-27T12:04:56.000Z</time>
      </trkpt>
      <trkpt lat="49.61512" lon="5.51666">
        <ele>310.60000610352</ele>
        <time>2025-05-27T12:04:58.000Z</time>
      </trkpt>
      <trkpt lat="49.61513" lon="5.51645">
        <ele>311.79998779297</ele>
        <time>2025-05-27T12:05:02.000Z</time>
      </trkpt>
      <trkpt lat="49.6151" lon="5.51611">
        <ele>313</ele>
        <time>2025-05-27T12:05:09.000Z</time>
      </trkpt>
      <trkpt lat="49.61506" lon="5.51584">
        <ele>313.60000610352</ele>
        <time>2025-05-27T12:05:13.000Z</time>
      </trkpt>
      <trkpt lat="49.61502" lon="5.51571">
        <ele>314</ele>
        <time>2025-05-27T12:05:15.000Z</time>
      </trkpt>
      <trkpt lat="49.61495" lon="5.51528">
        <ele>313.60000610352</ele>
        <time>2025-05-27T12:05:22.000Z</time>
      </trkpt>
      <trkpt lat="49.61479" lon="5.51488">
        <ele>311.79998779297</ele>
        <time>2025-05-27T12:05:27.000Z</time>
      </trkpt>
      <trkpt lat="49.61457" lon="5.51455">
        <ele>310.39999389648</ele>
        <time>2025-05-27T12:05:33.000Z</time>
      </trkpt>
      <trkpt lat="49.61454" lon="5.51452">
        <ele>310.20001220703</ele>
        <time>2025-05-27T12:05:34.000Z</time>
      </trkpt>
      <trkpt lat="49.61444" lon="5.51438">
        <ele>309.20001220703</ele>
        <time>2025-05-27T12:05:38.000Z</time>
      </trkpt>
      <trkpt lat="49.61441" lon="5.51435">
        <ele>308.79998779297</ele>
        <time>2025-05-27T12:05:39.000Z</time>
      </trkpt>
      <trkpt lat="49.61433" lon="5.51424">
        <ele>307.60000610352</ele>
        <time>2025-05-27T12:05:42.000Z</time>
      </trkpt>
      <trkpt lat="49.61427" lon="5.51415">
        <ele>306.20001220703</ele>
        <time>2025-05-27T12:05:44.000Z</time>
      </trkpt>
      <trkpt lat="49.61423" lon="5.51409">
        <ele>305</ele>
        <time>2025-05-27T12:05:45.000Z</time>
      </trkpt>
      <trkpt lat="49.6142" lon="5.51406">
        <ele>304.39999389648</ele>
        <time>2025-05-27T12:05:46.000Z</time>
      </trkpt>
      <trkpt lat="49.61414" lon="5.51396">
        <ele>303.20001220703</ele>
        <time>2025-05-27T12:05:48.000Z</time>
      </trkpt>
      <trkpt lat="49.61409" lon="5.51385">
        <ele>302</ele>
        <time>2025-05-27T12:05:50.000Z</time>
      </trkpt>
      <trkpt lat="49.61407" lon="5.5138">
        <ele>301.39999389648</ele>
        <time>2025-05-27T12:05:51.000Z</time>
      </trkpt>
      <trkpt lat="49.61405" lon="5.51373">
        <ele>300.79998779297</ele>
        <time>2025-05-27T12:05:52.000Z</time>
      </trkpt>
      <trkpt lat="49.61402" lon="5.51357">
        <ele>299.20001220703</ele>
        <time>2025-05-27T12:05:54.000Z</time>
      </trkpt>
      <trkpt lat="49.61401" lon="5.51349">
        <ele>298.79998779297</ele>
        <time>2025-05-27T12:05:55.000Z</time>
      </trkpt>
      <trkpt lat="49.614" lon="5.51338">
        <ele>298.20001220703</ele>
        <time>2025-05-27T12:05:56.000Z</time>
      </trkpt>
      <trkpt lat="49.61399" lon="5.51315">
        <ele>296</ele>
        <time>2025-05-27T12:05:58.000Z</time>
      </trkpt>
      <trkpt lat="49.61397" lon="5.51288">
        <ele>294</ele>
        <time>2025-05-27T12:06:00.000Z</time>
      </trkpt>
      <trkpt lat="49.61399" lon="5.51266">
        <ele>292</ele>
        <time>2025-05-27T12:06:02.000Z</time>
      </trkpt>
      <trkpt lat="49.614" lon="5.5124">
        <ele>289.20001220703</ele>
        <time>2025-05-27T12:06:04.000Z</time>
      </trkpt>
      <trkpt lat="49.61402" lon="5.51217">
        <ele>287</ele>
        <time>2025-05-27T12:06:06.000Z</time>
      </trkpt>
      <trkpt lat="49.61403" lon="5.51205">
        <ele>286.20001220703</ele>
        <time>2025-05-27T12:06:07.000Z</time>
      </trkpt>
      <trkpt lat="49.61404" lon="5.51192">
        <ele>284.79998779297</ele>
        <time>2025-05-27T12:06:08.000Z</time>
      </trkpt>
      <trkpt lat="49.61405" lon="5.51178">
        <ele>283.79998779297</ele>
        <time>2025-05-27T12:06:09.000Z</time>
      </trkpt>
      <trkpt lat="49.61405" lon="5.51165">
        <ele>282.79998779297</ele>
        <time>2025-05-27T12:06:10.000Z</time>
      </trkpt>
      <trkpt lat="49.61407" lon="5.51139">
        <ele>281.60000610352</ele>
        <time>2025-05-27T12:06:12.000Z</time>
      </trkpt>
      <trkpt lat="49.61409" lon="5.51127">
        <ele>281</ele>
        <time>2025-05-27T12:06:13.000Z</time>
      </trkpt>
      <trkpt lat="49.6141" lon="5.51114">
        <ele>279.60000610352</ele>
        <time>2025-05-27T12:06:14.000Z</time>
      </trkpt>
      <trkpt lat="49.61411" lon="5.51103">
        <ele>279</ele>
        <time>2025-05-27T12:06:15.000Z</time>
      </trkpt>
      <trkpt lat="49.61413" lon="5.51092">
        <ele>277.60000610352</ele>
        <time>2025-05-27T12:06:16.000Z</time>
      </trkpt>
      <trkpt lat="49.61414" lon="5.51083">
        <ele>276.60000610352</ele>
        <time>2025-05-27T12:06:17.000Z</time>
      </trkpt>
      <trkpt lat="49.61416" lon="5.51075">
        <ele>275.79998779297</ele>
        <time>2025-05-27T12:06:18.000Z</time>
      </trkpt>
      <trkpt lat="49.61417" lon="5.51069">
        <ele>275</ele>
        <time>2025-05-27T12:06:19.000Z</time>
      </trkpt>
      <trkpt lat="49.61419" lon="5.51062">
        <ele>273.79998779297</ele>
        <time>2025-05-27T12:06:21.000Z</time>
      </trkpt>
      <trkpt lat="49.61422" lon="5.51063">
        <ele>273.60000610352</ele>
        <time>2025-05-27T12:06:23.000Z</time>
      </trkpt>
      <trkpt lat="49.61427" lon="5.51065">
        <ele>273.60000610352</ele>
        <time>2025-05-27T12:06:25.000Z</time>
      </trkpt>
      <trkpt lat="49.6143" lon="5.51067">
        <ele>273.60000610352</ele>
        <time>2025-05-27T12:06:26.000Z</time>
      </trkpt>
      <trkpt lat="49.61443" lon="5.51077">
        <ele>273.39999389648</ele>
        <time>2025-05-27T12:06:30.000Z</time>
      </trkpt>
      <trkpt lat="49.61451" lon="5.51083">
        <ele>273</ele>
        <time>2025-05-27T12:06:32.000Z</time>
      </trkpt>
      <trkpt lat="49.61466" lon="5.51093">
        <ele>270.39999389648</ele>
        <time>2025-05-27T12:06:35.000Z</time>
      </trkpt>
      <trkpt lat="49.6147" lon="5.51095">
        <ele>269.39999389648</ele>
        <time>2025-05-27T12:06:36.000Z</time>
      </trkpt>
      <trkpt lat="49.6148" lon="5.51097">
        <ele>267.39999389648</ele>
        <time>2025-05-27T12:06:38.000Z</time>
      </trkpt>
      <trkpt lat="49.61484" lon="5.51096">
        <ele>266.20001220703</ele>
        <time>2025-05-27T12:06:39.000Z</time>
      </trkpt>
      <trkpt lat="49.61491" lon="5.51089">
        <ele>264.20001220703</ele>
        <time>2025-05-27T12:06:41.000Z</time>
      </trkpt>
      <trkpt lat="49.61492" lon="5.51084">
        <ele>263.39999389648</ele>
        <time>2025-05-27T12:06:42.000Z</time>
      </trkpt>
      <trkpt lat="49.61491" lon="5.51067">
        <ele>262</ele>
        <time>2025-05-27T12:06:45.000Z</time>
      </trkpt>
      <trkpt lat="49.6149" lon="5.51061">
        <ele>261.79998779297</ele>
        <time>2025-05-27T12:06:46.000Z</time>
      </trkpt>
      <trkpt lat="49.6148" lon="5.51026">
        <ele>262.60000610352</ele>
        <time>2025-05-27T12:06:52.000Z</time>
      </trkpt>
      <trkpt lat="49.61478" lon="5.51021">
        <ele>262.79998779297</ele>
        <time>2025-05-27T12:06:53.000Z</time>
      </trkpt>
      <trkpt lat="49.61468" lon="5.5099">
        <ele>263.60000610352</ele>
        <time>2025-05-27T12:06:58.000Z</time>
      </trkpt>
      <trkpt lat="49.61468" lon="5.50983">
        <ele>264.39999389648</ele>
        <time>2025-05-27T12:06:59.000Z</time>
      </trkpt>
      <trkpt lat="49.6147" lon="5.50971">
        <ele>265.60000610352</ele>
        <time>2025-05-27T12:07:01.000Z</time>
      </trkpt>
      <trkpt lat="49.61476" lon="5.50972">
        <ele>266</ele>
        <time>2025-05-27T12:07:04.000Z</time>
      </trkpt>
      <trkpt lat="49.61478" lon="5.50974">
        <ele>265.79998779297</ele>
        <time>2025-05-27T12:07:05.000Z</time>
      </trkpt>
      <trkpt lat="49.61494" lon="5.50986">
        <ele>264.20001220703</ele>
        <time>2025-05-27T12:07:10.000Z</time>
      </trkpt>
      <trkpt lat="49.61508" lon="5.50985">
        <ele>264.60000610352</ele>
        <time>2025-05-27T12:07:14.000Z</time>
      </trkpt>
      <trkpt lat="49.61522" lon="5.50979">
        <ele>265.20001220703</ele>
        <time>2025-05-27T12:07:19.000Z</time>
      </trkpt>
      <trkpt lat="49.61532" lon="5.50973">
        <ele>265.79998779297</ele>
        <time>2025-05-27T12:07:23.000Z</time>
      </trkpt>
      <trkpt lat="49.61537" lon="5.50968">
        <ele>266.39999389648</ele>
        <time>2025-05-27T12:07:25.000Z</time>
      </trkpt>
      <trkpt lat="49.61542" lon="5.50963">
        <ele>266.79998779297</ele>
        <time>2025-05-27T12:07:27.000Z</time>
      </trkpt>
      <trkpt lat="49.61553" lon="5.5095">
        <ele>267.39999389648</ele>
        <time>2025-05-27T12:07:31.000Z</time>
      </trkpt>
      <trkpt lat="49.6157" lon="5.50922">
        <ele>269.79998779297</ele>
        <time>2025-05-27T12:07:38.000Z</time>
      </trkpt>
      <trkpt lat="49.61586" lon="5.509">
        <ele>271.60000610352</ele>
        <time>2025-05-27T12:07:45.000Z</time>
      </trkpt>
      <trkpt lat="49.61599" lon="5.50886">
        <ele>274.20001220703</ele>
        <time>2025-05-27T12:07:50.000Z</time>
      </trkpt>
      <trkpt lat="49.61607" lon="5.5088">
        <ele>275.39999389648</ele>
        <time>2025-05-27T12:07:53.000Z</time>
      </trkpt>
      <trkpt lat="49.61612" lon="5.50876">
        <ele>275.20001220703</ele>
        <time>2025-05-27T12:07:56.000Z</time>
      </trkpt>
      <trkpt lat="49.61619" lon="5.50867">
        <ele>275.79998779297</ele>
        <time>2025-05-27T12:08:02.000Z</time>
      </trkpt>
      <trkpt lat="49.61624" lon="5.50862">
        <ele>275.60000610352</ele>
        <time>2025-05-27T12:08:05.000Z</time>
      </trkpt>
      <trkpt lat="49.61632" lon="5.50854">
        <ele>275.20001220703</ele>
        <time>2025-05-27T12:08:09.000Z</time>
      </trkpt>
      <trkpt lat="49.61636" lon="5.5085">
        <ele>275.20001220703</ele>
        <time>2025-05-27T12:08:11.000Z</time>
      </trkpt>
      <trkpt lat="49.61639" lon="5.50848">
        <ele>275</ele>
        <time>2025-05-27T12:08:12.000Z</time>
      </trkpt>
      <trkpt lat="49.61654" lon="5.50839">
        <ele>274.39999389648</ele>
        <time>2025-05-27T12:08:17.000Z</time>
      </trkpt>
      <trkpt lat="49.61676" lon="5.50828">
        <ele>274.20001220703</ele>
        <time>2025-05-27T12:08:24.000Z</time>
      </trkpt>
      <trkpt lat="49.61696" lon="5.50818">
        <ele>276.20001220703</ele>
        <time>2025-05-27T12:08:31.000Z</time>
      </trkpt>
      <trkpt lat="49.617" lon="5.50812">
        <ele>276.60000610352</ele>
        <time>2025-05-27T12:09:28.000Z</time>
      </trkpt>
      <trkpt lat="49.61701" lon="5.5081">
        <ele>276.60000610352</ele>
        <time>2025-05-27T12:09:29.000Z</time>
      </trkpt>
      <trkpt lat="49.61707" lon="5.50802">
        <ele>277.20001220703</ele>
        <time>2025-05-27T12:09:33.000Z</time>
      </trkpt>
      <trkpt lat="49.6171" lon="5.50798">
        <ele>277.60000610352</ele>
        <time>2025-05-27T12:09:35.000Z</time>
      </trkpt>
      <trkpt lat="49.61722" lon="5.50786">
        <ele>277.79998779297</ele>
        <time>2025-05-27T12:09:41.000Z</time>
      </trkpt>
      <trkpt lat="49.61724" lon="5.50783">
        <ele>277.79998779297</ele>
        <time>2025-05-27T12:09:42.000Z</time>
      </trkpt>
      <trkpt lat="49.61728" lon="5.50767">
        <ele>278.60000610352</ele>
        <time>2025-05-27T12:09:47.000Z</time>
      </trkpt>
      <trkpt lat="49.61728" lon="5.50764">
        <ele>278.79998779297</ele>
        <time>2025-05-27T12:09:48.000Z</time>
      </trkpt>
      <trkpt lat="49.61732" lon="5.50753">
        <ele>279.60000610352</ele>
        <time>2025-05-27T12:09:52.000Z</time>
      </trkpt>
      <trkpt lat="49.61734" lon="5.50747">
        <ele>280</ele>
        <time>2025-05-27T12:09:54.000Z</time>
      </trkpt>
      <trkpt lat="49.61736" lon="5.50741">
        <ele>280.39999389648</ele>
        <time>2025-05-27T12:09:56.000Z</time>
      </trkpt>
      <trkpt lat="49.61742" lon="5.50727">
        <ele>281.20001220703</ele>
        <time>2025-05-27T12:10:01.000Z</time>
      </trkpt>
      <trkpt lat="49.61744" lon="5.50721">
        <ele>281.39999389648</ele>
        <time>2025-05-27T12:10:03.000Z</time>
      </trkpt>
      <trkpt lat="49.61746" lon="5.50714">
        <ele>281.79998779297</ele>
        <time>2025-05-27T12:10:05.000Z</time>
      </trkpt>
      <trkpt lat="49.61746" lon="5.50711">
        <ele>281.79998779297</ele>
        <time>2025-05-27T12:10:06.000Z</time>
      </trkpt>
      <trkpt lat="49.6175" lon="5.507">
        <ele>282</ele>
        <time>2025-05-27T12:10:10.000Z</time>
      </trkpt>
      <trkpt lat="49.61753" lon="5.50694">
        <ele>282</ele>
        <time>2025-05-27T12:10:12.000Z</time>
      </trkpt>
      <trkpt lat="49.61758" lon="5.50687">
        <ele>283.20001220703</ele>
        <time>2025-05-27T12:10:15.000Z</time>
      </trkpt>
      <trkpt lat="49.61763" lon="5.50679">
        <ele>284.39999389648</ele>
        <time>2025-05-27T12:10:18.000Z</time>
      </trkpt>
      <trkpt lat="49.61766" lon="5.50669">
        <ele>284.79998779297</ele>
        <time>2025-05-27T12:10:21.000Z</time>
      </trkpt>
      <trkpt lat="49.61769" lon="5.50657">
        <ele>285</ele>
        <time>2025-05-27T12:10:24.000Z</time>
      </trkpt>
      <trkpt lat="49.61772" lon="5.50642">
        <ele>284.79998779297</ele>
        <time>2025-05-27T12:10:27.000Z</time>
      </trkpt>
      <trkpt lat="49.61774" lon="5.50623">
        <ele>284.39999389648</ele>
        <time>2025-05-27T12:10:31.000Z</time>
      </trkpt>
      <trkpt lat="49.6178" lon="5.50599">
        <ele>283.60000610352</ele>
        <time>2025-05-27T12:10:37.000Z</time>
      </trkpt>
      <trkpt lat="49.61781" lon="5.50595">
        <ele>283.39999389648</ele>
        <time>2025-05-27T12:10:38.000Z</time>
      </trkpt>
      <trkpt lat="49.6179" lon="5.50572">
        <ele>285.20001220703</ele>
        <time>2025-05-27T12:10:43.000Z</time>
      </trkpt>
      <trkpt lat="49.61792" lon="5.50565">
        <ele>285.79998779297</ele>
        <time>2025-05-27T12:10:45.000Z</time>
      </trkpt>
      <trkpt lat="49.61799" lon="5.50547">
        <ele>286.20001220703</ele>
        <time>2025-05-27T12:10:51.000Z</time>
      </trkpt>
      <trkpt lat="49.61799" lon="5.50544">
        <ele>286.39999389648</ele>
        <time>2025-05-27T12:10:52.000Z</time>
      </trkpt>
      <trkpt lat="49.61799" lon="5.50531">
        <ele>286.79998779297</ele>
        <time>2025-05-27T12:10:57.000Z</time>
      </trkpt>
      <trkpt lat="49.61799" lon="5.50528">
        <ele>287</ele>
        <time>2025-05-27T12:10:58.000Z</time>
      </trkpt>
      <trkpt lat="49.618" lon="5.50511">
        <ele>287.60000610352</ele>
        <time>2025-05-27T12:11:04.000Z</time>
      </trkpt>
      <trkpt lat="49.61797" lon="5.50498">
        <ele>287.79998779297</ele>
        <time>2025-05-27T12:11:08.000Z</time>
      </trkpt>
      <trkpt lat="49.61794" lon="5.50491">
        <ele>288.20001220703</ele>
        <time>2025-05-27T12:11:10.000Z</time>
      </trkpt>
      <trkpt lat="49.61793" lon="5.50488">
        <ele>288.20001220703</ele>
        <time>2025-05-27T12:11:11.000Z</time>
      </trkpt>
      <trkpt lat="49.6179" lon="5.50483">
        <ele>288.60000610352</ele>
        <time>2025-05-27T12:11:13.000Z</time>
      </trkpt>
      <trkpt lat="49.61785" lon="5.5047">
        <ele>289.39999389648</ele>
        <time>2025-05-27T12:11:18.000Z</time>
      </trkpt>
      <trkpt lat="49.61783" lon="5.50467">
        <ele>289.60000610352</ele>
        <time>2025-05-27T12:11:19.000Z</time>
      </trkpt>
      <trkpt lat="49.61778" lon="5.50428">
        <ele>292.60000610352</ele>
        <time>2025-05-27T12:11:31.000Z</time>
      </trkpt>
      <trkpt lat="49.61772" lon="5.50415">
        <ele>293.79998779297</ele>
        <time>2025-05-27T12:11:34.000Z</time>
      </trkpt>
      <trkpt lat="49.61769" lon="5.50409">
        <ele>294.60000610352</ele>
        <time>2025-05-27T12:11:36.000Z</time>
      </trkpt>
      <trkpt lat="49.61764" lon="5.50393">
        <ele>297.20001220703</ele>
        <time>2025-05-27T12:11:40.000Z</time>
      </trkpt>
      <trkpt lat="49.61763" lon="5.50389">
        <ele>297.60000610352</ele>
        <time>2025-05-27T12:11:41.000Z</time>
      </trkpt>
      <trkpt lat="49.6176" lon="5.50379">
        <ele>299</ele>
        <time>2025-05-27T12:11:44.000Z</time>
      </trkpt>
      <trkpt lat="49.61757" lon="5.5037">
        <ele>300</ele>
        <time>2025-05-27T12:11:47.000Z</time>
      </trkpt>
      <trkpt lat="49.61754" lon="5.50363">
        <ele>300.79998779297</ele>
        <time>2025-05-27T12:11:49.000Z</time>
      </trkpt>
      <trkpt lat="49.61749" lon="5.50357">
        <ele>301.60000610352</ele>
        <time>2025-05-27T12:11:51.000Z</time>
      </trkpt>
      <trkpt lat="49.61746" lon="5.50354">
        <ele>302</ele>
        <time>2025-05-27T12:11:52.000Z</time>
      </trkpt>
      <trkpt lat="49.61736" lon="5.50344">
        <ele>303.60000610352</ele>
        <time>2025-05-27T12:11:55.000Z</time>
      </trkpt>
      <trkpt lat="49.61719" lon="5.50336">
        <ele>305.60000610352</ele>
        <time>2025-05-27T12:11:59.000Z</time>
      </trkpt>
      <trkpt lat="49.61709" lon="5.50335">
        <ele>307</ele>
        <time>2025-05-27T12:12:03.000Z</time>
      </trkpt>
      <trkpt lat="49.61703" lon="5.50336">
        <ele>307.79998779297</ele>
        <time>2025-05-27T12:12:06.000Z</time>
      </trkpt>
      <trkpt lat="49.61701" lon="5.50336">
        <ele>308.20001220703</ele>
        <time>2025-05-27T12:12:07.000Z</time>
      </trkpt>
      <trkpt lat="49.61695" lon="5.50336">
        <ele>309</ele>
        <time>2025-05-27T12:12:10.000Z</time>
      </trkpt>
      <trkpt lat="49.61691" lon="5.50339">
        <ele>309.60000610352</ele>
        <time>2025-05-27T12:12:13.000Z</time>
      </trkpt>
      <trkpt lat="49.6168" lon="5.50338">
        <ele>312</ele>
        <time>2025-05-27T12:12:17.000Z</time>
      </trkpt>
      <trkpt lat="49.61674" lon="5.50338">
        <ele>313.20001220703</ele>
        <time>2025-05-27T12:12:19.000Z</time>
      </trkpt>
      <trkpt lat="49.61667" lon="5.50339">
        <ele>314.79998779297</ele>
        <time>2025-05-27T12:12:21.000Z</time>
      </trkpt>
      <trkpt lat="49.61651" lon="5.50343">
        <ele>316.60000610352</ele>
        <time>2025-05-27T12:12:26.000Z</time>
      </trkpt>
      <trkpt lat="49.61639" lon="5.50345">
        <ele>318.20001220703</ele>
        <time>2025-05-27T12:12:31.000Z</time>
      </trkpt>
      <trkpt lat="49.61636" lon="5.50344">
        <ele>318.20001220703</ele>
        <time>2025-05-27T12:12:32.000Z</time>
      </trkpt>
      <trkpt lat="49.61622" lon="5.50341">
        <ele>318.39999389648</ele>
        <time>2025-05-27T12:12:39.000Z</time>
      </trkpt>
      <trkpt lat="49.61613" lon="5.50335">
        <ele>318.79998779297</ele>
        <time>2025-05-27T12:12:44.000Z</time>
      </trkpt>
      <trkpt lat="49.6161" lon="5.50333">
        <ele>318.79998779297</ele>
        <time>2025-05-27T12:12:45.000Z</time>
      </trkpt>
      <trkpt lat="49.61603" lon="5.50322">
        <ele>319</ele>
        <time>2025-05-27T12:12:48.000Z</time>
      </trkpt>
      <trkpt lat="49.61598" lon="5.5031">
        <ele>319.79998779297</ele>
        <time>2025-05-27T12:12:50.000Z</time>
      </trkpt>
      <trkpt lat="49.61594" lon="5.50303">
        <ele>319.79998779297</ele>
        <time>2025-05-27T12:12:51.000Z</time>
      </trkpt>
      <trkpt lat="49.61573" lon="5.5028">
        <ele>318.39999389648</ele>
        <time>2025-05-27T12:12:54.000Z</time>
      </trkpt>
      <trkpt lat="49.61555" lon="5.50242">
        <ele>316.39999389648</ele>
        <time>2025-05-27T12:13:00.000Z</time>
      </trkpt>
      <trkpt lat="49.61545" lon="5.50217">
        <ele>314.39999389648</ele>
        <time>2025-05-27T12:13:05.000Z</time>
      </trkpt>
      <trkpt lat="49.61538" lon="5.50186">
        <ele>313.20001220703</ele>
        <time>2025-05-27T12:13:10.000Z</time>
      </trkpt>
      <trkpt lat="49.61531" lon="5.50145">
        <ele>311</ele>
        <time>2025-05-27T12:13:15.000Z</time>
      </trkpt>
      <trkpt lat="49.61525" lon="5.50094">
        <ele>311.79998779297</ele>
        <time>2025-05-27T12:13:21.000Z</time>
      </trkpt>
      <trkpt lat="49.61525" lon="5.50086">
        <ele>312</ele>
        <time>2025-05-27T12:13:22.000Z</time>
      </trkpt>
      <trkpt lat="49.61528" lon="5.50057">
        <ele>312.60000610352</ele>
        <time>2025-05-27T12:13:26.000Z</time>
      </trkpt>
      <trkpt lat="49.61531" lon="5.50012">
        <ele>313</ele>
        <time>2025-05-27T12:13:32.000Z</time>
      </trkpt>
      <trkpt lat="49.61541" lon="5.49971">
        <ele>314.20001220703</ele>
        <time>2025-05-27T12:13:38.000Z</time>
      </trkpt>
      <trkpt lat="49.61543" lon="5.49966">
        <ele>314.60000610352</ele>
        <time>2025-05-27T12:13:39.000Z</time>
      </trkpt>
      <trkpt lat="49.61549" lon="5.49952">
        <ele>315</ele>
        <time>2025-05-27T12:13:42.000Z</time>
      </trkpt>
      <trkpt lat="49.61552" lon="5.49947">
        <ele>315.20001220703</ele>
        <time>2025-05-27T12:13:43.000Z</time>
      </trkpt>
      <trkpt lat="49.61564" lon="5.49916">
        <ele>315.39999389648</ele>
        <time>2025-05-27T12:13:48.000Z</time>
      </trkpt>
      <trkpt lat="49.6157" lon="5.49892">
        <ele>313.39999389648</ele>
        <time>2025-05-27T12:13:51.000Z</time>
      </trkpt>
      <trkpt lat="49.61574" lon="5.49878">
        <ele>312.79998779297</ele>
        <time>2025-05-27T12:13:53.000Z</time>
      </trkpt>
      <trkpt lat="49.61579" lon="5.49855">
        <ele>312.39999389648</ele>
        <time>2025-05-27T12:13:57.000Z</time>
      </trkpt>
      <trkpt lat="49.61579" lon="5.49849">
        <ele>312.39999389648</ele>
        <time>2025-05-27T12:13:58.000Z</time>
      </trkpt>
      <trkpt lat="49.61578" lon="5.49816">
        <ele>311.79998779297</ele>
        <time>2025-05-27T12:14:04.000Z</time>
      </trkpt>
      <trkpt lat="49.61571" lon="5.49775">
        <ele>310</ele>
        <time>2025-05-27T12:14:10.000Z</time>
      </trkpt>
      <trkpt lat="49.61558" lon="5.49735">
        <ele>307.60000610352</ele>
        <time>2025-05-27T12:14:16.000Z</time>
      </trkpt>
      <trkpt lat="49.6154" lon="5.49691">
        <ele>308.79998779297</ele>
        <time>2025-05-27T12:14:23.000Z</time>
      </trkpt>
      <trkpt lat="49.61526" lon="5.4966">
        <ele>308.79998779297</ele>
        <time>2025-05-27T12:14:29.000Z</time>
      </trkpt>
      <trkpt lat="49.61511" lon="5.49627">
        <ele>308.60000610352</ele>
        <time>2025-05-27T12:14:35.000Z</time>
      </trkpt>
      <trkpt lat="49.615" lon="5.496">
        <ele>307.79998779297</ele>
        <time>2025-05-27T12:14:41.000Z</time>
      </trkpt>
      <trkpt lat="49.61493" lon="5.49587">
        <ele>306.60000610352</ele>
        <time>2025-05-27T12:14:44.000Z</time>
      </trkpt>
      <trkpt lat="49.61491" lon="5.49583">
        <ele>306.39999389648</ele>
        <time>2025-05-27T12:14:45.000Z</time>
      </trkpt>
      <trkpt lat="49.6149" lon="5.49577">
        <ele>306.60000610352</ele>
        <time>2025-05-27T12:14:46.000Z</time>
      </trkpt>
      <trkpt lat="49.61474" lon="5.49545">
        <ele>305.60000610352</ele>
        <time>2025-05-27T12:14:52.000Z</time>
      </trkpt>
      <trkpt lat="49.61472" lon="5.49541">
        <ele>305.60000610352</ele>
        <time>2025-05-27T12:14:53.000Z</time>
      </trkpt>
      <trkpt lat="49.61461" lon="5.49523">
        <ele>305.79998779297</ele>
        <time>2025-05-27T12:14:57.000Z</time>
      </trkpt>
      <trkpt lat="49.61454" lon="5.49513">
        <ele>306.39999389648</ele>
        <time>2025-05-27T12:14:59.000Z</time>
      </trkpt>
      <trkpt lat="49.6144" lon="5.49495">
        <ele>307</ele>
        <time>2025-05-27T12:15:03.000Z</time>
      </trkpt>
      <trkpt lat="49.6143" lon="5.49476">
        <ele>307.20001220703</ele>
        <time>2025-05-27T12:15:06.000Z</time>
      </trkpt>
      <trkpt lat="49.61423" lon="5.49462">
        <ele>307.60000610352</ele>
        <time>2025-05-27T12:15:08.000Z</time>
      </trkpt>
      <trkpt lat="49.61419" lon="5.49456">
        <ele>307.60000610352</ele>
        <time>2025-05-27T12:15:09.000Z</time>
      </trkpt>
      <trkpt lat="49.61394" lon="5.49419">
        <ele>308</ele>
        <time>2025-05-27T12:15:16.000Z</time>
      </trkpt>
      <trkpt lat="49.61387" lon="5.49409">
        <ele>307.39999389648</ele>
        <time>2025-05-27T12:15:18.000Z</time>
      </trkpt>
      <trkpt lat="49.61376" lon="5.49394">
        <ele>305.79998779297</ele>
        <time>2025-05-27T12:15:21.000Z</time>
      </trkpt>
      <trkpt lat="49.61369" lon="5.49383">
        <ele>305</ele>
        <time>2025-05-27T12:15:23.000Z</time>
      </trkpt>
      <trkpt lat="49.61353" lon="5.49366">
        <ele>303.39999389648</ele>
        <time>2025-05-27T12:15:27.000Z</time>
      </trkpt>
      <trkpt lat="49.61333" lon="5.49348">
        <ele>300.60000610352</ele>
        <time>2025-05-27T12:15:32.000Z</time>
      </trkpt>
      <trkpt lat="49.61316" lon="5.49335">
        <ele>299.60000610352</ele>
        <time>2025-05-27T12:15:37.000Z</time>
      </trkpt>
      <trkpt lat="49.613" lon="5.49315">
        <ele>300</ele>
        <time>2025-05-27T12:15:43.000Z</time>
      </trkpt>
      <trkpt lat="49.61278" lon="5.49288">
        <ele>301</ele>
        <time>2025-05-27T12:15:50.000Z</time>
      </trkpt>
      <trkpt lat="49.61258" lon="5.49267">
        <ele>301.60000610352</ele>
        <time>2025-05-27T12:15:56.000Z</time>
      </trkpt>
      <trkpt lat="49.61239" lon="5.49231">
        <ele>303.20001220703</ele>
        <time>2025-05-27T12:16:04.000Z</time>
      </trkpt>
      <trkpt lat="49.61233" lon="5.49216">
        <ele>304</ele>
        <time>2025-05-27T12:16:06.000Z</time>
      </trkpt>
      <trkpt lat="49.61222" lon="5.49192">
        <ele>304.20001220703</ele>
        <time>2025-05-27T12:16:10.000Z</time>
      </trkpt>
      <trkpt lat="49.61211" lon="5.49167">
        <ele>301.39999389648</ele>
        <time>2025-05-27T12:16:14.000Z</time>
      </trkpt>
      <trkpt lat="49.61208" lon="5.4916">
        <ele>300.60000610352</ele>
        <time>2025-05-27T12:16:15.000Z</time>
      </trkpt>
      <trkpt lat="49.61191" lon="5.49125">
        <ele>297.20001220703</ele>
        <time>2025-05-27T12:16:21.000Z</time>
      </trkpt>
      <trkpt lat="49.61188" lon="5.49118">
        <ele>297</ele>
        <time>2025-05-27T12:16:22.000Z</time>
      </trkpt>
      <trkpt lat="49.61179" lon="5.49095">
        <ele>296.79998779297</ele>
        <time>2025-05-27T12:16:26.000Z</time>
      </trkpt>
      <trkpt lat="49.61177" lon="5.49089">
        <ele>297</ele>
        <time>2025-05-27T12:16:27.000Z</time>
      </trkpt>
      <trkpt lat="49.61169" lon="5.49056">
        <ele>298</ele>
        <time>2025-05-27T12:16:32.000Z</time>
      </trkpt>
      <trkpt lat="49.61168" lon="5.49026">
        <ele>298.79998779297</ele>
        <time>2025-05-27T12:16:37.000Z</time>
      </trkpt>
      <trkpt lat="49.61171" lon="5.48993">
        <ele>300.20001220703</ele>
        <time>2025-05-27T12:16:43.000Z</time>
      </trkpt>
      <trkpt lat="49.61176" lon="5.4896">
        <ele>300.20001220703</ele>
        <time>2025-05-27T12:16:48.000Z</time>
      </trkpt>
      <trkpt lat="49.61179" lon="5.48945">
        <ele>300.39999389648</ele>
        <time>2025-05-27T12:16:50.000Z</time>
      </trkpt>
      <trkpt lat="49.61184" lon="5.48924">
        <ele>301</ele>
        <time>2025-05-27T12:16:53.000Z</time>
      </trkpt>
      <trkpt lat="49.61185" lon="5.48917">
        <ele>301</ele>
        <time>2025-05-27T12:16:54.000Z</time>
      </trkpt>
      <trkpt lat="49.61187" lon="5.48887">
        <ele>301</ele>
        <time>2025-05-27T12:16:58.000Z</time>
      </trkpt>
      <trkpt lat="49.61186" lon="5.48881">
        <ele>300.79998779297</ele>
        <time>2025-05-27T12:16:59.000Z</time>
      </trkpt>
      <trkpt lat="49.61182" lon="5.48867">
        <ele>300</ele>
        <time>2025-05-27T12:17:01.000Z</time>
      </trkpt>
      <trkpt lat="49.61178" lon="5.48861">
        <ele>299.79998779297</ele>
        <time>2025-05-27T12:17:02.000Z</time>
      </trkpt>
      <trkpt lat="49.61155" lon="5.48835">
        <ele>298.79998779297</ele>
        <time>2025-05-27T12:17:07.000Z</time>
      </trkpt>
      <trkpt lat="49.61146" lon="5.48826">
        <ele>298.60000610352</ele>
        <time>2025-05-27T12:17:09.000Z</time>
      </trkpt>
      <trkpt lat="49.61141" lon="5.48821">
        <ele>298.60000610352</ele>
        <time>2025-05-27T12:17:10.000Z</time>
      </trkpt>
      <trkpt lat="49.61119" lon="5.48797">
        <ele>296.79998779297</ele>
        <time>2025-05-27T12:17:15.000Z</time>
      </trkpt>
      <trkpt lat="49.61114" lon="5.48792">
        <ele>296.60000610352</ele>
        <time>2025-05-27T12:17:16.000Z</time>
      </trkpt>
      <trkpt lat="49.6111" lon="5.48787">
        <ele>296.39999389648</ele>
        <time>2025-05-27T12:17:17.000Z</time>
      </trkpt>
      <trkpt lat="49.611" lon="5.48776">
        <ele>296</ele>
        <time>2025-05-27T12:17:19.000Z</time>
      </trkpt>
      <trkpt lat="49.61095" lon="5.48771">
        <ele>295.60000610352</ele>
        <time>2025-05-27T12:17:20.000Z</time>
      </trkpt>
      <trkpt lat="49.61084" lon="5.4876">
        <ele>294.60000610352</ele>
        <time>2025-05-27T12:17:22.000Z</time>
      </trkpt>
      <trkpt lat="49.61063" lon="5.48735">
        <ele>292.20001220703</ele>
        <time>2025-05-27T12:17:26.000Z</time>
      </trkpt>
      <trkpt lat="49.61057" lon="5.4873">
        <ele>291.60000610352</ele>
        <time>2025-05-27T12:17:27.000Z</time>
      </trkpt>
      <trkpt lat="49.6104" lon="5.48712">
        <ele>290</ele>
        <time>2025-05-27T12:17:30.000Z</time>
      </trkpt>
      <trkpt lat="49.61015" lon="5.48686">
        <ele>287.60000610352</ele>
        <time>2025-05-27T12:17:34.000Z</time>
      </trkpt>
      <trkpt lat="49.61009" lon="5.4868">
        <ele>286.79998779297</ele>
        <time>2025-05-27T12:17:35.000Z</time>
      </trkpt>
      <trkpt lat="49.60985" lon="5.48657">
        <ele>283.60000610352</ele>
        <time>2025-05-27T12:17:39.000Z</time>
      </trkpt>
      <trkpt lat="49.60979" lon="5.48651">
        <ele>282.79998779297</ele>
        <time>2025-05-27T12:17:40.000Z</time>
      </trkpt>
      <trkpt lat="49.60967" lon="5.48639">
        <ele>281.79998779297</ele>
        <time>2025-05-27T12:17:42.000Z</time>
      </trkpt>
      <trkpt lat="49.60956" lon="5.48626">
        <ele>280.79998779297</ele>
        <time>2025-05-27T12:17:44.000Z</time>
      </trkpt>
      <trkpt lat="49.60945" lon="5.48613">
        <ele>280</ele>
        <time>2025-05-27T12:17:46.000Z</time>
      </trkpt>
      <trkpt lat="49.6094" lon="5.48606">
        <ele>279.60000610352</ele>
        <time>2025-05-27T12:17:47.000Z</time>
      </trkpt>
      <trkpt lat="49.60935" lon="5.48599">
        <ele>279.39999389648</ele>
        <time>2025-05-27T12:17:48.000Z</time>
      </trkpt>
      <trkpt lat="49.60924" lon="5.48585">
        <ele>279.20001220703</ele>
        <time>2025-05-27T12:17:50.000Z</time>
      </trkpt>
      <trkpt lat="49.60913" lon="5.48574">
        <ele>278.79998779297</ele>
        <time>2025-05-27T12:17:52.000Z</time>
      </trkpt>
      <trkpt lat="49.60909" lon="5.48568">
        <ele>278.60000610352</ele>
        <time>2025-05-27T12:17:53.000Z</time>
      </trkpt>
      <trkpt lat="49.60904" lon="5.48563">
        <ele>278.39999389648</ele>
        <time>2025-05-27T12:17:54.000Z</time>
      </trkpt>
      <trkpt lat="49.60892" lon="5.4855">
        <ele>277.60000610352</ele>
        <time>2025-05-27T12:17:56.000Z</time>
      </trkpt>
      <trkpt lat="49.60885" lon="5.48535">
        <ele>275.79998779297</ele>
        <time>2025-05-27T12:17:58.000Z</time>
      </trkpt>
      <trkpt lat="49.60882" lon="5.48527">
        <ele>275</ele>
        <time>2025-05-27T12:17:59.000Z</time>
      </trkpt>
      <trkpt lat="49.60874" lon="5.4851">
        <ele>273.39999389648</ele>
        <time>2025-05-27T12:18:01.000Z</time>
      </trkpt>
      <trkpt lat="49.60869" lon="5.48491">
        <ele>271.60000610352</ele>
        <time>2025-05-27T12:18:03.000Z</time>
      </trkpt>
      <trkpt lat="49.60866" lon="5.48481">
        <ele>270.79998779297</ele>
        <time>2025-05-27T12:18:04.000Z</time>
      </trkpt>
      <trkpt lat="49.6086" lon="5.48469">
        <ele>269.60000610352</ele>
        <time>2025-05-27T12:18:05.000Z</time>
      </trkpt>
      <trkpt lat="49.60848" lon="5.48449">
        <ele>267.79998779297</ele>
        <time>2025-05-27T12:18:07.000Z</time>
      </trkpt>
      <trkpt lat="49.60841" lon="5.4844">
        <ele>266.79998779297</ele>
        <time>2025-05-27T12:18:08.000Z</time>
      </trkpt>
      <trkpt lat="49.60834" lon="5.48435">
        <ele>265.79998779297</ele>
        <time>2025-05-27T12:18:09.000Z</time>
      </trkpt>
      <trkpt lat="49.60827" lon="5.48431">
        <ele>264.20001220703</ele>
        <time>2025-05-27T12:18:10.000Z</time>
      </trkpt>
      <trkpt lat="49.60819" lon="5.48427">
        <ele>262.60000610352</ele>
        <time>2025-05-27T12:18:11.000Z</time>
      </trkpt>
      <trkpt lat="49.60809" lon="5.48423">
        <ele>261</ele>
        <time>2025-05-27T12:18:13.000Z</time>
      </trkpt>
      <trkpt lat="49.60804" lon="5.48422">
        <ele>260.20001220703</ele>
        <time>2025-05-27T12:18:14.000Z</time>
      </trkpt>
      <trkpt lat="49.608" lon="5.48421">
        <ele>259.39999389648</ele>
        <time>2025-05-27T12:18:15.000Z</time>
      </trkpt>
      <trkpt lat="49.60792" lon="5.48414">
        <ele>257</ele>
        <time>2025-05-27T12:18:17.000Z</time>
      </trkpt>
      <trkpt lat="49.60785" lon="5.48402">
        <ele>253</ele>
        <time>2025-05-27T12:18:21.000Z</time>
      </trkpt>
      <trkpt lat="49.60785" lon="5.484">
        <ele>252.60000610352</ele>
        <time>2025-05-27T12:18:22.000Z</time>
      </trkpt>
      <trkpt lat="49.60783" lon="5.48392">
        <ele>250.39999389648</ele>
        <time>2025-05-27T12:23:42.000Z</time>
      </trkpt>
      <trkpt lat="49.60785" lon="5.48391">
        <ele>250.19999694824</ele>
        <time>2025-05-27T12:23:43.000Z</time>
      </trkpt>
      <trkpt lat="49.60796" lon="5.48388">
        <ele>251</ele>
        <time>2025-05-27T12:23:47.000Z</time>
      </trkpt>
      <trkpt lat="49.60799" lon="5.48387">
        <ele>251.19999694824</ele>
        <time>2025-05-27T12:23:48.000Z</time>
      </trkpt>
      <trkpt lat="49.60826" lon="5.48383">
        <ele>252.80000305176</ele>
        <time>2025-05-27T12:23:55.000Z</time>
      </trkpt>
      <trkpt lat="49.60849" lon="5.48381">
        <ele>251</ele>
        <time>2025-05-27T12:24:00.000Z</time>
      </trkpt>
      <trkpt lat="49.60865" lon="5.48379">
        <ele>250</ele>
        <time>2025-05-27T12:24:03.000Z</time>
      </trkpt>
      <trkpt lat="49.60878" lon="5.4838">
        <ele>249.19999694824</ele>
        <time>2025-05-27T12:24:05.000Z</time>
      </trkpt>
      <trkpt lat="49.60891" lon="5.48386">
        <ele>250.19999694824</ele>
        <time>2025-05-27T12:24:07.000Z</time>
      </trkpt>
      <trkpt lat="49.60896" lon="5.4839">
        <ele>251.19999694824</ele>
        <time>2025-05-27T12:24:08.000Z</time>
      </trkpt>
      <trkpt lat="49.60902" lon="5.48395">
        <ele>252.19999694824</ele>
        <time>2025-05-27T12:24:09.000Z</time>
      </trkpt>
      <trkpt lat="49.60919" lon="5.48406">
        <ele>254.60000610352</ele>
        <time>2025-05-27T12:24:12.000Z</time>
      </trkpt>
      <trkpt lat="49.60928" lon="5.48411">
        <ele>255</ele>
        <time>2025-05-27T12:24:14.000Z</time>
      </trkpt>
      <trkpt lat="49.60944" lon="5.48422">
        <ele>255.39999389648</ele>
        <time>2025-05-27T12:24:18.000Z</time>
      </trkpt>
      <trkpt lat="49.60975" lon="5.48449">
        <ele>253.39999389648</ele>
        <time>2025-05-27T12:24:26.000Z</time>
      </trkpt>
      <trkpt lat="49.60987" lon="5.48458">
        <ele>251.39999389648</ele>
        <time>2025-05-27T12:24:29.000Z</time>
      </trkpt>
      <trkpt lat="49.61001" lon="5.48471">
        <ele>249.60000610352</ele>
        <time>2025-05-27T12:24:33.000Z</time>
      </trkpt>
      <trkpt lat="49.61022" lon="5.48494">
        <ele>252.19999694824</ele>
        <time>2025-05-27T12:24:39.000Z</time>
      </trkpt>
      <trkpt lat="49.61028" lon="5.48499">
        <ele>252.60000610352</ele>
        <time>2025-05-27T12:24:41.000Z</time>
      </trkpt>
      <trkpt lat="49.61044" lon="5.48512">
        <ele>255</ele>
        <time>2025-05-27T12:24:46.000Z</time>
      </trkpt>
      <trkpt lat="49.61066" lon="5.48527">
        <ele>257.20001220703</ele>
        <time>2025-05-27T12:24:53.000Z</time>
      </trkpt>
      <trkpt lat="49.61076" lon="5.48531">
        <ele>256</ele>
        <time>2025-05-27T12:24:56.000Z</time>
      </trkpt>
      <trkpt lat="49.61098" lon="5.48537">
        <ele>254.39999389648</ele>
        <time>2025-05-27T12:25:02.000Z</time>
      </trkpt>
      <trkpt lat="49.61128" lon="5.48546">
        <ele>253.19999694824</ele>
        <time>2025-05-27T12:25:10.000Z</time>
      </trkpt>
      <trkpt lat="49.61194" lon="5.48559">
        <ele>251.39999389648</ele>
        <time>2025-05-27T12:25:16.000Z</time>
      </trkpt>
      <trkpt lat="49.61198" lon="5.48558">
        <ele>251</ele>
        <time>2025-05-27T12:25:17.000Z</time>
      </trkpt>
      <trkpt lat="49.61221" lon="5.48562">
        <ele>251.60000610352</ele>
        <time>2025-05-27T12:25:24.000Z</time>
      </trkpt>
      <trkpt lat="49.61256" lon="5.48578">
        <ele>254.39999389648</ele>
        <time>2025-05-27T12:25:32.000Z</time>
      </trkpt>
      <trkpt lat="49.6127" lon="5.48586">
        <ele>256</ele>
        <time>2025-05-27T12:25:36.000Z</time>
      </trkpt>
      <trkpt lat="49.61274" lon="5.48589">
        <ele>256.39999389648</ele>
        <time>2025-05-27T12:25:37.000Z</time>
      </trkpt>
      <trkpt lat="49.61291" lon="5.48605">
        <ele>258.20001220703</ele>
        <time>2025-05-27T12:25:44.000Z</time>
      </trkpt>
      <trkpt lat="49.61293" lon="5.48608">
        <ele>258.60000610352</ele>
        <time>2025-05-27T12:25:45.000Z</time>
      </trkpt>
      <trkpt lat="49.61298" lon="5.48619">
        <ele>259.79998779297</ele>
        <time>2025-05-27T12:25:48.000Z</time>
      </trkpt>
      <trkpt lat="49.61303" lon="5.48625">
        <ele>260.60000610352</ele>
        <time>2025-05-27T12:25:50.000Z</time>
      </trkpt>
      <trkpt lat="49.61305" lon="5.48627">
        <ele>260.60000610352</ele>
        <time>2025-05-27T12:25:51.000Z</time>
      </trkpt>
      <trkpt lat="49.6131" lon="5.48634">
        <ele>261.39999389648</ele>
        <time>2025-05-27T12:25:54.000Z</time>
      </trkpt>
      <trkpt lat="49.61313" lon="5.48639">
        <ele>262</ele>
        <time>2025-05-27T12:25:56.000Z</time>
      </trkpt>
      <trkpt lat="49.61315" lon="5.48642">
        <ele>262.39999389648</ele>
        <time>2025-05-27T12:25:57.000Z</time>
      </trkpt>
      <trkpt lat="49.6132" lon="5.48653">
        <ele>263.60000610352</ele>
        <time>2025-05-27T12:26:01.000Z</time>
      </trkpt>
      <trkpt lat="49.61326" lon="5.48666">
        <ele>265</ele>
        <time>2025-05-27T12:26:05.000Z</time>
      </trkpt>
      <trkpt lat="49.61333" lon="5.48676">
        <ele>265.60000610352</ele>
        <time>2025-05-27T12:26:08.000Z</time>
      </trkpt>
      <trkpt lat="49.61343" lon="5.48688">
        <ele>267</ele>
        <time>2025-05-27T12:26:12.000Z</time>
      </trkpt>
      <trkpt lat="49.61355" lon="5.48698">
        <ele>268.39999389648</ele>
        <time>2025-05-27T12:26:15.000Z</time>
      </trkpt>
      <trkpt lat="49.61367" lon="5.48711">
        <ele>270</ele>
        <time>2025-05-27T12:26:18.000Z</time>
      </trkpt>
      <trkpt lat="49.61371" lon="5.48715">
        <ele>270.79998779297</ele>
        <time>2025-05-27T12:26:19.000Z</time>
      </trkpt>
      <trkpt lat="49.61381" lon="5.4873">
        <ele>272</ele>
        <time>2025-05-27T12:26:22.000Z</time>
      </trkpt>
      <trkpt lat="49.61382" lon="5.48742">
        <ele>272.20001220703</ele>
        <time>2025-05-27T12:26:24.000Z</time>
      </trkpt>
      <trkpt lat="49.6139" lon="5.48756">
        <ele>273.20001220703</ele>
        <time>2025-05-27T12:26:27.000Z</time>
      </trkpt>
      <trkpt lat="49.61405" lon="5.48772">
        <ele>275.60000610352</ele>
        <time>2025-05-27T12:26:32.000Z</time>
      </trkpt>
      <trkpt lat="49.61415" lon="5.48792">
        <ele>277.20001220703</ele>
        <time>2025-05-27T12:26:37.000Z</time>
      </trkpt>
      <trkpt lat="49.61416" lon="5.48795">
        <ele>277.39999389648</ele>
        <time>2025-05-27T12:26:38.000Z</time>
      </trkpt>
      <trkpt lat="49.61423" lon="5.48811">
        <ele>278.39999389648</ele>
        <time>2025-05-27T12:26:42.000Z</time>
      </trkpt>
      <trkpt lat="49.61426" lon="5.48823">
        <ele>279</ele>
        <time>2025-05-27T12:26:45.000Z</time>
      </trkpt>
      <trkpt lat="49.61429" lon="5.48832">
        <ele>279.60000610352</ele>
        <time>2025-05-27T12:26:47.000Z</time>
      </trkpt>
      <trkpt lat="49.61438" lon="5.48849">
        <ele>280.39999389648</ele>
        <time>2025-05-27T12:26:51.000Z</time>
      </trkpt>
      <trkpt lat="49.61441" lon="5.48852">
        <ele>280.60000610352</ele>
        <time>2025-05-27T12:26:52.000Z</time>
      </trkpt>
      <trkpt lat="49.61451" lon="5.48865">
        <ele>280.79998779297</ele>
        <time>2025-05-27T12:26:56.000Z</time>
      </trkpt>
      <trkpt lat="49.61454" lon="5.48868">
        <ele>280.79998779297</ele>
        <time>2025-05-27T12:26:57.000Z</time>
      </trkpt>
      <trkpt lat="49.61464" lon="5.48878">
        <ele>280.39999389648</ele>
        <time>2025-05-27T12:27:02.000Z</time>
      </trkpt>
      <trkpt lat="49.61466" lon="5.48878">
        <ele>280.39999389648</ele>
        <time>2025-05-27T12:27:03.000Z</time>
      </trkpt>
      <trkpt lat="49.61475" lon="5.48882">
        <ele>280.20001220703</ele>
        <time>2025-05-27T12:27:06.000Z</time>
      </trkpt>
      <trkpt lat="49.61476" lon="5.48884">
        <ele>280.20001220703</ele>
        <time>2025-05-27T12:27:07.000Z</time>
      </trkpt>
      <trkpt lat="49.61484" lon="5.489">
        <ele>280.60000610352</ele>
        <time>2025-05-27T12:27:12.000Z</time>
      </trkpt>
      <trkpt lat="49.61486" lon="5.48903">
        <ele>280.60000610352</ele>
        <time>2025-05-27T12:27:13.000Z</time>
      </trkpt>
      <trkpt lat="49.61496" lon="5.48917">
        <ele>281.39999389648</ele>
        <time>2025-05-27T12:27:19.000Z</time>
      </trkpt>
      <trkpt lat="49.61498" lon="5.4892">
        <ele>281.39999389648</ele>
        <time>2025-05-27T12:27:20.000Z</time>
      </trkpt>
      <trkpt lat="49.61514" lon="5.48939">
        <ele>283</ele>
        <time>2025-05-27T12:27:26.000Z</time>
      </trkpt>
      <trkpt lat="49.61521" lon="5.48944">
        <ele>283.60000610352</ele>
        <time>2025-05-27T12:27:28.000Z</time>
      </trkpt>
      <trkpt lat="49.61538" lon="5.4896">
        <ele>285.60000610352</ele>
        <time>2025-05-27T12:27:32.000Z</time>
      </trkpt>
      <trkpt lat="49.61541" lon="5.48963">
        <ele>286.20001220703</ele>
        <time>2025-05-27T12:27:33.000Z</time>
      </trkpt>
      <trkpt lat="49.61557" lon="5.48979">
        <ele>288.20001220703</ele>
        <time>2025-05-27T12:27:38.000Z</time>
      </trkpt>
      <trkpt lat="49.6156" lon="5.48985">
        <ele>288.60000610352</ele>
        <time>2025-05-27T12:27:41.000Z</time>
      </trkpt>
      <trkpt lat="49.61567" lon="5.49">
        <ele>289.39999389648</ele>
        <time>2025-05-27T12:27:45.000Z</time>
      </trkpt>
      <trkpt lat="49.61573" lon="5.49011">
        <ele>289.79998779297</ele>
        <time>2025-05-27T12:27:47.000Z</time>
      </trkpt>
      <trkpt lat="49.61579" lon="5.49021">
        <ele>290.39999389648</ele>
        <time>2025-05-27T12:27:49.000Z</time>
      </trkpt>
      <trkpt lat="49.61582" lon="5.49025">
        <ele>290.79998779297</ele>
        <time>2025-05-27T12:27:50.000Z</time>
      </trkpt>
      <trkpt lat="49.61589" lon="5.49039">
        <ele>291.39999389648</ele>
        <time>2025-05-27T12:27:53.000Z</time>
      </trkpt>
      <trkpt lat="49.61595" lon="5.49052">
        <ele>291.79998779297</ele>
        <time>2025-05-27T12:27:56.000Z</time>
      </trkpt>
      <trkpt lat="49.61603" lon="5.49064">
        <ele>292.60000610352</ele>
        <time>2025-05-27T12:27:59.000Z</time>
      </trkpt>
      <trkpt lat="49.61607" lon="5.49071">
        <ele>293.20001220703</ele>
        <time>2025-05-27T12:28:01.000Z</time>
      </trkpt>
      <trkpt lat="49.61617" lon="5.49094">
        <ele>294.79998779297</ele>
        <time>2025-05-27T12:28:06.000Z</time>
      </trkpt>
      <trkpt lat="49.61619" lon="5.49098">
        <ele>295</ele>
        <time>2025-05-27T12:28:07.000Z</time>
      </trkpt>
      <trkpt lat="49.61624" lon="5.49116">
        <ele>296.20001220703</ele>
        <time>2025-05-27T12:28:11.000Z</time>
      </trkpt>
      <trkpt lat="49.61627" lon="5.49126">
        <ele>296.60000610352</ele>
        <time>2025-05-27T12:28:13.000Z</time>
      </trkpt>
      <trkpt lat="49.61632" lon="5.49146">
        <ele>297.20001220703</ele>
        <time>2025-05-27T12:28:17.000Z</time>
      </trkpt>
      <trkpt lat="49.61638" lon="5.49162">
        <ele>297.79998779297</ele>
        <time>2025-05-27T12:28:20.000Z</time>
      </trkpt>
      <trkpt lat="49.61645" lon="5.49175">
        <ele>298.79998779297</ele>
        <time>2025-05-27T12:28:23.000Z</time>
      </trkpt>
      <trkpt lat="49.61648" lon="5.49182">
        <ele>299.60000610352</ele>
        <time>2025-05-27T12:28:25.000Z</time>
      </trkpt>
      <trkpt lat="49.61654" lon="5.492">
        <ele>301.20001220703</ele>
        <time>2025-05-27T12:28:29.000Z</time>
      </trkpt>
      <trkpt lat="49.61656" lon="5.49209">
        <ele>302</ele>
        <time>2025-05-27T12:28:31.000Z</time>
      </trkpt>
      <trkpt lat="49.6166" lon="5.49233">
        <ele>303</ele>
        <time>2025-05-27T12:28:35.000Z</time>
      </trkpt>
      <trkpt lat="49.61666" lon="5.4925">
        <ele>303.79998779297</ele>
        <time>2025-05-27T12:28:38.000Z</time>
      </trkpt>
      <trkpt lat="49.61671" lon="5.49263">
        <ele>304</ele>
        <time>2025-05-27T12:28:40.000Z</time>
      </trkpt>
      <trkpt lat="49.61681" lon="5.49294">
        <ele>303.60000610352</ele>
        <time>2025-05-27T12:28:45.000Z</time>
      </trkpt>
      <trkpt lat="49.61687" lon="5.49322">
        <ele>304</ele>
        <time>2025-05-27T12:28:50.000Z</time>
      </trkpt>
      <trkpt lat="49.61688" lon="5.49328">
        <ele>304.39999389648</ele>
        <time>2025-05-27T12:28:51.000Z</time>
      </trkpt>
      <trkpt lat="49.61692" lon="5.49344">
        <ele>304.79998779297</ele>
        <time>2025-05-27T12:28:54.000Z</time>
      </trkpt>
      <trkpt lat="49.61693" lon="5.49359">
        <ele>305.20001220703</ele>
        <time>2025-05-27T12:28:57.000Z</time>
      </trkpt>
      <trkpt lat="49.61694" lon="5.49383">
        <ele>305.20001220703</ele>
        <time>2025-05-27T12:29:01.000Z</time>
      </trkpt>
      <trkpt lat="49.61696" lon="5.49394">
        <ele>305.20001220703</ele>
        <time>2025-05-27T12:29:03.000Z</time>
      </trkpt>
      <trkpt lat="49.61697" lon="5.49407">
        <ele>305</ele>
        <time>2025-05-27T12:29:05.000Z</time>
      </trkpt>
      <trkpt lat="49.61691" lon="5.49422">
        <ele>306.20001220703</ele>
        <time>2025-05-27T12:29:08.000Z</time>
      </trkpt>
      <trkpt lat="49.61688" lon="5.49424">
        <ele>306.60000610352</ele>
        <time>2025-05-27T12:29:09.000Z</time>
      </trkpt>
      <trkpt lat="49.61684" lon="5.49424">
        <ele>307</ele>
        <time>2025-05-27T12:29:11.000Z</time>
      </trkpt>
      <trkpt lat="49.61682" lon="5.49423">
        <ele>307.20001220703</ele>
        <time>2025-05-27T12:29:12.000Z</time>
      </trkpt>
      <trkpt lat="49.6168" lon="5.4942">
        <ele>307.20001220703</ele>
        <time>2025-05-27T12:29:13.000Z</time>
      </trkpt>
      <trkpt lat="49.61668" lon="5.49408">
        <ele>308</ele>
        <time>2025-05-27T12:29:18.000Z</time>
      </trkpt>
      <trkpt lat="49.61666" lon="5.49406">
        <ele>308.39999389648</ele>
        <time>2025-05-27T12:29:19.000Z</time>
      </trkpt>
      <trkpt lat="49.6166" lon="5.49406">
        <ele>309.39999389648</ele>
        <time>2025-05-27T12:29:22.000Z</time>
      </trkpt>
      <trkpt lat="49.6166" lon="5.49408">
        <ele>309.60000610352</ele>
        <time>2025-05-27T12:29:23.000Z</time>
      </trkpt>
      <trkpt lat="49.61661" lon="5.49423">
        <ele>310</ele>
        <time>2025-05-27T12:29:29.000Z</time>
      </trkpt>
      <trkpt lat="49.61669" lon="5.4944">
        <ele>309.79998779297</ele>
        <time>2025-05-27T12:29:34.000Z</time>
      </trkpt>
      <trkpt lat="49.61683" lon="5.49454">
        <ele>309.20001220703</ele>
        <time>2025-05-27T12:29:39.000Z</time>
      </trkpt>
      <trkpt lat="49.61686" lon="5.49455">
        <ele>309</ele>
        <time>2025-05-27T12:29:40.000Z</time>
      </trkpt>
      <trkpt lat="49.61706" lon="5.49463">
        <ele>308.60000610352</ele>
        <time>2025-05-27T12:29:46.000Z</time>
      </trkpt>
      <trkpt lat="49.61713" lon="5.49465">
        <ele>309</ele>
        <time>2025-05-27T12:29:48.000Z</time>
      </trkpt>
      <trkpt lat="49.61735" lon="5.49471">
        <ele>311</ele>
        <time>2025-05-27T12:29:53.000Z</time>
      </trkpt>
      <trkpt lat="49.6174" lon="5.49471">
        <ele>311.39999389648</ele>
        <time>2025-05-27T12:29:54.000Z</time>
      </trkpt>
      <trkpt lat="49.61769" lon="5.49476">
        <ele>315</ele>
        <time>2025-05-27T12:30:00.000Z</time>
      </trkpt>
      <trkpt lat="49.61782" lon="5.49479">
        <ele>316.60000610352</ele>
        <time>2025-05-27T12:30:03.000Z</time>
      </trkpt>
      <trkpt lat="49.6179" lon="5.49482">
        <ele>317</ele>
        <time>2025-05-27T12:30:05.000Z</time>
      </trkpt>
      <trkpt lat="49.61807" lon="5.49484">
        <ele>318.20001220703</ele>
        <time>2025-05-27T12:30:10.000Z</time>
      </trkpt>
      <trkpt lat="49.61826" lon="5.49488">
        <ele>319.79998779297</ele>
        <time>2025-05-27T12:30:31.000Z</time>
      </trkpt>
      <trkpt lat="49.6183" lon="5.49488">
        <ele>320</ele>
        <time>2025-05-27T12:30:32.000Z</time>
      </trkpt>
      <trkpt lat="49.61848" lon="5.49491">
        <ele>320.20001220703</ele>
        <time>2025-05-27T12:30:39.000Z</time>
      </trkpt>
      <trkpt lat="49.61852" lon="5.49492">
        <ele>320.20001220703</ele>
        <time>2025-05-27T12:30:41.000Z</time>
      </trkpt>
      <trkpt lat="49.61868" lon="5.49494">
        <ele>319.60000610352</ele>
        <time>2025-05-27T12:30:46.000Z</time>
      </trkpt>
      <trkpt lat="49.61888" lon="5.49502">
        <ele>318.39999389648</ele>
        <time>2025-05-27T12:30:51.000Z</time>
      </trkpt>
      <trkpt lat="49.61892" lon="5.49503">
        <ele>318.20001220703</ele>
        <time>2025-05-27T12:30:52.000Z</time>
      </trkpt>
      <trkpt lat="49.61902" lon="5.4951">
        <ele>318.39999389648</ele>
        <time>2025-05-27T12:30:54.000Z</time>
      </trkpt>
      <trkpt lat="49.61916" lon="5.49525">
        <ele>319</ele>
        <time>2025-05-27T12:30:57.000Z</time>
      </trkpt>
      <trkpt lat="49.61926" lon="5.49544">
        <ele>320</ele>
        <time>2025-05-27T12:31:00.000Z</time>
      </trkpt>
      <trkpt lat="49.61929" lon="5.49551">
        <ele>320.39999389648</ele>
        <time>2025-05-27T12:31:01.000Z</time>
      </trkpt>
      <trkpt lat="49.6193" lon="5.49558">
        <ele>320.60000610352</ele>
        <time>2025-05-27T12:31:02.000Z</time>
      </trkpt>
      <trkpt lat="49.61939" lon="5.49595">
        <ele>320.20001220703</ele>
        <time>2025-05-27T12:31:08.000Z</time>
      </trkpt>
      <trkpt lat="49.61943" lon="5.49627">
        <ele>319.60000610352</ele>
        <time>2025-05-27T12:31:12.000Z</time>
      </trkpt>
      <trkpt lat="49.61946" lon="5.4965">
        <ele>319.39999389648</ele>
        <time>2025-05-27T12:31:15.000Z</time>
      </trkpt>
      <trkpt lat="49.61954" lon="5.49701">
        <ele>320.60000610352</ele>
        <time>2025-05-27T12:31:21.000Z</time>
      </trkpt>
      <trkpt lat="49.61958" lon="5.49716">
        <ele>321.20001220703</ele>
        <time>2025-05-27T12:31:23.000Z</time>
      </trkpt>
      <trkpt lat="49.61965" lon="5.4974">
        <ele>320.79998779297</ele>
        <time>2025-05-27T12:31:26.000Z</time>
      </trkpt>
      <trkpt lat="49.6197" lon="5.49756">
        <ele>319.79998779297</ele>
        <time>2025-05-27T12:31:28.000Z</time>
      </trkpt>
      <trkpt lat="49.61973" lon="5.49763">
        <ele>319.39999389648</ele>
        <time>2025-05-27T12:31:29.000Z</time>
      </trkpt>
      <trkpt lat="49.61975" lon="5.4977">
        <ele>318.79998779297</ele>
        <time>2025-05-27T12:31:30.000Z</time>
      </trkpt>
      <trkpt lat="49.61987" lon="5.49794">
        <ele>316</ele>
        <time>2025-05-27T12:31:34.000Z</time>
      </trkpt>
      <trkpt lat="49.62012" lon="5.49838">
        <ele>313.79998779297</ele>
        <time>2025-05-27T12:31:41.000Z</time>
      </trkpt>
      <trkpt lat="49.6203" lon="5.49879">
        <ele>317.60000610352</ele>
        <time>2025-05-27T12:31:47.000Z</time>
      </trkpt>
      <trkpt lat="49.62047" lon="5.49909">
        <ele>318.60000610352</ele>
        <time>2025-05-27T12:31:53.000Z</time>
      </trkpt>
      <trkpt lat="49.62065" lon="5.49918">
        <ele>319</ele>
        <time>2025-05-27T12:31:58.000Z</time>
      </trkpt>
      <trkpt lat="49.62094" lon="5.49923">
        <ele>319.20001220703</ele>
        <time>2025-05-27T12:32:04.000Z</time>
      </trkpt>
      <trkpt lat="49.62097" lon="5.49923">
        <ele>319.20001220703</ele>
        <time>2025-05-27T12:32:05.000Z</time>
      </trkpt>
      <trkpt lat="49.62108" lon="5.49925">
        <ele>319.20001220703</ele>
        <time>2025-05-27T12:32:08.000Z</time>
      </trkpt>
      <trkpt lat="49.62116" lon="5.49927">
        <ele>319.39999389648</ele>
        <time>2025-05-27T12:32:10.000Z</time>
      </trkpt>
      <trkpt lat="49.62121" lon="5.49928">
        <ele>319.20001220703</ele>
        <time>2025-05-27T12:32:11.000Z</time>
      </trkpt>
      <trkpt lat="49.62136" lon="5.4993">
        <ele>319</ele>
        <time>2025-05-27T12:32:14.000Z</time>
      </trkpt>
      <trkpt lat="49.62149" lon="5.49932">
        <ele>319.20001220703</ele>
        <time>2025-05-27T12:32:17.000Z</time>
      </trkpt>
      <trkpt lat="49.62153" lon="5.49933">
        <ele>319.39999389648</ele>
        <time>2025-05-27T12:32:18.000Z</time>
      </trkpt>
      <trkpt lat="49.6217" lon="5.49935">
        <ele>320</ele>
        <time>2025-05-27T12:32:22.000Z</time>
      </trkpt>
      <trkpt lat="49.62183" lon="5.49937">
        <ele>321</ele>
        <time>2025-05-27T12:32:25.000Z</time>
      </trkpt>
      <trkpt lat="49.62193" lon="5.49938">
        <ele>321.60000610352</ele>
        <time>2025-05-27T12:32:27.000Z</time>
      </trkpt>
      <trkpt lat="49.62216" lon="5.49939">
        <ele>323</ele>
        <time>2025-05-27T12:32:32.000Z</time>
      </trkpt>
      <trkpt lat="49.62221" lon="5.4994">
        <ele>323.60000610352</ele>
        <time>2025-05-27T12:32:33.000Z</time>
      </trkpt>
      <trkpt lat="49.62245" lon="5.4994">
        <ele>325.39999389648</ele>
        <time>2025-05-27T12:32:38.000Z</time>
      </trkpt>
      <trkpt lat="49.62249" lon="5.49941">
        <ele>325.79998779297</ele>
        <time>2025-05-27T12:32:39.000Z</time>
      </trkpt>
      <trkpt lat="49.62273" lon="5.49943">
        <ele>326</ele>
        <time>2025-05-27T12:32:44.000Z</time>
      </trkpt>
      <trkpt lat="49.62281" lon="5.49946">
        <ele>326</ele>
        <time>2025-05-27T12:32:46.000Z</time>
      </trkpt>
      <trkpt lat="49.62299" lon="5.49946">
        <ele>325.39999389648</ele>
        <time>2025-05-27T12:32:51.000Z</time>
      </trkpt>
      <trkpt lat="49.62308" lon="5.49947">
        <ele>325.20001220703</ele>
        <time>2025-05-27T12:32:53.000Z</time>
      </trkpt>
      <trkpt lat="49.62323" lon="5.49948">
        <ele>325.60000610352</ele>
        <time>2025-05-27T12:32:56.000Z</time>
      </trkpt>
      <trkpt lat="49.62342" lon="5.4995">
        <ele>326.60000610352</ele>
        <time>2025-05-27T12:33:00.000Z</time>
      </trkpt>
      <trkpt lat="49.6235" lon="5.4995">
        <ele>327.79998779297</ele>
        <time>2025-05-27T12:33:01.000Z</time>
      </trkpt>
      <trkpt lat="49.62381" lon="5.49951">
        <ele>331.20001220703</ele>
        <time>2025-05-27T12:33:06.000Z</time>
      </trkpt>
      <trkpt lat="49.62385" lon="5.49952">
        <ele>331.79998779297</ele>
        <time>2025-05-27T12:33:07.000Z</time>
      </trkpt>
      <trkpt lat="49.62411" lon="5.49955">
        <ele>333.20001220703</ele>
        <time>2025-05-27T12:33:12.000Z</time>
      </trkpt>
      <trkpt lat="49.62429" lon="5.49957">
        <ele>333.60000610352</ele>
        <time>2025-05-27T12:33:16.000Z</time>
      </trkpt>
      <trkpt lat="49.62434" lon="5.49958">
        <ele>333.60000610352</ele>
        <time>2025-05-27T12:33:17.000Z</time>
      </trkpt>
      <trkpt lat="49.62464" lon="5.49961">
        <ele>333.60000610352</ele>
        <time>2025-05-27T12:33:24.000Z</time>
      </trkpt>
      <trkpt lat="49.62469" lon="5.49961">
        <ele>333.60000610352</ele>
        <time>2025-05-27T12:33:25.000Z</time>
      </trkpt>
      <trkpt lat="49.62503" lon="5.49964">
        <ele>333.79998779297</ele>
        <time>2025-05-27T12:33:31.000Z</time>
      </trkpt>
      <trkpt lat="49.62547" lon="5.49968">
        <ele>333</ele>
        <time>2025-05-27T12:33:38.000Z</time>
      </trkpt>
      <trkpt lat="49.62591" lon="5.49976">
        <ele>332</ele>
        <time>2025-05-27T12:33:46.000Z</time>
      </trkpt>
      <trkpt lat="49.62597" lon="5.49975">
        <ele>332</ele>
        <time>2025-05-27T12:33:47.000Z</time>
      </trkpt>
      <trkpt lat="49.62625" lon="5.49977">
        <ele>332</ele>
        <time>2025-05-27T12:33:52.000Z</time>
      </trkpt>
      <trkpt lat="49.62646" lon="5.49967">
        <ele>331.20001220703</ele>
        <time>2025-05-27T12:33:57.000Z</time>
      </trkpt>
      <trkpt lat="49.62648" lon="5.49951">
        <ele>330.60000610352</ele>
        <time>2025-05-27T12:34:00.000Z</time>
      </trkpt>
      <trkpt lat="49.62648" lon="5.49939">
        <ele>329.79998779297</ele>
        <time>2025-05-27T12:34:02.000Z</time>
      </trkpt>
      <trkpt lat="49.62647" lon="5.49932">
        <ele>329.20001220703</ele>
        <time>2025-05-27T12:34:03.000Z</time>
      </trkpt>
      <trkpt lat="49.62647" lon="5.49925">
        <ele>328.79998779297</ele>
        <time>2025-05-27T12:34:04.000Z</time>
      </trkpt>
      <trkpt lat="49.62648" lon="5.49899">
        <ele>327</ele>
        <time>2025-05-27T12:34:07.000Z</time>
      </trkpt>
      <trkpt lat="49.62649" lon="5.4989">
        <ele>326.20001220703</ele>
        <time>2025-05-27T12:34:08.000Z</time>
      </trkpt>
      <trkpt lat="49.62649" lon="5.49881">
        <ele>325.39999389648</ele>
        <time>2025-05-27T12:34:09.000Z</time>
      </trkpt>
      <trkpt lat="49.62652" lon="5.49855">
        <ele>323</ele>
        <time>2025-05-27T12:34:12.000Z</time>
      </trkpt>
      <trkpt lat="49.62654" lon="5.49832">
        <ele>320.79998779297</ele>
        <time>2025-05-27T12:34:15.000Z</time>
      </trkpt>
      <trkpt lat="49.62656" lon="5.49815">
        <ele>319.39999389648</ele>
        <time>2025-05-27T12:34:17.000Z</time>
      </trkpt>
      <trkpt lat="49.62657" lon="5.49791">
        <ele>317.60000610352</ele>
        <time>2025-05-27T12:34:19.000Z</time>
      </trkpt>
      <trkpt lat="49.62658" lon="5.49779">
        <ele>316.60000610352</ele>
        <time>2025-05-27T12:34:20.000Z</time>
      </trkpt>
      <trkpt lat="49.62658" lon="5.49769">
        <ele>316.20001220703</ele>
        <time>2025-05-27T12:34:21.000Z</time>
      </trkpt>
      <trkpt lat="49.62658" lon="5.49759">
        <ele>315.60000610352</ele>
        <time>2025-05-27T12:34:22.000Z</time>
      </trkpt>
      <trkpt lat="49.62659" lon="5.4975">
        <ele>315</ele>
        <time>2025-05-27T12:34:23.000Z</time>
      </trkpt>
      <trkpt lat="49.62659" lon="5.49739">
        <ele>314.60000610352</ele>
        <time>2025-05-27T12:34:24.000Z</time>
      </trkpt>
      <trkpt lat="49.6266" lon="5.49719">
        <ele>313.79998779297</ele>
        <time>2025-05-27T12:34:26.000Z</time>
      </trkpt>
      <trkpt lat="49.62658" lon="5.49701">
        <ele>313.20001220703</ele>
        <time>2025-05-27T12:34:28.000Z</time>
      </trkpt>
      <trkpt lat="49.62658" lon="5.49694">
        <ele>313</ele>
        <time>2025-05-27T12:34:29.000Z</time>
      </trkpt>
      <trkpt lat="49.62657" lon="5.49688">
        <ele>312.60000610352</ele>
        <time>2025-05-27T12:34:30.000Z</time>
      </trkpt>
      <trkpt lat="49.62657" lon="5.49682">
        <ele>312.20001220703</ele>
        <time>2025-05-27T12:34:32.000Z</time>
      </trkpt>
      <trkpt lat="49.62666" lon="5.49683">
        <ele>312.39999389648</ele>
        <time>2025-05-27T12:34:40.000Z</time>
      </trkpt>
      <trkpt lat="49.62669" lon="5.49683">
        <ele>312.60000610352</ele>
        <time>2025-05-27T12:34:41.000Z</time>
      </trkpt>
      <trkpt lat="49.62685" lon="5.49685">
        <ele>313.20001220703</ele>
        <time>2025-05-27T12:34:47.000Z</time>
      </trkpt>
      <trkpt lat="49.62688" lon="5.49687">
        <ele>313.39999389648</ele>
        <time>2025-05-27T12:34:48.000Z</time>
      </trkpt>
      <trkpt lat="49.62702" lon="5.49689">
        <ele>314</ele>
        <time>2025-05-27T12:34:52.000Z</time>
      </trkpt>
      <trkpt lat="49.62709" lon="5.49691">
        <ele>314.20001220703</ele>
        <time>2025-05-27T12:34:54.000Z</time>
      </trkpt>
      <trkpt lat="49.62724" lon="5.49695">
        <ele>315</ele>
        <time>2025-05-27T12:34:57.000Z</time>
      </trkpt>
      <trkpt lat="49.62737" lon="5.49701">
        <ele>315.20001220703</ele>
        <time>2025-05-27T12:35:00.000Z</time>
      </trkpt>
      <trkpt lat="49.62748" lon="5.49706">
        <ele>315.39999389648</ele>
        <time>2025-05-27T12:35:03.000Z</time>
      </trkpt>
      <trkpt lat="49.62762" lon="5.4971">
        <ele>315.79998779297</ele>
        <time>2025-05-27T12:35:07.000Z</time>
      </trkpt>
      <trkpt lat="49.62765" lon="5.49711">
        <ele>316</ele>
        <time>2025-05-27T12:35:08.000Z</time>
      </trkpt>
      <trkpt lat="49.62778" lon="5.4971">
        <ele>316.39999389648</ele>
        <time>2025-05-27T12:35:12.000Z</time>
      </trkpt>
      <trkpt lat="49.62787" lon="5.49711">
        <ele>317.39999389648</ele>
        <time>2025-05-27T12:35:14.000Z</time>
      </trkpt>
      <trkpt lat="49.62802" lon="5.49715">
        <ele>319.79998779297</ele>
        <time>2025-05-27T12:35:18.000Z</time>
      </trkpt>
      <trkpt lat="49.6281" lon="5.49716">
        <ele>321</ele>
        <time>2025-05-27T12:35:20.000Z</time>
      </trkpt>
      <trkpt lat="49.62822" lon="5.49717">
        <ele>322.39999389648</ele>
        <time>2025-05-27T12:35:23.000Z</time>
      </trkpt>
      <trkpt lat="49.62833" lon="5.49721">
        <ele>323.60000610352</ele>
        <time>2025-05-27T12:35:26.000Z</time>
      </trkpt>
      <trkpt lat="49.6284" lon="5.49724">
        <ele>324</ele>
        <time>2025-05-27T12:35:28.000Z</time>
      </trkpt>
      <trkpt lat="49.62853" lon="5.49731">
        <ele>324</ele>
        <time>2025-05-27T12:35:33.000Z</time>
      </trkpt>
      <trkpt lat="49.62864" lon="5.49741">
        <ele>324</ele>
        <time>2025-05-27T12:35:37.000Z</time>
      </trkpt>
      <trkpt lat="49.62869" lon="5.49746">
        <ele>324.20001220703</ele>
        <time>2025-05-27T12:35:39.000Z</time>
      </trkpt>
      <trkpt lat="49.62878" lon="5.49757">
        <ele>324.79998779297</ele>
        <time>2025-05-27T12:35:43.000Z</time>
      </trkpt>
      <trkpt lat="49.62887" lon="5.49764">
        <ele>325.39999389648</ele>
        <time>2025-05-27T12:35:47.000Z</time>
      </trkpt>
      <trkpt lat="49.62889" lon="5.49766">
        <ele>325.39999389648</ele>
        <time>2025-05-27T12:35:48.000Z</time>
      </trkpt>
      <trkpt lat="49.62899" lon="5.49775">
        <ele>326.60000610352</ele>
        <time>2025-05-27T12:35:52.000Z</time>
      </trkpt>
      <trkpt lat="49.62903" lon="5.49778">
        <ele>327.20001220703</ele>
        <time>2025-05-27T12:35:53.000Z</time>
      </trkpt>
      <trkpt lat="49.62911" lon="5.49786">
        <ele>328.39999389648</ele>
        <time>2025-05-27T12:35:56.000Z</time>
      </trkpt>
      <trkpt lat="49.62918" lon="5.49794">
        <ele>329.39999389648</ele>
        <time>2025-05-27T12:35:59.000Z</time>
      </trkpt>
      <trkpt lat="49.62924" lon="5.49802">
        <ele>330.60000610352</ele>
        <time>2025-05-27T12:36:01.000Z</time>
      </trkpt>
      <trkpt lat="49.62928" lon="5.49813">
        <ele>331.60000610352</ele>
        <time>2025-05-27T12:36:03.000Z</time>
      </trkpt>
      <trkpt lat="49.6293" lon="5.49826">
        <ele>333</ele>
        <time>2025-05-27T12:36:06.000Z</time>
      </trkpt>
      <trkpt lat="49.62929" lon="5.49836">
        <ele>333.39999389648</ele>
        <time>2025-05-27T12:36:09.000Z</time>
      </trkpt>
      <trkpt lat="49.62928" lon="5.49846">
        <ele>333.39999389648</ele>
        <time>2025-05-27T12:36:12.000Z</time>
      </trkpt>
      <trkpt lat="49.62927" lon="5.4985">
        <ele>333.79998779297</ele>
        <time>2025-05-27T12:36:13.000Z</time>
      </trkpt>
      <trkpt lat="49.62923" lon="5.49862">
        <ele>334.20001220703</ele>
        <time>2025-05-27T12:36:16.000Z</time>
      </trkpt>
      <trkpt lat="49.62913" lon="5.49885">
        <ele>334.60000610352</ele>
        <time>2025-05-27T12:36:21.000Z</time>
      </trkpt>
      <trkpt lat="49.62906" lon="5.49901">
        <ele>335.39999389648</ele>
        <time>2025-05-27T12:36:26.000Z</time>
      </trkpt>
      <trkpt lat="49.62901" lon="5.49914">
        <ele>335.60000610352</ele>
        <time>2025-05-27T12:36:29.000Z</time>
      </trkpt>
      <trkpt lat="49.62898" lon="5.49936">
        <ele>336</ele>
        <time>2025-05-27T12:36:33.000Z</time>
      </trkpt>
      <trkpt lat="49.62897" lon="5.49947">
        <ele>336.60000610352</ele>
        <time>2025-05-27T12:36:35.000Z</time>
      </trkpt>
      <trkpt lat="49.62896" lon="5.49962">
        <ele>337</ele>
        <time>2025-05-27T12:36:38.000Z</time>
      </trkpt>
      <trkpt lat="49.62898" lon="5.49976">
        <ele>337.60000610352</ele>
        <time>2025-05-27T12:36:41.000Z</time>
      </trkpt>
      <trkpt lat="49.62906" lon="5.49984">
        <ele>338.79998779297</ele>
        <time>2025-05-27T12:36:45.000Z</time>
      </trkpt>
      <trkpt lat="49.62909" lon="5.49985">
        <ele>339.20001220703</ele>
        <time>2025-05-27T12:36:46.000Z</time>
      </trkpt>
      <trkpt lat="49.62929" lon="5.49991">
        <ele>341.39999389648</ele>
        <time>2025-05-27T12:36:52.000Z</time>
      </trkpt>
      <trkpt lat="49.62955" lon="5.49995">
        <ele>342.60000610352</ele>
        <time>2025-05-27T12:36:58.000Z</time>
      </trkpt>
      <trkpt lat="49.62977" lon="5.5">
        <ele>342</ele>
        <time>2025-05-27T12:37:03.000Z</time>
      </trkpt>
      <trkpt lat="49.62985" lon="5.50001">
        <ele>342</ele>
        <time>2025-05-27T12:37:05.000Z</time>
      </trkpt>
      <trkpt lat="49.63015" lon="5.50005">
        <ele>342.79998779297</ele>
        <time>2025-05-27T12:37:12.000Z</time>
      </trkpt>
      <trkpt lat="49.63028" lon="5.50006">
        <ele>343.79998779297</ele>
        <time>2025-05-27T12:37:15.000Z</time>
      </trkpt>
      <trkpt lat="49.63046" lon="5.50008">
        <ele>344.79998779297</ele>
        <time>2025-05-27T12:37:19.000Z</time>
      </trkpt>
      <trkpt lat="49.63083" lon="5.50009">
        <ele>347.20001220703</ele>
        <time>2025-05-27T12:37:26.000Z</time>
      </trkpt>
      <trkpt lat="49.63105" lon="5.50013">
        <ele>346.39999389648</ele>
        <time>2025-05-27T12:37:30.000Z</time>
      </trkpt>
      <trkpt lat="49.63124" lon="5.50016">
        <ele>345.20001220703</ele>
        <time>2025-05-27T12:37:34.000Z</time>
      </trkpt>
      <trkpt lat="49.63156" lon="5.50017">
        <ele>343.79998779297</ele>
        <time>2025-05-27T12:37:40.000Z</time>
      </trkpt>
      <trkpt lat="49.6319" lon="5.50021">
        <ele>344</ele>
        <time>2025-05-27T12:37:47.000Z</time>
      </trkpt>
      <trkpt lat="49.63194" lon="5.50021">
        <ele>344.20001220703</ele>
        <time>2025-05-27T12:37:48.000Z</time>
      </trkpt>
      <trkpt lat="49.63222" lon="5.50024">
        <ele>345.20001220703</ele>
        <time>2025-05-27T12:37:54.000Z</time>
      </trkpt>
      <trkpt lat="49.63242" lon="5.50033">
        <ele>343.60000610352</ele>
        <time>2025-05-27T12:37:58.000Z</time>
      </trkpt>
      <trkpt lat="49.63245" lon="5.50037">
        <ele>343.20001220703</ele>
        <time>2025-05-27T12:37:59.000Z</time>
      </trkpt>
      <trkpt lat="49.63247" lon="5.5004">
        <ele>343</ele>
        <time>2025-05-27T12:38:00.000Z</time>
      </trkpt>
      <trkpt lat="49.63247" lon="5.50048">
        <ele>342.79998779297</ele>
        <time>2025-05-27T12:38:02.000Z</time>
      </trkpt>
      <trkpt lat="49.63245" lon="5.50064">
        <ele>342</ele>
        <time>2025-05-27T12:38:05.000Z</time>
      </trkpt>
      <trkpt lat="49.63246" lon="5.5007">
        <ele>341.79998779297</ele>
        <time>2025-05-27T12:38:06.000Z</time>
      </trkpt>
      <trkpt lat="49.63254" lon="5.50099">
        <ele>341</ele>
        <time>2025-05-27T12:38:11.000Z</time>
      </trkpt>
      <trkpt lat="49.63264" lon="5.50124">
        <ele>340.20001220703</ele>
        <time>2025-05-27T12:38:17.000Z</time>
      </trkpt>
      <trkpt lat="49.6327" lon="5.5016">
        <ele>340</ele>
        <time>2025-05-27T12:38:22.000Z</time>
      </trkpt>
      <trkpt lat="49.63282" lon="5.50208">
        <ele>340</ele>
        <time>2025-05-27T12:38:29.000Z</time>
      </trkpt>
      <trkpt lat="49.63297" lon="5.50247">
        <ele>342.60000610352</ele>
        <time>2025-05-27T12:38:35.000Z</time>
      </trkpt>
      <trkpt lat="49.633" lon="5.50257">
        <ele>343</ele>
        <time>2025-05-27T12:38:37.000Z</time>
      </trkpt>
      <trkpt lat="49.63308" lon="5.5028">
        <ele>343.79998779297</ele>
        <time>2025-05-27T12:38:41.000Z</time>
      </trkpt>
      <trkpt lat="49.63322" lon="5.50308">
        <ele>343</ele>
        <time>2025-05-27T12:38:47.000Z</time>
      </trkpt>
      <trkpt lat="49.63325" lon="5.50325">
        <ele>342.79998779297</ele>
        <time>2025-05-27T12:38:51.000Z</time>
      </trkpt>
      <trkpt lat="49.63326" lon="5.50344">
        <ele>341.39999389648</ele>
        <time>2025-05-27T12:38:55.000Z</time>
      </trkpt>
      <trkpt lat="49.63328" lon="5.50349">
        <ele>341.20001220703</ele>
        <time>2025-05-27T12:38:56.000Z</time>
      </trkpt>
      <trkpt lat="49.63336" lon="5.50387">
        <ele>340</ele>
        <time>2025-05-27T12:39:02.000Z</time>
      </trkpt>
      <trkpt lat="49.63339" lon="5.50402">
        <ele>340</ele>
        <time>2025-05-27T12:39:04.000Z</time>
      </trkpt>
      <trkpt lat="49.63346" lon="5.50426">
        <ele>340.60000610352</ele>
        <time>2025-05-27T12:39:07.000Z</time>
      </trkpt>
      <trkpt lat="49.63355" lon="5.50463">
        <ele>342.60000610352</ele>
        <time>2025-05-27T12:39:13.000Z</time>
      </trkpt>
      <trkpt lat="49.63357" lon="5.5047">
        <ele>342.60000610352</ele>
        <time>2025-05-27T12:39:14.000Z</time>
      </trkpt>
      <trkpt lat="49.63365" lon="5.50508">
        <ele>344.79998779297</ele>
        <time>2025-05-27T12:39:20.000Z</time>
      </trkpt>
      <trkpt lat="49.63377" lon="5.50532">
        <ele>344.20001220703</ele>
        <time>2025-05-27T12:39:24.000Z</time>
      </trkpt>
      <trkpt lat="49.63381" lon="5.50546">
        <ele>343.39999389648</ele>
        <time>2025-05-27T12:39:26.000Z</time>
      </trkpt>
      <trkpt lat="49.63389" lon="5.50575">
        <ele>342.39999389648</ele>
        <time>2025-05-27T12:39:30.000Z</time>
      </trkpt>
      <trkpt lat="49.63399" lon="5.50627">
        <ele>340</ele>
        <time>2025-05-27T12:39:37.000Z</time>
      </trkpt>
      <trkpt lat="49.63409" lon="5.50661">
        <ele>340.60000610352</ele>
        <time>2025-05-27T12:39:42.000Z</time>
      </trkpt>
      <trkpt lat="49.63413" lon="5.50681">
        <ele>341.20001220703</ele>
        <time>2025-05-27T12:39:45.000Z</time>
      </trkpt>
      <trkpt lat="49.63415" lon="5.50696">
        <ele>341.79998779297</ele>
        <time>2025-05-27T12:39:47.000Z</time>
      </trkpt>
      <trkpt lat="49.63419" lon="5.50719">
        <ele>342.79998779297</ele>
        <time>2025-05-27T12:39:50.000Z</time>
      </trkpt>
      <trkpt lat="49.63422" lon="5.50738">
        <ele>343</ele>
        <time>2025-05-27T12:39:53.000Z</time>
      </trkpt>
      <trkpt lat="49.63424" lon="5.50762">
        <ele>343.20001220703</ele>
        <time>2025-05-27T12:39:58.000Z</time>
      </trkpt>
      <trkpt lat="49.63424" lon="5.50768">
        <ele>343.20001220703</ele>
        <time>2025-05-27T12:39:59.000Z</time>
      </trkpt>
      <trkpt lat="49.63425" lon="5.50791">
        <ele>343.60000610352</ele>
        <time>2025-05-27T12:40:03.000Z</time>
      </trkpt>
      <trkpt lat="49.63433" lon="5.50838">
        <ele>345.20001220703</ele>
        <time>2025-05-27T12:40:10.000Z</time>
      </trkpt>
      <trkpt lat="49.63441" lon="5.50884">
        <ele>348.60000610352</ele>
        <time>2025-05-27T12:40:17.000Z</time>
      </trkpt>
      <trkpt lat="49.63441" lon="5.50909">
        <ele>350.39999389648</ele>
        <time>2025-05-27T12:40:21.000Z</time>
      </trkpt>
      <trkpt lat="49.63444" lon="5.50927">
        <ele>350.60000610352</ele>
        <time>2025-05-27T12:40:24.000Z</time>
      </trkpt>
      <trkpt lat="49.63454" lon="5.50975">
        <ele>349.79998779297</ele>
        <time>2025-05-27T12:40:30.000Z</time>
      </trkpt>
      <trkpt lat="49.63457" lon="5.50992">
        <ele>349.60000610352</ele>
        <time>2025-05-27T12:40:32.000Z</time>
      </trkpt>
      <trkpt lat="49.6346" lon="5.51014">
        <ele>349.20001220703</ele>
        <time>2025-05-27T12:40:35.000Z</time>
      </trkpt>
      <trkpt lat="49.63466" lon="5.51061">
        <ele>349.39999389648</ele>
        <time>2025-05-27T12:40:41.000Z</time>
      </trkpt>
      <trkpt lat="49.63468" lon="5.51121">
        <ele>349.39999389648</ele>
        <time>2025-05-27T12:40:49.000Z</time>
      </trkpt>
      <trkpt lat="49.63468" lon="5.51129">
        <ele>349.39999389648</ele>
        <time>2025-05-27T12:40:50.000Z</time>
      </trkpt>
      <trkpt lat="49.63469" lon="5.51157">
        <ele>349.39999389648</ele>
        <time>2025-05-27T12:40:54.000Z</time>
      </trkpt>
      <trkpt lat="49.63467" lon="5.51201">
        <ele>350.60000610352</ele>
        <time>2025-05-27T12:41:00.000Z</time>
      </trkpt>
      <trkpt lat="49.63466" lon="5.51209">
        <ele>350.79998779297</ele>
        <time>2025-05-27T12:41:01.000Z</time>
      </trkpt>
      <trkpt lat="49.63468" lon="5.5123">
        <ele>351.60000610352</ele>
        <time>2025-05-27T12:41:04.000Z</time>
      </trkpt>
      <trkpt lat="49.63468" lon="5.51236">
        <ele>352</ele>
        <time>2025-05-27T12:41:05.000Z</time>
      </trkpt>
      <trkpt lat="49.63469" lon="5.5124">
        <ele>352.20001220703</ele>
        <time>2025-05-27T12:41:06.000Z</time>
      </trkpt>
      <trkpt lat="49.63473" lon="5.51244">
        <ele>352.60000610352</ele>
        <time>2025-05-27T12:41:08.000Z</time>
      </trkpt>
      <trkpt lat="49.63476" lon="5.51246">
        <ele>352.79998779297</ele>
        <time>2025-05-27T12:41:09.000Z</time>
      </trkpt>
      <trkpt lat="49.63478" lon="5.51246">
        <ele>353.20001220703</ele>
        <time>2025-05-27T12:41:10.000Z</time>
      </trkpt>
      <trkpt lat="49.63501" lon="5.51254">
        <ele>356</ele>
        <time>2025-05-27T12:41:16.000Z</time>
      </trkpt>
      <trkpt lat="49.63522" lon="5.51261">
        <ele>355.79998779297</ele>
        <time>2025-05-27T12:41:22.000Z</time>
      </trkpt>
      <trkpt lat="49.63527" lon="5.51264">
        <ele>355.79998779297</ele>
        <time>2025-05-27T12:41:24.000Z</time>
      </trkpt>
      <trkpt lat="49.63525" lon="5.51272">
        <ele>356.79998779297</ele>
        <time>2025-05-27T12:41:27.000Z</time>
      </trkpt>
      <trkpt lat="49.63522" lon="5.51277">
        <ele>357.20001220703</ele>
        <time>2025-05-27T12:41:29.000Z</time>
      </trkpt>
      <trkpt lat="49.63515" lon="5.51287">
        <ele>358.60000610352</ele>
        <time>2025-05-27T12:41:32.000Z</time>
      </trkpt>
      <trkpt lat="49.63512" lon="5.51299">
        <ele>359</ele>
        <time>2025-05-27T12:41:35.000Z</time>
      </trkpt>
      <trkpt lat="49.63509" lon="5.51314">
        <ele>359.79998779297</ele>
        <time>2025-05-27T12:41:38.000Z</time>
      </trkpt>
      <trkpt lat="49.63506" lon="5.51326">
        <ele>360</ele>
        <time>2025-05-27T12:41:40.000Z</time>
      </trkpt>
      <trkpt lat="49.63505" lon="5.51347">
        <ele>360.60000610352</ele>
        <time>2025-05-27T12:41:44.000Z</time>
      </trkpt>
      <trkpt lat="49.63503" lon="5.51391">
        <ele>361.79998779297</ele>
        <time>2025-05-27T12:41:51.000Z</time>
      </trkpt>
      <trkpt lat="49.63505" lon="5.51428">
        <ele>360</ele>
        <time>2025-05-27T12:41:58.000Z</time>
      </trkpt>
      <trkpt lat="49.63505" lon="5.51456">
        <ele>357.79998779297</ele>
        <time>2025-05-27T12:42:03.000Z</time>
      </trkpt>
      <trkpt lat="49.6351" lon="5.51485">
        <ele>357.20001220703</ele>
        <time>2025-05-27T12:42:09.000Z</time>
      </trkpt>
      <trkpt lat="49.63514" lon="5.51516">
        <ele>356.60000610352</ele>
        <time>2025-05-27T12:42:16.000Z</time>
      </trkpt>
      <trkpt lat="49.63515" lon="5.5152">
        <ele>356.39999389648</ele>
        <time>2025-05-27T12:42:17.000Z</time>
      </trkpt>
      <trkpt lat="49.63514" lon="5.51533">
        <ele>356</ele>
        <time>2025-05-27T12:42:21.000Z</time>
      </trkpt>
      <trkpt lat="49.63515" lon="5.51545">
        <ele>355.79998779297</ele>
        <time>2025-05-27T12:42:24.000Z</time>
      </trkpt>
      <trkpt lat="49.63525" lon="5.51571">
        <ele>356.60000610352</ele>
        <time>2025-05-27T12:42:28.000Z</time>
      </trkpt>
      <trkpt lat="49.63529" lon="5.51579">
        <ele>356.79998779297</ele>
        <time>2025-05-27T12:42:29.000Z</time>
      </trkpt>
      <trkpt lat="49.63549" lon="5.51625">
        <ele>358.39999389648</ele>
        <time>2025-05-27T12:42:36.000Z</time>
      </trkpt>
      <trkpt lat="49.63569" lon="5.51661">
        <ele>360.39999389648</ele>
        <time>2025-05-27T12:42:43.000Z</time>
      </trkpt>
      <trkpt lat="49.63593" lon="5.51706">
        <ele>363.79998779297</ele>
        <time>2025-05-27T12:42:52.000Z</time>
      </trkpt>
      <trkpt lat="49.63598" lon="5.51716">
        <ele>363.60000610352</ele>
        <time>2025-05-27T12:42:54.000Z</time>
      </trkpt>
      <trkpt lat="49.63606" lon="5.51735">
        <ele>363.20001220703</ele>
        <time>2025-05-27T12:42:58.000Z</time>
      </trkpt>
      <trkpt lat="49.63619" lon="5.51767">
        <ele>362.60000610352</ele>
        <time>2025-05-27T12:43:03.000Z</time>
      </trkpt>
      <trkpt lat="49.63636" lon="5.51797">
        <ele>362</ele>
        <time>2025-05-27T12:43:09.000Z</time>
      </trkpt>
      <trkpt lat="49.63656" lon="5.51828">
        <ele>362.20001220703</ele>
        <time>2025-05-27T12:43:17.000Z</time>
      </trkpt>
      <trkpt lat="49.63664" lon="5.51839">
        <ele>362.39999389648</ele>
        <time>2025-05-27T12:43:20.000Z</time>
      </trkpt>
      <trkpt lat="49.6367" lon="5.51841">
        <ele>362.79998779297</ele>
        <time>2025-05-27T12:43:22.000Z</time>
      </trkpt>
      <trkpt lat="49.63677" lon="5.51829">
        <ele>364</ele>
        <time>2025-05-27T12:43:26.000Z</time>
      </trkpt>
      <trkpt lat="49.63679" lon="5.51826">
        <ele>364.20001220703</ele>
        <time>2025-05-27T12:43:27.000Z</time>
      </trkpt>
      <trkpt lat="49.6368" lon="5.51822">
        <ele>364.39999389648</ele>
        <time>2025-05-27T12:43:28.000Z</time>
      </trkpt>
      <trkpt lat="49.63688" lon="5.51794">
        <ele>366.20001220703</ele>
        <time>2025-05-27T12:43:34.000Z</time>
      </trkpt>
      <trkpt lat="49.63693" lon="5.51769">
        <ele>366.60000610352</ele>
        <time>2025-05-27T12:43:39.000Z</time>
      </trkpt>
      <trkpt lat="49.63697" lon="5.51751">
        <ele>367</ele>
        <time>2025-05-27T12:43:43.000Z</time>
      </trkpt>
      <trkpt lat="49.63698" lon="5.51746">
        <ele>367.20001220703</ele>
        <time>2025-05-27T12:43:44.000Z</time>
      </trkpt>
      <trkpt lat="49.63708" lon="5.51723">
        <ele>368.39999389648</ele>
        <time>2025-05-27T12:43:49.000Z</time>
      </trkpt>
      <trkpt lat="49.63717" lon="5.517">
        <ele>370</ele>
        <time>2025-05-27T12:43:54.000Z</time>
      </trkpt>
      <trkpt lat="49.6372" lon="5.51689">
        <ele>371</ele>
        <time>2025-05-27T12:43:56.000Z</time>
      </trkpt>
      <trkpt lat="49.63725" lon="5.51667">
        <ele>372</ele>
        <time>2025-05-27T12:44:00.000Z</time>
      </trkpt>
      <trkpt lat="49.63727" lon="5.51662">
        <ele>372.20001220703</ele>
        <time>2025-05-27T12:44:01.000Z</time>
      </trkpt>
      <trkpt lat="49.6374" lon="5.51629">
        <ele>373.79998779297</ele>
        <time>2025-05-27T12:44:07.000Z</time>
      </trkpt>
      <trkpt lat="49.63744" lon="5.51617">
        <ele>374.39999389648</ele>
        <time>2025-05-27T12:44:09.000Z</time>
      </trkpt>
      <trkpt lat="49.63751" lon="5.51594">
        <ele>374.20001220703</ele>
        <time>2025-05-27T12:44:13.000Z</time>
      </trkpt>
      <trkpt lat="49.63763" lon="5.51573">
        <ele>373</ele>
        <time>2025-05-27T12:44:18.000Z</time>
      </trkpt>
      <trkpt lat="49.63766" lon="5.51567">
        <ele>372.39999389648</ele>
        <time>2025-05-27T12:44:19.000Z</time>
      </trkpt>
      <trkpt lat="49.63781" lon="5.51537">
        <ele>370.60000610352</ele>
        <time>2025-05-27T12:44:24.000Z</time>
      </trkpt>
      <trkpt lat="49.63787" lon="5.51522">
        <ele>369.60000610352</ele>
        <time>2025-05-27T12:44:26.000Z</time>
      </trkpt>
      <trkpt lat="49.63788" lon="5.51505">
        <ele>369</ele>
        <time>2025-05-27T12:44:28.000Z</time>
      </trkpt>
      <trkpt lat="49.6379" lon="5.51489">
        <ele>369.20001220703</ele>
        <time>2025-05-27T12:44:30.000Z</time>
      </trkpt>
      <trkpt lat="49.63793" lon="5.51464">
        <ele>369.20001220703</ele>
        <time>2025-05-27T12:44:33.000Z</time>
      </trkpt>
      <trkpt lat="49.63795" lon="5.51456">
        <ele>369</ele>
        <time>2025-05-27T12:44:34.000Z</time>
      </trkpt>
      <trkpt lat="49.63797" lon="5.51448">
        <ele>368.79998779297</ele>
        <time>2025-05-27T12:44:35.000Z</time>
      </trkpt>
      <trkpt lat="49.63801" lon="5.5144">
        <ele>368.79998779297</ele>
        <time>2025-05-27T12:44:36.000Z</time>
      </trkpt>
      <trkpt lat="49.6381" lon="5.51425">
        <ele>368.60000610352</ele>
        <time>2025-05-27T12:44:38.000Z</time>
      </trkpt>
      <trkpt lat="49.63814" lon="5.51418">
        <ele>368.60000610352</ele>
        <time>2025-05-27T12:44:39.000Z</time>
      </trkpt>
      <trkpt lat="49.63825" lon="5.51404">
        <ele>368.39999389648</ele>
        <time>2025-05-27T12:44:41.000Z</time>
      </trkpt>
      <trkpt lat="49.63845" lon="5.51376">
        <ele>366.20001220703</ele>
        <time>2025-05-27T12:44:45.000Z</time>
      </trkpt>
      <trkpt lat="49.63862" lon="5.51354">
        <ele>363.20001220703</ele>
        <time>2025-05-27T12:44:48.000Z</time>
      </trkpt>
      <trkpt lat="49.63878" lon="5.51338">
        <ele>361.60000610352</ele>
        <time>2025-05-27T12:44:50.000Z</time>
      </trkpt>
      <trkpt lat="49.63886" lon="5.5133">
        <ele>360.79998779297</ele>
        <time>2025-05-27T12:44:51.000Z</time>
      </trkpt>
      <trkpt lat="49.63894" lon="5.51322">
        <ele>359.79998779297</ele>
        <time>2025-05-27T12:44:52.000Z</time>
      </trkpt>
      <trkpt lat="49.63901" lon="5.51317">
        <ele>358.39999389648</ele>
        <time>2025-05-27T12:44:53.000Z</time>
      </trkpt>
      <trkpt lat="49.63909" lon="5.51312">
        <ele>357</ele>
        <time>2025-05-27T12:44:54.000Z</time>
      </trkpt>
      <trkpt lat="49.63917" lon="5.5131">
        <ele>355.60000610352</ele>
        <time>2025-05-27T12:44:55.000Z</time>
      </trkpt>
      <trkpt lat="49.63932" lon="5.51298">
        <ele>352.79998779297</ele>
        <time>2025-05-27T12:44:57.000Z</time>
      </trkpt>
      <trkpt lat="49.63939" lon="5.51292">
        <ele>351.60000610352</ele>
        <time>2025-05-27T12:44:58.000Z</time>
      </trkpt>
      <trkpt lat="49.63946" lon="5.51286">
        <ele>349.79998779297</ele>
        <time>2025-05-27T12:44:59.000Z</time>
      </trkpt>
      <trkpt lat="49.63958" lon="5.51273">
        <ele>347.60000610352</ele>
        <time>2025-05-27T12:45:01.000Z</time>
      </trkpt>
      <trkpt lat="49.6397" lon="5.51262">
        <ele>345.79998779297</ele>
        <time>2025-05-27T12:45:03.000Z</time>
      </trkpt>
      <trkpt lat="49.63976" lon="5.51258">
        <ele>345.20001220703</ele>
        <time>2025-05-27T12:45:04.000Z</time>
      </trkpt>
      <trkpt lat="49.63999" lon="5.51253">
        <ele>345.20001220703</ele>
        <time>2025-05-27T12:45:08.000Z</time>
      </trkpt>
      <trkpt lat="49.64004" lon="5.51253">
        <ele>345.39999389648</ele>
        <time>2025-05-27T12:45:09.000Z</time>
      </trkpt>
      <trkpt lat="49.6401" lon="5.51253">
        <ele>345.79998779297</ele>
        <time>2025-05-27T12:45:10.000Z</time>
      </trkpt>
      <trkpt lat="49.64014" lon="5.51253">
        <ele>346.20001220703</ele>
        <time>2025-05-27T12:45:11.000Z</time>
      </trkpt>
      <trkpt lat="49.64024" lon="5.5125">
        <ele>347.20001220703</ele>
        <time>2025-05-27T12:45:13.000Z</time>
      </trkpt>
      <trkpt lat="49.64043" lon="5.51235">
        <ele>347.60000610352</ele>
        <time>2025-05-27T12:45:17.000Z</time>
      </trkpt>
      <trkpt lat="49.64047" lon="5.5123">
        <ele>347.79998779297</ele>
        <time>2025-05-27T12:45:18.000Z</time>
      </trkpt>
      <trkpt lat="49.64069" lon="5.51209">
        <ele>349.20001220703</ele>
        <time>2025-05-27T12:45:23.000Z</time>
      </trkpt>
      <trkpt lat="49.64074" lon="5.51205">
        <ele>349.20001220703</ele>
        <time>2025-05-27T12:45:24.000Z</time>
      </trkpt>
      <trkpt lat="49.64094" lon="5.51191">
        <ele>349</ele>
        <time>2025-05-27T12:45:29.000Z</time>
      </trkpt>
      <trkpt lat="49.64098" lon="5.51189">
        <ele>349.20001220703</ele>
        <time>2025-05-27T12:45:30.000Z</time>
      </trkpt>
      <trkpt lat="49.64108" lon="5.51186">
        <ele>349.39999389648</ele>
        <time>2025-05-27T12:45:32.000Z</time>
      </trkpt>
      <trkpt lat="49.64125" lon="5.51183">
        <ele>349.60000610352</ele>
        <time>2025-05-27T12:45:35.000Z</time>
      </trkpt>
      <trkpt lat="49.64162" lon="5.51172">
        <ele>348.60000610352</ele>
        <time>2025-05-27T12:45:42.000Z</time>
      </trkpt>
      <trkpt lat="49.64196" lon="5.51168">
        <ele>349</ele>
        <time>2025-05-27T12:45:49.000Z</time>
      </trkpt>
      <trkpt lat="49.64232" lon="5.5117">
        <ele>349.20001220703</ele>
        <time>2025-05-27T12:45:56.000Z</time>
      </trkpt>
      <trkpt lat="49.64271" lon="5.51176">
        <ele>349</ele>
        <time>2025-05-27T12:46:04.000Z</time>
      </trkpt>
      <trkpt lat="49.6428" lon="5.51178">
        <ele>349.20001220703</ele>
        <time>2025-05-27T12:46:06.000Z</time>
      </trkpt>
      <trkpt lat="49.64305" lon="5.51182">
        <ele>349.79998779297</ele>
        <time>2025-05-27T12:46:10.000Z</time>
      </trkpt>
      <trkpt lat="49.64352" lon="5.51181">
        <ele>350</ele>
        <time>2025-05-27T12:46:18.000Z</time>
      </trkpt>
      <trkpt lat="49.64364" lon="5.51181">
        <ele>350.39999389648</ele>
        <time>2025-05-27T12:46:20.000Z</time>
      </trkpt>
      <trkpt lat="49.64391" lon="5.5118">
        <ele>351.79998779297</ele>
        <time>2025-05-27T12:46:25.000Z</time>
      </trkpt>
      <trkpt lat="49.64402" lon="5.5118">
        <ele>352.20001220703</ele>
        <time>2025-05-27T12:46:27.000Z</time>
      </trkpt>
      <trkpt lat="49.64406" lon="5.51179">
        <ele>352.39999389648</ele>
        <time>2025-05-27T12:46:28.000Z</time>
      </trkpt>
      <trkpt lat="49.64416" lon="5.51178">
        <ele>352.60000610352</ele>
        <time>2025-05-27T12:46:30.000Z</time>
      </trkpt>
      <trkpt lat="49.6442" lon="5.51177">
        <ele>352.79998779297</ele>
        <time>2025-05-27T12:46:31.000Z</time>
      </trkpt>
      <trkpt lat="49.64437" lon="5.51177">
        <ele>353</ele>
        <time>2025-05-27T12:46:35.000Z</time>
      </trkpt>
      <trkpt lat="49.64442" lon="5.51175">
        <ele>352.79998779297</ele>
        <time>2025-05-27T12:46:36.000Z</time>
      </trkpt>
      <trkpt lat="49.64447" lon="5.51175">
        <ele>352.79998779297</ele>
        <time>2025-05-27T12:46:37.000Z</time>
      </trkpt>
      <trkpt lat="49.6446" lon="5.51172">
        <ele>352.60000610352</ele>
        <time>2025-05-27T12:46:40.000Z</time>
      </trkpt>
      <trkpt lat="49.64484" lon="5.51167">
        <ele>352</ele>
        <time>2025-05-27T12:46:45.000Z</time>
      </trkpt>
      <trkpt lat="49.64499" lon="5.51166">
        <ele>352</ele>
        <time>2025-05-27T12:46:48.000Z</time>
      </trkpt>
      <trkpt lat="49.64519" lon="5.51166">
        <ele>351.79998779297</ele>
        <time>2025-05-27T12:46:52.000Z</time>
      </trkpt>
      <trkpt lat="49.64545" lon="5.5117">
        <ele>353</ele>
        <time>2025-05-27T12:46:57.000Z</time>
      </trkpt>
      <trkpt lat="49.6455" lon="5.51171">
        <ele>353.39999389648</ele>
        <time>2025-05-27T12:46:58.000Z</time>
      </trkpt>
      <trkpt lat="49.64592" lon="5.51181">
        <ele>354.20001220703</ele>
        <time>2025-05-27T12:47:05.000Z</time>
      </trkpt>
      <trkpt lat="49.64631" lon="5.5119">
        <ele>356.60000610352</ele>
        <time>2025-05-27T12:47:12.000Z</time>
      </trkpt>
      <trkpt lat="49.6465" lon="5.51196">
        <ele>357.60000610352</ele>
        <time>2025-05-27T12:47:16.000Z</time>
      </trkpt>
      <trkpt lat="49.64677" lon="5.51202">
        <ele>357</ele>
        <time>2025-05-27T12:47:21.000Z</time>
      </trkpt>
      <trkpt lat="49.64682" lon="5.51204">
        <ele>357.39999389648</ele>
        <time>2025-05-27T12:47:22.000Z</time>
      </trkpt>
      <trkpt lat="49.64704" lon="5.51208">
        <ele>357.79998779297</ele>
        <time>2025-05-27T12:47:26.000Z</time>
      </trkpt>
      <trkpt lat="49.64742" lon="5.51216">
        <ele>359</ele>
        <time>2025-05-27T12:47:33.000Z</time>
      </trkpt>
      <trkpt lat="49.64778" lon="5.51227">
        <ele>360.39999389648</ele>
        <time>2025-05-27T12:47:40.000Z</time>
      </trkpt>
      <trkpt lat="49.648" lon="5.51232">
        <ele>359</ele>
        <time>2025-05-27T12:47:44.000Z</time>
      </trkpt>
      <trkpt lat="49.64815" lon="5.51239">
        <ele>358.20001220703</ele>
        <time>2025-05-27T12:47:47.000Z</time>
      </trkpt>
      <trkpt lat="49.64836" lon="5.51252">
        <ele>357.39999389648</ele>
        <time>2025-05-27T12:47:51.000Z</time>
      </trkpt>
      <trkpt lat="49.64847" lon="5.51261">
        <ele>357.60000610352</ele>
        <time>2025-05-27T12:47:53.000Z</time>
      </trkpt>
      <trkpt lat="49.64856" lon="5.51273">
        <ele>358</ele>
        <time>2025-05-27T12:47:55.000Z</time>
      </trkpt>
      <trkpt lat="49.64872" lon="5.51293">
        <ele>357.39999389648</ele>
        <time>2025-05-27T12:47:58.000Z</time>
      </trkpt>
      <trkpt lat="49.64898" lon="5.51314">
        <ele>355</ele>
        <time>2025-05-27T12:48:03.000Z</time>
      </trkpt>
      <trkpt lat="49.64918" lon="5.51309">
        <ele>355.20001220703</ele>
        <time>2025-05-27T12:48:07.000Z</time>
      </trkpt>
      <trkpt lat="49.64937" lon="5.51297">
        <ele>355.60000610352</ele>
        <time>2025-05-27T12:48:12.000Z</time>
      </trkpt>
      <trkpt lat="49.64949" lon="5.51289">
        <ele>355.79998779297</ele>
        <time>2025-05-27T12:48:15.000Z</time>
      </trkpt>
      <trkpt lat="49.64962" lon="5.5128">
        <ele>356.60000610352</ele>
        <time>2025-05-27T12:48:19.000Z</time>
      </trkpt>
      <trkpt lat="49.64965" lon="5.51278">
        <ele>356.79998779297</ele>
        <time>2025-05-27T12:48:20.000Z</time>
      </trkpt>
      <trkpt lat="49.64979" lon="5.51269">
        <ele>358.39999389648</ele>
        <time>2025-05-27T12:48:24.000Z</time>
      </trkpt>
      <trkpt lat="49.64987" lon="5.51265">
        <ele>359.39999389648</ele>
        <time>2025-05-27T12:48:26.000Z</time>
      </trkpt>
      <trkpt lat="49.64994" lon="5.5126">
        <ele>360.79998779297</ele>
        <time>2025-05-27T12:48:28.000Z</time>
      </trkpt>
      <trkpt lat="49.65006" lon="5.51251">
        <ele>363.20001220703</ele>
        <time>2025-05-27T12:48:32.000Z</time>
      </trkpt>
      <trkpt lat="49.6501" lon="5.51249">
        <ele>363.60000610352</ele>
        <time>2025-05-27T12:48:33.000Z</time>
      </trkpt>
      <trkpt lat="49.65024" lon="5.51242">
        <ele>365.20001220703</ele>
        <time>2025-05-27T12:48:37.000Z</time>
      </trkpt>
      <trkpt lat="49.65027" lon="5.51241">
        <ele>365.39999389648</ele>
        <time>2025-05-27T12:48:38.000Z</time>
      </trkpt>
      <trkpt lat="49.6505" lon="5.51244">
        <ele>366.60000610352</ele>
        <time>2025-05-27T12:48:44.000Z</time>
      </trkpt>
      <trkpt lat="49.65088" lon="5.51253">
        <ele>367</ele>
        <time>2025-05-27T12:48:52.000Z</time>
      </trkpt>
      <trkpt lat="49.65122" lon="5.51263">
        <ele>366.79998779297</ele>
        <time>2025-05-27T12:48:59.000Z</time>
      </trkpt>
      <trkpt lat="49.65158" lon="5.51272">
        <ele>368</ele>
        <time>2025-05-27T12:49:07.000Z</time>
      </trkpt>
      <trkpt lat="49.65163" lon="5.51272">
        <ele>368.20001220703</ele>
        <time>2025-05-27T12:49:08.000Z</time>
      </trkpt>
      <trkpt lat="49.65189" lon="5.5128">
        <ele>369</ele>
        <time>2025-05-27T12:49:13.000Z</time>
      </trkpt>
      <trkpt lat="49.65201" lon="5.51284">
        <ele>368.79998779297</ele>
        <time>2025-05-27T12:49:15.000Z</time>
      </trkpt>
      <trkpt lat="49.65238" lon="5.51291">
        <ele>364.20001220703</ele>
        <time>2025-05-27T12:49:22.000Z</time>
      </trkpt>
      <trkpt lat="49.65255" lon="5.51293">
        <ele>362.60000610352</ele>
        <time>2025-05-27T12:49:27.000Z</time>
      </trkpt>
      <trkpt lat="49.65263" lon="5.51293">
        <ele>362.79998779297</ele>
        <time>2025-05-27T12:49:29.000Z</time>
      </trkpt>
      <trkpt lat="49.6527" lon="5.51286">
        <ele>362.60000610352</ele>
        <time>2025-05-27T12:49:31.000Z</time>
      </trkpt>
      <trkpt lat="49.65275" lon="5.51275">
        <ele>361.79998779297</ele>
        <time>2025-05-27T12:49:33.000Z</time>
      </trkpt>
      <trkpt lat="49.65281" lon="5.51265">
        <ele>361.39999389648</ele>
        <time>2025-05-27T12:49:35.000Z</time>
      </trkpt>
      <trkpt lat="49.65304" lon="5.51218">
        <ele>363</ele>
        <time>2025-05-27T12:49:43.000Z</time>
      </trkpt>
      <trkpt lat="49.65326" lon="5.51164">
        <ele>366</ele>
        <time>2025-05-27T12:49:52.000Z</time>
      </trkpt>
      <trkpt lat="49.65353" lon="5.51086">
        <ele>364</ele>
        <time>2025-05-27T12:50:04.000Z</time>
      </trkpt>
      <trkpt lat="49.65377" lon="5.51007">
        <ele>357.39999389648</ele>
        <time>2025-05-27T12:50:15.000Z</time>
      </trkpt>
      <trkpt lat="49.65386" lon="5.50976">
        <ele>355</ele>
        <time>2025-05-27T12:50:19.000Z</time>
      </trkpt>
      <trkpt lat="49.65395" lon="5.50949">
        <ele>353.39999389648</ele>
        <time>2025-05-27T12:50:23.000Z</time>
      </trkpt>
      <trkpt lat="49.65412" lon="5.5091">
        <ele>352.79998779297</ele>
        <time>2025-05-27T12:50:29.000Z</time>
      </trkpt>
      <trkpt lat="49.6542" lon="5.50899">
        <ele>353</ele>
        <time>2025-05-27T12:50:31.000Z</time>
      </trkpt>
      <trkpt lat="49.65429" lon="5.50904">
        <ele>353.60000610352</ele>
        <time>2025-05-27T12:50:33.000Z</time>
      </trkpt>
      <trkpt lat="49.65437" lon="5.50916">
        <ele>354.20001220703</ele>
        <time>2025-05-27T12:50:35.000Z</time>
      </trkpt>
      <trkpt lat="49.65446" lon="5.50926">
        <ele>355.20001220703</ele>
        <time>2025-05-27T12:50:37.000Z</time>
      </trkpt>
      <trkpt lat="49.6548" lon="5.50964">
        <ele>357.60000610352</ele>
        <time>2025-05-27T12:50:45.000Z</time>
      </trkpt>
      <trkpt lat="49.65501" lon="5.50989">
        <ele>356.60000610352</ele>
        <time>2025-05-27T12:50:50.000Z</time>
      </trkpt>
      <trkpt lat="49.65518" lon="5.51008">
        <ele>356</ele>
        <time>2025-05-27T12:50:54.000Z</time>
      </trkpt>
      <trkpt lat="49.65541" lon="5.51033">
        <ele>357.20001220703</ele>
        <time>2025-05-27T12:51:00.000Z</time>
      </trkpt>
      <trkpt lat="49.65545" lon="5.51037">
        <ele>357.79998779297</ele>
        <time>2025-05-27T12:51:01.000Z</time>
      </trkpt>
      <trkpt lat="49.6558" lon="5.51066">
        <ele>360</ele>
        <time>2025-05-27T12:51:09.000Z</time>
      </trkpt>
      <trkpt lat="49.65624" lon="5.51088">
        <ele>360.39999389648</ele>
        <time>2025-05-27T12:51:18.000Z</time>
      </trkpt>
      <trkpt lat="49.65669" lon="5.51105">
        <ele>361</ele>
        <time>2025-05-27T12:51:27.000Z</time>
      </trkpt>
      <trkpt lat="49.65676" lon="5.51109">
        <ele>361.20001220703</ele>
        <time>2025-05-27T12:51:29.000Z</time>
      </trkpt>
      <trkpt lat="49.65681" lon="5.51118">
        <ele>361.20001220703</ele>
        <time>2025-05-27T12:51:31.000Z</time>
      </trkpt>
      <trkpt lat="49.65681" lon="5.51124">
        <ele>361</ele>
        <time>2025-05-27T12:51:32.000Z</time>
      </trkpt>
      <trkpt lat="49.65678" lon="5.51143">
        <ele>361</ele>
        <time>2025-05-27T12:51:35.000Z</time>
      </trkpt>
      <trkpt lat="49.65677" lon="5.5115">
        <ele>361</ele>
        <time>2025-05-27T12:51:36.000Z</time>
      </trkpt>
      <trkpt lat="49.65667" lon="5.51225">
        <ele>361.60000610352</ele>
        <time>2025-05-27T12:51:46.000Z</time>
      </trkpt>
      <trkpt lat="49.6566" lon="5.513">
        <ele>366.20001220703</ele>
        <time>2025-05-27T12:51:55.000Z</time>
      </trkpt>
      <trkpt lat="49.65656" lon="5.51386">
        <ele>367.60000610352</ele>
        <time>2025-05-27T12:52:05.000Z</time>
      </trkpt>
      <trkpt lat="49.65656" lon="5.51394">
        <ele>367.79998779297</ele>
        <time>2025-05-27T12:52:06.000Z</time>
      </trkpt>
      <trkpt lat="49.65654" lon="5.51411">
        <ele>367.60000610352</ele>
        <time>2025-05-27T12:52:08.000Z</time>
      </trkpt>
      <trkpt lat="49.65655" lon="5.51418">
        <ele>367.39999389648</ele>
        <time>2025-05-27T12:52:09.000Z</time>
      </trkpt>
      <trkpt lat="49.65653" lon="5.51432">
        <ele>368</ele>
        <time>2025-05-27T12:52:11.000Z</time>
      </trkpt>
      <trkpt lat="49.65652" lon="5.51477">
        <ele>367.60000610352</ele>
        <time>2025-05-27T12:52:17.000Z</time>
      </trkpt>
      <trkpt lat="49.65651" lon="5.51498">
        <ele>367.79998779297</ele>
        <time>2025-05-27T12:52:20.000Z</time>
      </trkpt>
      <trkpt lat="49.65647" lon="5.51517">
        <ele>368.39999389648</ele>
        <time>2025-05-27T12:52:23.000Z</time>
      </trkpt>
      <trkpt lat="49.65646" lon="5.51524">
        <ele>368.60000610352</ele>
        <time>2025-05-27T12:52:24.000Z</time>
      </trkpt>
      <trkpt lat="49.65637" lon="5.51557">
        <ele>369.20001220703</ele>
        <time>2025-05-27T12:52:29.000Z</time>
      </trkpt>
      <trkpt lat="49.65636" lon="5.51564">
        <ele>369.20001220703</ele>
        <time>2025-05-27T12:52:30.000Z</time>
      </trkpt>
      <trkpt lat="49.65632" lon="5.51597">
        <ele>369</ele>
        <time>2025-05-27T12:52:34.000Z</time>
      </trkpt>
      <trkpt lat="49.65626" lon="5.51624">
        <ele>368.20001220703</ele>
        <time>2025-05-27T12:52:37.000Z</time>
      </trkpt>
      <trkpt lat="49.65617" lon="5.5164">
        <ele>368</ele>
        <time>2025-05-27T12:52:39.000Z</time>
      </trkpt>
      <trkpt lat="49.65609" lon="5.51655">
        <ele>367.79998779297</ele>
        <time>2025-05-27T12:52:41.000Z</time>
      </trkpt>
      <trkpt lat="49.65597" lon="5.51677">
        <ele>368</ele>
        <time>2025-05-27T12:52:44.000Z</time>
      </trkpt>
      <trkpt lat="49.65593" lon="5.51695">
        <ele>367.60000610352</ele>
        <time>2025-05-27T12:52:46.000Z</time>
      </trkpt>
      <trkpt lat="49.6559" lon="5.51714">
        <ele>367.20001220703</ele>
        <time>2025-05-27T12:52:48.000Z</time>
      </trkpt>
      <trkpt lat="49.65586" lon="5.51753">
        <ele>366.20001220703</ele>
        <time>2025-05-27T12:52:52.000Z</time>
      </trkpt>
      <trkpt lat="49.65583" lon="5.5179">
        <ele>365.60000610352</ele>
        <time>2025-05-27T12:52:56.000Z</time>
      </trkpt>
      <trkpt lat="49.65584" lon="5.51808">
        <ele>365.39999389648</ele>
        <time>2025-05-27T12:52:58.000Z</time>
      </trkpt>
      <trkpt lat="49.65585" lon="5.51816">
        <ele>365.60000610352</ele>
        <time>2025-05-27T12:52:59.000Z</time>
      </trkpt>
      <trkpt lat="49.65591" lon="5.51836">
        <ele>365.79998779297</ele>
        <time>2025-05-27T12:53:02.000Z</time>
      </trkpt>
      <trkpt lat="49.65592" lon="5.51843">
        <ele>365.79998779297</ele>
        <time>2025-05-27T12:53:03.000Z</time>
      </trkpt>
      <trkpt lat="49.65599" lon="5.51879">
        <ele>365.79998779297</ele>
        <time>2025-05-27T12:53:08.000Z</time>
      </trkpt>
      <trkpt lat="49.65604" lon="5.51933">
        <ele>365.79998779297</ele>
        <time>2025-05-27T12:53:14.000Z</time>
      </trkpt>
      <trkpt lat="49.65605" lon="5.51941">
        <ele>365.79998779297</ele>
        <time>2025-05-27T12:53:15.000Z</time>
      </trkpt>
      <trkpt lat="49.65606" lon="5.51991">
        <ele>363.60000610352</ele>
        <time>2025-05-27T12:53:22.000Z</time>
      </trkpt>
      <trkpt lat="49.65609" lon="5.52025">
        <ele>363.20001220703</ele>
        <time>2025-05-27T12:53:26.000Z</time>
      </trkpt>
      <trkpt lat="49.6561" lon="5.52034">
        <ele>363</ele>
        <time>2025-05-27T12:53:27.000Z</time>
      </trkpt>
      <trkpt lat="49.65612" lon="5.52042">
        <ele>363</ele>
        <time>2025-05-27T12:53:28.000Z</time>
      </trkpt>
      <trkpt lat="49.65614" lon="5.52059">
        <ele>363</ele>
        <time>2025-05-27T12:53:30.000Z</time>
      </trkpt>
      <trkpt lat="49.65623" lon="5.5209">
        <ele>363.20001220703</ele>
        <time>2025-05-27T12:53:34.000Z</time>
      </trkpt>
      <trkpt lat="49.65634" lon="5.52114">
        <ele>361.60000610352</ele>
        <time>2025-05-27T12:53:37.000Z</time>
      </trkpt>
      <trkpt lat="49.65639" lon="5.52121">
        <ele>361</ele>
        <time>2025-05-27T12:53:39.000Z</time>
      </trkpt>
      <trkpt lat="49.65644" lon="5.52124">
        <ele>360.60000610352</ele>
        <time>2025-05-27T12:53:53.000Z</time>
      </trkpt>
      <trkpt lat="49.65645" lon="5.52123">
        <ele>360.60000610352</ele>
        <time>2025-05-27T12:53:54.000Z</time>
      </trkpt>
      <trkpt lat="49.65657" lon="5.5212">
        <ele>360</ele>
        <time>2025-05-27T12:53:59.000Z</time>
      </trkpt>
      <trkpt lat="49.65668" lon="5.52111">
        <ele>359.20001220703</ele>
        <time>2025-05-27T12:54:03.000Z</time>
      </trkpt>
      <trkpt lat="49.65687" lon="5.52095">
        <ele>359.60000610352</ele>
        <time>2025-05-27T12:54:10.000Z</time>
      </trkpt>
      <trkpt lat="49.65707" lon="5.52077">
        <ele>360</ele>
        <time>2025-05-27T12:54:16.000Z</time>
      </trkpt>
      <trkpt lat="49.65727" lon="5.52062">
        <ele>360</ele>
        <time>2025-05-27T12:54:22.000Z</time>
      </trkpt>
      <trkpt lat="49.65734" lon="5.52057">
        <ele>360.20001220703</ele>
        <time>2025-05-27T12:54:24.000Z</time>
      </trkpt>
      <trkpt lat="49.65752" lon="5.52039">
        <ele>361.60000610352</ele>
        <time>2025-05-27T12:54:29.000Z</time>
      </trkpt>
      <trkpt lat="49.65771" lon="5.5202">
        <ele>363.60000610352</ele>
        <time>2025-05-27T12:54:35.000Z</time>
      </trkpt>
      <trkpt lat="49.65778" lon="5.52015">
        <ele>364.20001220703</ele>
        <time>2025-05-27T12:54:37.000Z</time>
      </trkpt>
      <trkpt lat="49.65792" lon="5.52005">
        <ele>365.20001220703</ele>
        <time>2025-05-27T12:54:42.000Z</time>
      </trkpt>
      <trkpt lat="49.6581" lon="5.51991">
        <ele>366.39999389648</ele>
        <time>2025-05-27T12:54:47.000Z</time>
      </trkpt>
      <trkpt lat="49.65815" lon="5.51985">
        <ele>367</ele>
        <time>2025-05-27T12:54:49.000Z</time>
      </trkpt>
      <trkpt lat="49.65824" lon="5.51973">
        <ele>367</ele>
        <time>2025-05-27T12:54:53.000Z</time>
      </trkpt>
      <trkpt lat="49.65825" lon="5.51972">
        <ele>367</ele>
        <time>2025-05-27T12:54:54.000Z</time>
      </trkpt>
      <trkpt lat="49.6584" lon="5.51969">
        <ele>367.39999389648</ele>
        <time>2025-05-27T12:55:00.000Z</time>
      </trkpt>
      <trkpt lat="49.65844" lon="5.51971">
        <ele>367.79998779297</ele>
        <time>2025-05-27T12:55:01.000Z</time>
      </trkpt>
      <trkpt lat="49.6585" lon="5.51974">
        <ele>368.20001220703</ele>
        <time>2025-05-27T12:55:02.000Z</time>
      </trkpt>
      <trkpt lat="49.65866" lon="5.52001">
        <ele>369</ele>
        <time>2025-05-27T12:55:07.000Z</time>
      </trkpt>
      <trkpt lat="49.65881" lon="5.52048">
        <ele>368</ele>
        <time>2025-05-27T12:55:14.000Z</time>
      </trkpt>
      <trkpt lat="49.65885" lon="5.52061">
        <ele>368</ele>
        <time>2025-05-27T12:55:16.000Z</time>
      </trkpt>
      <trkpt lat="49.6589" lon="5.52086">
        <ele>367.79998779297</ele>
        <time>2025-05-27T12:55:20.000Z</time>
      </trkpt>
      <trkpt lat="49.65897" lon="5.52121">
        <ele>367</ele>
        <time>2025-05-27T12:55:26.000Z</time>
      </trkpt>
      <trkpt lat="49.65896" lon="5.52148">
        <ele>366.79998779297</ele>
        <time>2025-05-27T12:55:30.000Z</time>
      </trkpt>
      <trkpt lat="49.65901" lon="5.5218">
        <ele>366.60000610352</ele>
        <time>2025-05-27T12:55:35.000Z</time>
      </trkpt>
      <trkpt lat="49.6591" lon="5.52238">
        <ele>367.79998779297</ele>
        <time>2025-05-27T12:55:44.000Z</time>
      </trkpt>
      <trkpt lat="49.65916" lon="5.52286">
        <ele>369.39999389648</ele>
        <time>2025-05-27T12:55:51.000Z</time>
      </trkpt>
      <trkpt lat="49.65919" lon="5.52324">
        <ele>369.79998779297</ele>
        <time>2025-05-27T12:55:57.000Z</time>
      </trkpt>
      <trkpt lat="49.6592" lon="5.52339">
        <ele>370.20001220703</ele>
        <time>2025-05-27T12:55:59.000Z</time>
      </trkpt>
      <trkpt lat="49.65922" lon="5.52357">
        <ele>370.79998779297</ele>
        <time>2025-05-27T12:56:02.000Z</time>
      </trkpt>
      <trkpt lat="49.65925" lon="5.5237">
        <ele>371</ele>
        <time>2025-05-27T12:56:04.000Z</time>
      </trkpt>
      <trkpt lat="49.6593" lon="5.52382">
        <ele>371</ele>
        <time>2025-05-27T12:56:07.000Z</time>
      </trkpt>
      <trkpt lat="49.65944" lon="5.52406">
        <ele>369.79998779297</ele>
        <time>2025-05-27T12:56:12.000Z</time>
      </trkpt>
      <trkpt lat="49.65962" lon="5.52429">
        <ele>368.20001220703</ele>
        <time>2025-05-27T12:56:17.000Z</time>
      </trkpt>
      <trkpt lat="49.65971" lon="5.52432">
        <ele>368</ele>
        <time>2025-05-27T12:56:19.000Z</time>
      </trkpt>
      <trkpt lat="49.65978" lon="5.5243">
        <ele>368.20001220703</ele>
        <time>2025-05-27T12:56:21.000Z</time>
      </trkpt>
      <trkpt lat="49.65984" lon="5.52427">
        <ele>368.79998779297</ele>
        <time>2025-05-27T12:56:23.000Z</time>
      </trkpt>
      <trkpt lat="49.65996" lon="5.52432">
        <ele>369.20001220703</ele>
        <time>2025-05-27T12:56:30.000Z</time>
      </trkpt>
      <trkpt lat="49.66001" lon="5.52433">
        <ele>369.39999389648</ele>
        <time>2025-05-27T12:56:31.000Z</time>
      </trkpt>
      <trkpt lat="49.66019" lon="5.52444">
        <ele>370.60000610352</ele>
        <time>2025-05-27T12:56:36.000Z</time>
      </trkpt>
      <trkpt lat="49.66034" lon="5.52449">
        <ele>371.79998779297</ele>
        <time>2025-05-27T12:56:40.000Z</time>
      </trkpt>
      <trkpt lat="49.66038" lon="5.52449">
        <ele>371.79998779297</ele>
        <time>2025-05-27T12:56:41.000Z</time>
      </trkpt>
      <trkpt lat="49.66055" lon="5.52457">
        <ele>372</ele>
        <time>2025-05-27T12:56:45.000Z</time>
      </trkpt>
      <trkpt lat="49.66062" lon="5.52464">
        <ele>371.60000610352</ele>
        <time>2025-05-27T12:56:47.000Z</time>
      </trkpt>
      <trkpt lat="49.66085" lon="5.5249">
        <ele>370.20001220703</ele>
        <time>2025-05-27T12:56:54.000Z</time>
      </trkpt>
      <trkpt lat="49.66109" lon="5.52516">
        <ele>370.60000610352</ele>
        <time>2025-05-27T12:57:00.000Z</time>
      </trkpt>
      <trkpt lat="49.6613" lon="5.52534">
        <ele>372.39999389648</ele>
        <time>2025-05-27T12:57:05.000Z</time>
      </trkpt>
      <trkpt lat="49.66155" lon="5.5254">
        <ele>374.20001220703</ele>
        <time>2025-05-27T12:57:10.000Z</time>
      </trkpt>
      <trkpt lat="49.66162" lon="5.52538">
        <ele>374.39999389648</ele>
        <time>2025-05-27T12:57:11.000Z</time>
      </trkpt>
      <trkpt lat="49.66189" lon="5.52528">
        <ele>374</ele>
        <time>2025-05-27T12:57:15.000Z</time>
      </trkpt>
      <trkpt lat="49.66234" lon="5.52505">
        <ele>372</ele>
        <time>2025-05-27T12:57:23.000Z</time>
      </trkpt>
      <trkpt lat="49.66278" lon="5.52486">
        <ele>369.60000610352</ele>
        <time>2025-05-27T12:57:31.000Z</time>
      </trkpt>
      <trkpt lat="49.66316" lon="5.52467">
        <ele>368.20001220703</ele>
        <time>2025-05-27T12:57:39.000Z</time>
      </trkpt>
      <trkpt lat="49.66337" lon="5.52455">
        <ele>365.79998779297</ele>
        <time>2025-05-27T12:57:44.000Z</time>
      </trkpt>
      <trkpt lat="49.66342" lon="5.52453">
        <ele>365.20001220703</ele>
        <time>2025-05-27T12:57:45.000Z</time>
      </trkpt>
      <trkpt lat="49.66353" lon="5.52447">
        <ele>364</ele>
        <time>2025-05-27T12:57:47.000Z</time>
      </trkpt>
      <trkpt lat="49.66371" lon="5.52437">
        <ele>363</ele>
        <time>2025-05-27T12:57:50.000Z</time>
      </trkpt>
      <trkpt lat="49.66376" lon="5.52435">
        <ele>363</ele>
        <time>2025-05-27T12:57:51.000Z</time>
      </trkpt>
      <trkpt lat="49.66392" lon="5.52426">
        <ele>362.60000610352</ele>
        <time>2025-05-27T12:57:54.000Z</time>
      </trkpt>
      <trkpt lat="49.66405" lon="5.5242">
        <ele>362.20001220703</ele>
        <time>2025-05-27T12:57:57.000Z</time>
      </trkpt>
      <trkpt lat="49.66409" lon="5.52417">
        <ele>362</ele>
        <time>2025-05-27T12:57:58.000Z</time>
      </trkpt>
      <trkpt lat="49.66421" lon="5.52405">
        <ele>361.20001220703</ele>
        <time>2025-05-27T12:58:01.000Z</time>
      </trkpt>
      <trkpt lat="49.66424" lon="5.52398">
        <ele>360.39999389648</ele>
        <time>2025-05-27T12:58:02.000Z</time>
      </trkpt>
      <trkpt lat="49.6643" lon="5.52377">
        <ele>358.39999389648</ele>
        <time>2025-05-27T12:58:05.000Z</time>
      </trkpt>
      <trkpt lat="49.66429" lon="5.52364">
        <ele>357.79998779297</ele>
        <time>2025-05-27T12:58:07.000Z</time>
      </trkpt>
      <trkpt lat="49.66426" lon="5.52359">
        <ele>357.60000610352</ele>
        <time>2025-05-27T12:58:08.000Z</time>
      </trkpt>
      <trkpt lat="49.6642" lon="5.52351">
        <ele>357.20001220703</ele>
        <time>2025-05-27T12:58:10.000Z</time>
      </trkpt>
      <trkpt lat="49.66417" lon="5.52347">
        <ele>357</ele>
        <time>2025-05-27T12:58:11.000Z</time>
      </trkpt>
      <trkpt lat="49.66407" lon="5.52336">
        <ele>356.60000610352</ele>
        <time>2025-05-27T12:58:14.000Z</time>
      </trkpt>
      <trkpt lat="49.66381" lon="5.52307">
        <ele>356.39999389648</ele>
        <time>2025-05-27T12:58:21.000Z</time>
      </trkpt>
      <trkpt lat="49.66368" lon="5.52289">
        <ele>356.39999389648</ele>
        <time>2025-05-27T12:58:25.000Z</time>
      </trkpt>
      <trkpt lat="49.6636" lon="5.52271">
        <ele>356.39999389648</ele>
        <time>2025-05-27T12:58:28.000Z</time>
      </trkpt>
      <trkpt lat="49.66342" lon="5.52239">
        <ele>357.79998779297</ele>
        <time>2025-05-27T12:58:34.000Z</time>
      </trkpt>
      <trkpt lat="49.66329" lon="5.52201">
        <ele>359.79998779297</ele>
        <time>2025-05-27T12:58:40.000Z</time>
      </trkpt>
      <trkpt lat="49.66322" lon="5.52173">
        <ele>361</ele>
        <time>2025-05-27T12:58:44.000Z</time>
      </trkpt>
      <trkpt lat="49.6632" lon="5.52153">
        <ele>361.20001220703</ele>
        <time>2025-05-27T12:58:47.000Z</time>
      </trkpt>
      <trkpt lat="49.66316" lon="5.52128">
        <ele>361.79998779297</ele>
        <time>2025-05-27T12:58:52.000Z</time>
      </trkpt>
      <trkpt lat="49.66317" lon="5.52125">
        <ele>361.79998779297</ele>
        <time>2025-05-27T12:58:53.000Z</time>
      </trkpt>
      <trkpt lat="49.66317" lon="5.52118">
        <ele>361.79998779297</ele>
        <time>2025-05-27T12:58:55.000Z</time>
      </trkpt>
      <trkpt lat="49.66319" lon="5.52101">
        <ele>361.60000610352</ele>
        <time>2025-05-27T12:58:59.000Z</time>
      </trkpt>
      <trkpt lat="49.66332" lon="5.52066">
        <ele>361.60000610352</ele>
        <time>2025-05-27T12:59:06.000Z</time>
      </trkpt>
      <trkpt lat="49.66339" lon="5.5205">
        <ele>362.20001220703</ele>
        <time>2025-05-27T12:59:09.000Z</time>
      </trkpt>
      <trkpt lat="49.6635" lon="5.5203">
        <ele>363</ele>
        <time>2025-05-27T12:59:13.000Z</time>
      </trkpt>
      <trkpt lat="49.66352" lon="5.52024">
        <ele>363.20001220703</ele>
        <time>2025-05-27T12:59:14.000Z</time>
      </trkpt>
      <trkpt lat="49.66362" lon="5.52">
        <ele>364</ele>
        <time>2025-05-27T12:59:19.000Z</time>
      </trkpt>
      <trkpt lat="49.66365" lon="5.51993">
        <ele>364.20001220703</ele>
        <time>2025-05-27T12:59:20.000Z</time>
      </trkpt>
      <trkpt lat="49.66369" lon="5.51976">
        <ele>364.79998779297</ele>
        <time>2025-05-27T12:59:23.000Z</time>
      </trkpt>
      <trkpt lat="49.66372" lon="5.51966">
        <ele>365.20001220703</ele>
        <time>2025-05-27T12:59:25.000Z</time>
      </trkpt>
      <trkpt lat="49.66377" lon="5.51956">
        <ele>365.60000610352</ele>
        <time>2025-05-27T12:59:27.000Z</time>
      </trkpt>
      <trkpt lat="49.66385" lon="5.51941">
        <ele>367.20001220703</ele>
        <time>2025-05-27T12:59:31.000Z</time>
      </trkpt>
      <trkpt lat="49.66389" lon="5.51937">
        <ele>367.60000610352</ele>
        <time>2025-05-27T12:59:32.000Z</time>
      </trkpt>
      <trkpt lat="49.66399" lon="5.51926">
        <ele>369.20001220703</ele>
        <time>2025-05-27T12:59:36.000Z</time>
      </trkpt>
      <trkpt lat="49.6642" lon="5.51925">
        <ele>369.39999389648</ele>
        <time>2025-05-27T12:59:42.000Z</time>
      </trkpt>
      <trkpt lat="49.66428" lon="5.51927">
        <ele>369.39999389648</ele>
        <time>2025-05-27T12:59:45.000Z</time>
      </trkpt>
      <trkpt lat="49.6643" lon="5.51928">
        <ele>369.60000610352</ele>
        <time>2025-05-27T12:59:46.000Z</time>
      </trkpt>
      <trkpt lat="49.66449" lon="5.51922">
        <ele>370.60000610352</ele>
        <time>2025-05-27T12:59:51.000Z</time>
      </trkpt>
      <trkpt lat="49.66469" lon="5.51911">
        <ele>371</ele>
        <time>2025-05-27T12:59:56.000Z</time>
      </trkpt>
      <trkpt lat="49.66484" lon="5.51898">
        <ele>370</ele>
        <time>2025-05-27T13:00:00.000Z</time>
      </trkpt>
      <trkpt lat="49.66489" lon="5.51893">
        <ele>369.79998779297</ele>
        <time>2025-05-27T13:00:01.000Z</time>
      </trkpt>
      <trkpt lat="49.66502" lon="5.51875">
        <ele>368</ele>
        <time>2025-05-27T13:00:06.000Z</time>
      </trkpt>
      <trkpt lat="49.66505" lon="5.5187">
        <ele>367.60000610352</ele>
        <time>2025-05-27T13:00:07.000Z</time>
      </trkpt>
      <trkpt lat="49.66517" lon="5.51857">
        <ele>366.39999389648</ele>
        <time>2025-05-27T13:00:11.000Z</time>
      </trkpt>
      <trkpt lat="49.6652" lon="5.51855">
        <ele>366.20001220703</ele>
        <time>2025-05-27T13:00:12.000Z</time>
      </trkpt>
      <trkpt lat="49.66533" lon="5.51845">
        <ele>366.60000610352</ele>
        <time>2025-05-27T13:00:17.000Z</time>
      </trkpt>
      <trkpt lat="49.66542" lon="5.5184">
        <ele>367</ele>
        <time>2025-05-27T13:00:20.000Z</time>
      </trkpt>
      <trkpt lat="49.66566" lon="5.51824">
        <ele>367.79998779297</ele>
        <time>2025-05-27T13:00:26.000Z</time>
      </trkpt>
      <trkpt lat="49.66593" lon="5.51815">
        <ele>370.20001220703</ele>
        <time>2025-05-27T13:00:31.000Z</time>
      </trkpt>
      <trkpt lat="49.66625" lon="5.51806">
        <ele>371.60000610352</ele>
        <time>2025-05-27T13:00:37.000Z</time>
      </trkpt>
      <trkpt lat="49.66655" lon="5.51799">
        <ele>372.79998779297</ele>
        <time>2025-05-27T13:00:43.000Z</time>
      </trkpt>
      <trkpt lat="49.66673" lon="5.51782">
        <ele>372</ele>
        <time>2025-05-27T13:00:48.000Z</time>
      </trkpt>
      <trkpt lat="49.66697" lon="5.51762">
        <ele>372</ele>
        <time>2025-05-27T13:00:54.000Z</time>
      </trkpt>
      <trkpt lat="49.66707" lon="5.51759">
        <ele>371.79998779297</ele>
        <time>2025-05-27T13:00:56.000Z</time>
      </trkpt>
      <trkpt lat="49.66724" lon="5.51755">
        <ele>370.39999389648</ele>
        <time>2025-05-27T13:00:59.000Z</time>
      </trkpt>
      <trkpt lat="49.66748" lon="5.51747">
        <ele>368.39999389648</ele>
        <time>2025-05-27T13:01:04.000Z</time>
      </trkpt>
      <trkpt lat="49.66757" lon="5.51735">
        <ele>367.39999389648</ele>
        <time>2025-05-27T13:01:07.000Z</time>
      </trkpt>
      <trkpt lat="49.66766" lon="5.51717">
        <ele>366</ele>
        <time>2025-05-27T13:01:10.000Z</time>
      </trkpt>
      <trkpt lat="49.6677" lon="5.51708">
        <ele>365.39999389648</ele>
        <time>2025-05-27T13:01:11.000Z</time>
      </trkpt>
      <trkpt lat="49.66781" lon="5.51685">
        <ele>364</ele>
        <time>2025-05-27T13:01:14.000Z</time>
      </trkpt>
      <trkpt lat="49.66783" lon="5.5168">
        <ele>364</ele>
        <time>2025-05-27T13:01:15.000Z</time>
      </trkpt>
      <trkpt lat="49.66783" lon="5.5165">
        <ele>364</ele>
        <time>2025-05-27T13:01:20.000Z</time>
      </trkpt>
      <trkpt lat="49.66784" lon="5.51643">
        <ele>363.79998779297</ele>
        <time>2025-05-27T13:01:21.000Z</time>
      </trkpt>
      <trkpt lat="49.66791" lon="5.51615">
        <ele>363.20001220703</ele>
        <time>2025-05-27T13:01:25.000Z</time>
      </trkpt>
      <trkpt lat="49.66793" lon="5.5161">
        <ele>363.39999389648</ele>
        <time>2025-05-27T13:01:26.000Z</time>
      </trkpt>
      <trkpt lat="49.668" lon="5.51598">
        <ele>363.20001220703</ele>
        <time>2025-05-27T13:01:29.000Z</time>
      </trkpt>
      <trkpt lat="49.66807" lon="5.51588">
        <ele>363</ele>
        <time>2025-05-27T13:01:31.000Z</time>
      </trkpt>
      <trkpt lat="49.66812" lon="5.5156">
        <ele>362.79998779297</ele>
        <time>2025-05-27T13:01:35.000Z</time>
      </trkpt>
      <trkpt lat="49.66814" lon="5.51551">
        <ele>362.79998779297</ele>
        <time>2025-05-27T13:01:36.000Z</time>
      </trkpt>
      <trkpt lat="49.66815" lon="5.51543">
        <ele>362.60000610352</ele>
        <time>2025-05-27T13:01:37.000Z</time>
      </trkpt>
      <trkpt lat="49.6682" lon="5.51534">
        <ele>362.20001220703</ele>
        <time>2025-05-27T13:01:39.000Z</time>
      </trkpt>
      <trkpt lat="49.66836" lon="5.51535">
        <ele>361.20001220703</ele>
        <time>2025-05-27T13:01:45.000Z</time>
      </trkpt>
      <trkpt lat="49.66837" lon="5.5154">
        <ele>361</ele>
        <time>2025-05-27T13:01:47.000Z</time>
      </trkpt>
      <trkpt lat="49.66845" lon="5.51552">
        <ele>360.20001220703</ele>
        <time>2025-05-27T13:01:49.000Z</time>
      </trkpt>
      <trkpt lat="49.66848" lon="5.51557">
        <ele>359.79998779297</ele>
        <time>2025-05-27T13:01:50.000Z</time>
      </trkpt>
      <trkpt lat="49.66851" lon="5.51564">
        <ele>359.39999389648</ele>
        <time>2025-05-27T13:01:51.000Z</time>
      </trkpt>
      <trkpt lat="49.6686" lon="5.51583">
        <ele>357.60000610352</ele>
        <time>2025-05-27T13:01:54.000Z</time>
      </trkpt>
      <trkpt lat="49.6687" lon="5.51597">
        <ele>356</ele>
        <time>2025-05-27T13:01:56.000Z</time>
      </trkpt>
      <trkpt lat="49.66882" lon="5.51612">
        <ele>355</ele>
        <time>2025-05-27T13:01:58.000Z</time>
      </trkpt>
      <trkpt lat="49.66902" lon="5.51634">
        <ele>356.39999389648</ele>
        <time>2025-05-27T13:02:02.000Z</time>
      </trkpt>
      <trkpt lat="49.6691" lon="5.51626">
        <ele>356.60000610352</ele>
        <time>2025-05-27T13:02:05.000Z</time>
      </trkpt>
      <trkpt lat="49.6691" lon="5.5162">
        <ele>356.20001220703</ele>
        <time>2025-05-27T13:02:07.000Z</time>
      </trkpt>
      <trkpt lat="49.66908" lon="5.51607">
        <ele>355.60000610352</ele>
        <time>2025-05-27T13:02:10.000Z</time>
      </trkpt>
      <trkpt lat="49.669" lon="5.51573">
        <ele>354.39999389648</ele>
        <time>2025-05-27T13:02:15.000Z</time>
      </trkpt>
      <trkpt lat="49.66899" lon="5.51565">
        <ele>354.20001220703</ele>
        <time>2025-05-27T13:02:16.000Z</time>
      </trkpt>
      <trkpt lat="49.66889" lon="5.51514">
        <ele>352.79998779297</ele>
        <time>2025-05-27T13:02:23.000Z</time>
      </trkpt>
      <trkpt lat="49.66869" lon="5.51478">
        <ele>352.20001220703</ele>
        <time>2025-05-27T13:02:29.000Z</time>
      </trkpt>
      <trkpt lat="49.66845" lon="5.51419">
        <ele>348.39999389648</ele>
        <time>2025-05-27T13:02:38.000Z</time>
      </trkpt>
      <trkpt lat="49.66835" lon="5.51374">
        <ele>346.60000610352</ele>
        <time>2025-05-27T13:02:44.000Z</time>
      </trkpt>
      <trkpt lat="49.66835" lon="5.51368">
        <ele>346.39999389648</ele>
        <time>2025-05-27T13:02:45.000Z</time>
      </trkpt>
      <trkpt lat="49.6684" lon="5.51363">
        <ele>346.20001220703</ele>
        <time>2025-05-27T13:02:47.000Z</time>
      </trkpt>
      <trkpt lat="49.66852" lon="5.51361">
        <ele>346.39999389648</ele>
        <time>2025-05-27T13:02:50.000Z</time>
      </trkpt>
      <trkpt lat="49.6686" lon="5.51359">
        <ele>346.60000610352</ele>
        <time>2025-05-27T13:02:52.000Z</time>
      </trkpt>
      <trkpt lat="49.66868" lon="5.51355">
        <ele>347.20001220703</ele>
        <time>2025-05-27T13:02:54.000Z</time>
      </trkpt>
      <trkpt lat="49.66874" lon="5.51343">
        <ele>348.20001220703</ele>
        <time>2025-05-27T13:02:56.000Z</time>
      </trkpt>
      <trkpt lat="49.66877" lon="5.51321">
        <ele>349</ele>
        <time>2025-05-27T13:02:59.000Z</time>
      </trkpt>
      <trkpt lat="49.66871" lon="5.513">
        <ele>348.39999389648</ele>
        <time>2025-05-27T13:03:02.000Z</time>
      </trkpt>
      <trkpt lat="49.66869" lon="5.51293">
        <ele>348.20001220703</ele>
        <time>2025-05-27T13:03:03.000Z</time>
      </trkpt>
      <trkpt lat="49.66868" lon="5.51287">
        <ele>348.20001220703</ele>
        <time>2025-05-27T13:03:04.000Z</time>
      </trkpt>
      <trkpt lat="49.66866" lon="5.51267">
        <ele>348</ele>
        <time>2025-05-27T13:03:07.000Z</time>
      </trkpt>
      <trkpt lat="49.66866" lon="5.5126">
        <ele>348</ele>
        <time>2025-05-27T13:03:08.000Z</time>
      </trkpt>
      <trkpt lat="49.6686" lon="5.51229">
        <ele>348</ele>
        <time>2025-05-27T13:03:13.000Z</time>
      </trkpt>
      <trkpt lat="49.66856" lon="5.51184">
        <ele>349</ele>
        <time>2025-05-27T13:03:19.000Z</time>
      </trkpt>
      <trkpt lat="49.66854" lon="5.51163">
        <ele>349.39999389648</ele>
        <time>2025-05-27T13:03:22.000Z</time>
      </trkpt>
      <trkpt lat="49.66854" lon="5.51147">
        <ele>350</ele>
        <time>2025-05-27T13:03:24.000Z</time>
      </trkpt>
      <trkpt lat="49.66853" lon="5.51131">
        <ele>350.39999389648</ele>
        <time>2025-05-27T13:03:26.000Z</time>
      </trkpt>
      <trkpt lat="49.66854" lon="5.51083">
        <ele>352.20001220703</ele>
        <time>2025-05-27T13:03:33.000Z</time>
      </trkpt>
      <trkpt lat="49.66854" lon="5.51077">
        <ele>352.79998779297</ele>
        <time>2025-05-27T13:03:34.000Z</time>
      </trkpt>
      <trkpt lat="49.66859" lon="5.51026">
        <ele>354.60000610352</ele>
        <time>2025-05-27T13:03:41.000Z</time>
      </trkpt>
      <trkpt lat="49.66863" lon="5.5096">
        <ele>357.39999389648</ele>
        <time>2025-05-27T13:03:50.000Z</time>
      </trkpt>
      <trkpt lat="49.66864" lon="5.50928">
        <ele>357.39999389648</ele>
        <time>2025-05-27T13:03:55.000Z</time>
      </trkpt>
      <trkpt lat="49.6687" lon="5.50906">
        <ele>357.20001220703</ele>
        <time>2025-05-27T13:04:00.000Z</time>
      </trkpt>
      <trkpt lat="49.66871" lon="5.50903">
        <ele>357.20001220703</ele>
        <time>2025-05-27T13:04:01.000Z</time>
      </trkpt>
      <trkpt lat="49.66886" lon="5.50881">
        <ele>357.39999389648</ele>
        <time>2025-05-27T13:04:07.000Z</time>
      </trkpt>
      <trkpt lat="49.66897" lon="5.5087">
        <ele>357.39999389648</ele>
        <time>2025-05-27T13:04:11.000Z</time>
      </trkpt>
      <trkpt lat="49.66913" lon="5.50857">
        <ele>358.79998779297</ele>
        <time>2025-05-27T13:04:15.000Z</time>
      </trkpt>
      <trkpt lat="49.66917" lon="5.50854">
        <ele>359.20001220703</ele>
        <time>2025-05-27T13:04:16.000Z</time>
      </trkpt>
      <trkpt lat="49.66933" lon="5.5084">
        <ele>360</ele>
        <time>2025-05-27T13:04:20.000Z</time>
      </trkpt>
      <trkpt lat="49.6695" lon="5.50832">
        <ele>361</ele>
        <time>2025-05-27T13:04:22.000Z</time>
      </trkpt>
      <trkpt lat="49.66965" lon="5.50822">
        <ele>362.20001220703</ele>
        <time>2025-05-27T13:04:25.000Z</time>
      </trkpt>
      <trkpt lat="49.66982" lon="5.5081">
        <ele>363.79998779297</ele>
        <time>2025-05-27T13:04:29.000Z</time>
      </trkpt>
      <trkpt lat="49.67019" lon="5.50783">
        <ele>368.79998779297</ele>
        <time>2025-05-27T13:04:37.000Z</time>
      </trkpt>
      <trkpt lat="49.67049" lon="5.50759">
        <ele>371.60000610352</ele>
        <time>2025-05-27T13:04:43.000Z</time>
      </trkpt>
      <trkpt lat="49.67054" lon="5.50755">
        <ele>371.79998779297</ele>
        <time>2025-05-27T13:04:44.000Z</time>
      </trkpt>
      <trkpt lat="49.6708" lon="5.5073">
        <ele>372.20001220703</ele>
        <time>2025-05-27T13:04:50.000Z</time>
      </trkpt>
      <trkpt lat="49.67088" lon="5.50722">
        <ele>372</ele>
        <time>2025-05-27T13:04:52.000Z</time>
      </trkpt>
      <trkpt lat="49.67102" lon="5.50703">
        <ele>372</ele>
        <time>2025-05-27T13:04:56.000Z</time>
      </trkpt>
      <trkpt lat="49.67113" lon="5.5069">
        <ele>371.79998779297</ele>
        <time>2025-05-27T13:04:59.000Z</time>
      </trkpt>
      <trkpt lat="49.6712" lon="5.50682">
        <ele>372</ele>
        <time>2025-05-27T13:05:01.000Z</time>
      </trkpt>
      <trkpt lat="49.67135" lon="5.50658">
        <ele>372.60000610352</ele>
        <time>2025-05-27T13:05:06.000Z</time>
      </trkpt>
      <trkpt lat="49.67139" lon="5.50654">
        <ele>372.79998779297</ele>
        <time>2025-05-27T13:05:07.000Z</time>
      </trkpt>
      <trkpt lat="49.67148" lon="5.50642">
        <ele>373</ele>
        <time>2025-05-27T13:05:10.000Z</time>
      </trkpt>
      <trkpt lat="49.67164" lon="5.50622">
        <ele>374</ele>
        <time>2025-05-27T13:05:15.000Z</time>
      </trkpt>
      <trkpt lat="49.67167" lon="5.50618">
        <ele>374</ele>
        <time>2025-05-27T13:05:16.000Z</time>
      </trkpt>
      <trkpt lat="49.67177" lon="5.50605">
        <ele>373.79998779297</ele>
        <time>2025-05-27T13:05:19.000Z</time>
      </trkpt>
      <trkpt lat="49.67183" lon="5.50594">
        <ele>373.39999389648</ele>
        <time>2025-05-27T13:05:21.000Z</time>
      </trkpt>
      <trkpt lat="49.67191" lon="5.50584">
        <ele>373.60000610352</ele>
        <time>2025-05-27T13:05:23.000Z</time>
      </trkpt>
      <trkpt lat="49.67201" lon="5.50568">
        <ele>372.39999389648</ele>
        <time>2025-05-27T13:05:26.000Z</time>
      </trkpt>
      <trkpt lat="49.67209" lon="5.50558">
        <ele>371.79998779297</ele>
        <time>2025-05-27T13:05:28.000Z</time>
      </trkpt>
      <trkpt lat="49.67238" lon="5.50523">
        <ele>370.79998779297</ele>
        <time>2025-05-27T13:05:36.000Z</time>
      </trkpt>
      <trkpt lat="49.67256" lon="5.50501">
        <ele>371</ele>
        <time>2025-05-27T13:05:42.000Z</time>
      </trkpt>
      <trkpt lat="49.67257" lon="5.50497">
        <ele>370.79998779297</ele>
        <time>2025-05-27T13:05:43.000Z</time>
      </trkpt>
      <trkpt lat="49.67253" lon="5.50481">
        <ele>369.39999389648</ele>
        <time>2025-05-27T13:05:47.000Z</time>
      </trkpt>
      <trkpt lat="49.67251" lon="5.50476">
        <ele>368.79998779297</ele>
        <time>2025-05-27T13:05:48.000Z</time>
      </trkpt>
      <trkpt lat="49.67243" lon="5.50465">
        <ele>367.60000610352</ele>
        <time>2025-05-27T13:05:50.000Z</time>
      </trkpt>
      <trkpt lat="49.67227" lon="5.50446">
        <ele>365</ele>
        <time>2025-05-27T13:05:54.000Z</time>
      </trkpt>
      <trkpt lat="49.672" lon="5.50412">
        <ele>364.20001220703</ele>
        <time>2025-05-27T13:06:01.000Z</time>
      </trkpt>
      <trkpt lat="49.67183" lon="5.50393">
        <ele>364.79998779297</ele>
        <time>2025-05-27T13:06:05.000Z</time>
      </trkpt>
      <trkpt lat="49.6716" lon="5.50365">
        <ele>365.79998779297</ele>
        <time>2025-05-27T13:06:11.000Z</time>
      </trkpt>
      <trkpt lat="49.67156" lon="5.5036">
        <ele>366.20001220703</ele>
        <time>2025-05-27T13:06:12.000Z</time>
      </trkpt>
      <trkpt lat="49.67144" lon="5.50345">
        <ele>367.20001220703</ele>
        <time>2025-05-27T13:06:15.000Z</time>
      </trkpt>
      <trkpt lat="49.67142" lon="5.50331">
        <ele>368.20001220703</ele>
        <time>2025-05-27T13:06:17.000Z</time>
      </trkpt>
      <trkpt lat="49.67149" lon="5.50309">
        <ele>368.79998779297</ele>
        <time>2025-05-27T13:06:20.000Z</time>
      </trkpt>
      <trkpt lat="49.67151" lon="5.50301">
        <ele>369.20001220703</ele>
        <time>2025-05-27T13:06:21.000Z</time>
      </trkpt>
      <trkpt lat="49.6716" lon="5.50271">
        <ele>370.20001220703</ele>
        <time>2025-05-27T13:06:25.000Z</time>
      </trkpt>
      <trkpt lat="49.6717" lon="5.50232">
        <ele>372.60000610352</ele>
        <time>2025-05-27T13:06:30.000Z</time>
      </trkpt>
      <trkpt lat="49.67172" lon="5.50225">
        <ele>373</ele>
        <time>2025-05-27T13:06:31.000Z</time>
      </trkpt>
      <trkpt lat="49.67182" lon="5.5018">
        <ele>375.39999389648</ele>
        <time>2025-05-27T13:06:37.000Z</time>
      </trkpt>
      <trkpt lat="49.67186" lon="5.50165">
        <ele>375.60000610352</ele>
        <time>2025-05-27T13:06:39.000Z</time>
      </trkpt>
      <trkpt lat="49.672" lon="5.50105">
        <ele>377.39999389648</ele>
        <time>2025-05-27T13:06:47.000Z</time>
      </trkpt>
      <trkpt lat="49.67202" lon="5.50098">
        <ele>377.79998779297</ele>
        <time>2025-05-27T13:06:48.000Z</time>
      </trkpt>
      <trkpt lat="49.6721" lon="5.5006">
        <ele>378.79998779297</ele>
        <time>2025-05-27T13:06:53.000Z</time>
      </trkpt>
      <trkpt lat="49.67215" lon="5.50029">
        <ele>379.60000610352</ele>
        <time>2025-05-27T13:06:57.000Z</time>
      </trkpt>
      <trkpt lat="49.67215" lon="5.50013">
        <ele>379.60000610352</ele>
        <time>2025-05-27T13:06:59.000Z</time>
      </trkpt>
      <trkpt lat="49.67215" lon="5.50005">
        <ele>380</ele>
        <time>2025-05-27T13:07:00.000Z</time>
      </trkpt>
      <trkpt lat="49.67216" lon="5.49973">
        <ele>380.60000610352</ele>
        <time>2025-05-27T13:07:04.000Z</time>
      </trkpt>
      <trkpt lat="49.67221" lon="5.49918">
        <ele>379.39999389648</ele>
        <time>2025-05-27T13:07:11.000Z</time>
      </trkpt>
      <trkpt lat="49.6723" lon="5.49849">
        <ele>373.60000610352</ele>
        <time>2025-05-27T13:07:20.000Z</time>
      </trkpt>
      <trkpt lat="49.67229" lon="5.49842">
        <ele>373.39999389648</ele>
        <time>2025-05-27T13:07:21.000Z</time>
      </trkpt>
      <trkpt lat="49.67227" lon="5.49835">
        <ele>373</ele>
        <time>2025-05-27T13:07:22.000Z</time>
      </trkpt>
      <trkpt lat="49.6722" lon="5.49826">
        <ele>372.79998779297</ele>
        <time>2025-05-27T13:07:24.000Z</time>
      </trkpt>
      <trkpt lat="49.67212" lon="5.49807">
        <ele>372.39999389648</ele>
        <time>2025-05-27T13:07:27.000Z</time>
      </trkpt>
      <trkpt lat="49.67199" lon="5.49793">
        <ele>372.39999389648</ele>
        <time>2025-05-27T13:07:30.000Z</time>
      </trkpt>
      <trkpt lat="49.67188" lon="5.49792">
        <ele>372.39999389648</ele>
        <time>2025-05-27T13:07:32.000Z</time>
      </trkpt>
      <trkpt lat="49.67177" lon="5.49791">
        <ele>372.60000610352</ele>
        <time>2025-05-27T13:07:34.000Z</time>
      </trkpt>
      <trkpt lat="49.67172" lon="5.4979">
        <ele>372.60000610352</ele>
        <time>2025-05-27T13:07:35.000Z</time>
      </trkpt>
      <trkpt lat="49.67167" lon="5.49788">
        <ele>372.39999389648</ele>
        <time>2025-05-27T13:07:36.000Z</time>
      </trkpt>
      <trkpt lat="49.67151" lon="5.49778">
        <ele>372.20001220703</ele>
        <time>2025-05-27T13:07:39.000Z</time>
      </trkpt>
      <trkpt lat="49.6714" lon="5.49771">
        <ele>371.79998779297</ele>
        <time>2025-05-27T13:07:41.000Z</time>
      </trkpt>
      <trkpt lat="49.67106" lon="5.49749">
        <ele>371</ele>
        <time>2025-05-27T13:07:48.000Z</time>
      </trkpt>
      <trkpt lat="49.67085" lon="5.49735">
        <ele>370.79998779297</ele>
        <time>2025-05-27T13:07:52.000Z</time>
      </trkpt>
      <trkpt lat="49.67064" lon="5.49722">
        <ele>370.20001220703</ele>
        <time>2025-05-27T13:07:56.000Z</time>
      </trkpt>
      <trkpt lat="49.67056" lon="5.49712">
        <ele>369.60000610352</ele>
        <time>2025-05-27T13:07:58.000Z</time>
      </trkpt>
      <trkpt lat="49.67056" lon="5.49706">
        <ele>369.20001220703</ele>
        <time>2025-05-27T13:07:59.000Z</time>
      </trkpt>
      <trkpt lat="49.67056" lon="5.49699">
        <ele>369</ele>
        <time>2025-05-27T13:08:00.000Z</time>
      </trkpt>
      <trkpt lat="49.67057" lon="5.49684">
        <ele>368.79998779297</ele>
        <time>2025-05-27T13:08:02.000Z</time>
      </trkpt>
      <trkpt lat="49.67059" lon="5.49661">
        <ele>369.20001220703</ele>
        <time>2025-05-27T13:08:05.000Z</time>
      </trkpt>
      <trkpt lat="49.6706" lon="5.49607">
        <ele>371.20001220703</ele>
        <time>2025-05-27T13:08:12.000Z</time>
      </trkpt>
      <trkpt lat="49.67065" lon="5.49561">
        <ele>371</ele>
        <time>2025-05-27T13:08:18.000Z</time>
      </trkpt>
      <trkpt lat="49.67069" lon="5.49518">
        <ele>370.60000610352</ele>
        <time>2025-05-27T13:08:25.000Z</time>
      </trkpt>
      <trkpt lat="49.67063" lon="5.495">
        <ele>370.20001220703</ele>
        <time>2025-05-27T13:08:28.000Z</time>
      </trkpt>
      <trkpt lat="49.67062" lon="5.49493">
        <ele>369.79998779297</ele>
        <time>2025-05-27T13:08:29.000Z</time>
      </trkpt>
      <trkpt lat="49.67063" lon="5.49471">
        <ele>369.20001220703</ele>
        <time>2025-05-27T13:08:32.000Z</time>
      </trkpt>
      <trkpt lat="49.67056" lon="5.49427">
        <ele>368.60000610352</ele>
        <time>2025-05-27T13:08:38.000Z</time>
      </trkpt>
      <trkpt lat="49.67054" lon="5.4942">
        <ele>368.60000610352</ele>
        <time>2025-05-27T13:08:39.000Z</time>
      </trkpt>
      <trkpt lat="49.67043" lon="5.49399">
        <ele>369</ele>
        <time>2025-05-27T13:08:43.000Z</time>
      </trkpt>
      <trkpt lat="49.67043" lon="5.49394">
        <ele>369.39999389648</ele>
        <time>2025-05-27T13:08:44.000Z</time>
      </trkpt>
      <trkpt lat="49.67046" lon="5.49385">
        <ele>370.20001220703</ele>
        <time>2025-05-27T13:08:46.000Z</time>
      </trkpt>
      <trkpt lat="49.67053" lon="5.49368">
        <ele>370.79998779297</ele>
        <time>2025-05-27T13:08:49.000Z</time>
      </trkpt>
      <trkpt lat="49.67058" lon="5.49358">
        <ele>371</ele>
        <time>2025-05-27T13:08:51.000Z</time>
      </trkpt>
      <trkpt lat="49.67058" lon="5.49354">
        <ele>371</ele>
        <time>2025-05-27T13:08:52.000Z</time>
      </trkpt>
      <trkpt lat="49.67056" lon="5.49348">
        <ele>370.79998779297</ele>
        <time>2025-05-27T13:08:54.000Z</time>
      </trkpt>
    </trkseg>
  </trk>
</gpx>